GFSWCAN_prec_precacc12_045.txt.gz
Total_Precipitation_Accumulation
0.22 0.23 0.16 0.11 0.10 0.08 0.08 0.06 0.06 0.07 0.14 0.11 0.09 0.10 0.10 0.05 0.06 0.28 0.26 0.33 0.53 0.31 0.15 0.07 0.02 0.01 0.00 0.01 0.09 0.05 0.11 0.06 0.09 0.06 0.02 0.00 0.00 0.00 0.00 0.00 0.00 0.00 0.00 0.00 0.00 0.00 0.00 0.00 0.00 0.00 0.00 0.00 0.00 0.00
0.08 0.07 0.06 0.05 0.06 0.06 0.05 0.06 0.09 0.08 0.15 0.10 0.06 0.09 0.06 0.05 0.08 0.25 0.27 0.20 0.39 0.47 0.31 0.09 0.04 0.00 0.00 0.00 0.04 0.10 0.06 0.02 0.03 0.03 0.01 0.02 0.00 0.00 0.00 0.00 0.00 0.00 0.00 0.00 0.00 0.00 0.00 0.00 0.00 0.00 0.00 0.00 0.00 0.00
0.03 0.03 0.05 0.06 0.05 0.07 0.08 0.09 0.13 0.13 0.17 0.07 0.06 0.09 0.06 0.05 0.11 0.26 0.29 0.29 1.11 0.61 0.40 0.13 0.06 0.02 0.00 0.01 0.03 0.06 0.05 0.02 0.03 0.03 0.02 0.01 0.00 0.00 0.00 0.00 0.00 0.00 0.00 0.00 0.00 0.00 0.00 0.00 0.00 0.00 0.00 0.00 0.00 0.00
0.10 0.11 0.13 0.17 0.13 0.10 0.12 0.14 0.14 0.13 0.12 0.05 0.07 0.08 0.06 0.08 0.21 0.29 0.27 0.63 1.41 0.80 0.80 0.29 0.13 0.11 0.06 0.02 0.03 0.02 0.04 0.03 0.02 0.03 0.03 0.01 0.00 0.00 0.00 0.00 0.00 0.00 0.00 0.00 0.00 0.00 0.00 0.00 0.00 0.00 0.00 0.00 0.00 0.00
0.16 0.19 0.24 0.23 0.14 0.12 0.13 0.13 0.12 0.12 0.10 0.06 0.06 0.06 0.08 0.12 0.38 0.29 0.40 0.72 1.01 0.82 0.88 0.61 0.11 0.14 0.14 0.06 0.02 0.02 0.04 0.03 0.03 0.05 0.03 0.01 0.00 0.00 0.00 0.00 0.00 0.00 0.00 0.00 0.00 0.00 0.00 0.00 0.00 0.00 0.00 0.00 0.00 0.00
0.28 0.25 0.21 0.13 0.09 0.08 0.09 0.09 0.09 0.10 0.11 0.08 0.09 0.11 0.14 0.29 0.56 0.48 0.89 0.56 0.54 0.65 0.74 0.76 0.35 0.16 0.16 0.15 0.06 0.04 0.04 0.04 0.02 0.01 0.01 0.00 0.00 0.00 0.00 0.00 0.00 0.00 0.00 0.00 0.00 0.00 0.00 0.00 0.00 0.00 0.00 0.00 0.00 0.00
0.36 0.30 0.22 0.13 0.08 0.07 0.07 0.09 0.08 0.08 0.11 0.14 0.13 0.19 0.22 0.49 0.44 0.68 0.95 0.54 0.52 0.67 0.68 0.58 0.76 0.18 0.20 0.21 0.19 0.12 0.07 0.08 0.06 0.01 0.00 0.00 0.00 0.00 0.00 0.01 0.00 0.00 0.00 0.00 0.00 0.00 0.00 0.00 0.00 0.00 0.00 0.00 0.00 0.00
0.45 0.38 0.27 0.13 0.10 0.10 0.08 0.07 0.07 0.07 0.10 0.09 0.09 0.16 0.40 0.49 0.49 0.72 0.54 0.61 0.54 0.62 0.30 0.32 0.43 0.37 0.25 0.18 0.39 0.25 0.25 0.12 0.08 0.02 0.00 0.00 0.00 0.00 0.01 0.00 0.00 0.00 0.00 0.00 0.00 0.00 0.00 0.00 0.00 0.00 0.00 0.00 0.00 0.00
0.32 0.21 0.17 0.15 0.14 0.13 0.12 0.12 0.09 0.07 0.06 0.06 0.13 0.41 0.66 0.73 0.83 0.64 0.59 0.64 0.77 0.63 0.36 0.12 0.22 0.20 0.37 0.21 0.27 0.41 0.31 0.33 0.08 0.05 0.01 0.01 0.00 0.00 0.00 0.00 0.00 0.00 0.00 0.00 0.00 0.00 0.00 0.00 0.00 0.00 0.00 0.00 0.00 0.00
0.17 0.15 0.12 0.09 0.10 0.12 0.13 0.13 0.08 0.08 0.07 0.22 0.55 0.94 1.00 0.80 0.62 0.55 0.65 0.62 0.66 0.38 0.17 0.10 0.07 0.16 0.18 0.20 0.19 0.31 0.31 0.31 0.29 0.11 0.03 0.02 0.00 0.00 0.00 0.00 0.00 0.00 0.00 0.00 0.00 0.00 0.00 0.00 0.00 0.00 0.00 0.00 0.00 0.00
0.14 0.11 0.08 0.07 0.07 0.08 0.10 0.11 0.09 0.16 0.37 0.56 0.78 0.94 0.83 0.68 0.63 0.61 0.58 0.46 0.39 0.15 0.06 0.05 0.03 0.09 0.11 0.17 0.15 0.12 0.24 0.13 0.06 0.09 0.04 0.02 0.00 0.00 0.00 0.00 0.00 0.00 0.00 0.00 0.00 0.00 0.00 0.00 0.00 0.00 0.00 0.00 0.00 0.00
0.16 0.10 0.07 0.07 0.06 0.06 0.05 0.07 0.14 0.30 0.45 0.39 0.47 0.55 0.60 0.63 0.46 0.32 0.24 0.16 0.13 0.06 0.00 0.00 0.00 0.01 0.07 0.08 0.11 0.08 0.04 0.02 0.01 0.00 0.01 0.00 0.00 0.00 0.01 0.01 0.01 0.00 0.01 0.01 0.00 0.00 0.00 0.00 0.00 0.00 0.00 0.00 0.00 0.00
0.09 0.09 0.10 0.09 0.08 0.08 0.12 0.17 0.33 0.33 0.24 0.26 0.33 0.45 0.43 0.28 0.16 0.08 0.04 0.01 0.00 0.01 0.00 0.00 0.00 0.00 0.01 0.01 0.02 0.03 0.02 0.00 0.00 0.00 0.00 0.00 0.00 0.00 0.01 0.00 0.00 0.00 0.00 0.00 0.00 0.00 0.00 0.00 0.00 0.00 0.00 0.00 0.00 0.00
0.12 0.09 0.09 0.11 0.18 0.20 0.18 0.25 0.34 0.21 0.18 0.36 0.29 0.15 0.11 0.04 0.02 0.02 0.01 0.01 0.01 0.02 0.02 0.01 0.00 0.01 0.01 0.01 0.01 0.01 0.00 0.00 0.00 0.00 0.00 0.00 0.00 0.00 0.00 0.00 0.00 0.00 0.00 0.00 0.00 0.00 0.00 0.00 0.00 0.00 0.00 0.00 0.00 0.00
0.05 0.07 0.12 0.21 0.16 0.11 0.16 0.18 0.09 0.08 0.15 0.16 0.06 0.04 0.02 0.02 0.03 0.03 0.02 0.01 0.01 0.01 0.00 0.00 0.01 0.02 0.05 0.03 0.02 0.00 0.00 0.00 0.00 0.00 0.00 0.00 0.00 0.00 0.00 0.00 0.00 0.00 0.00 0.00 0.00 0.00 0.01 0.01 0.00 0.00 0.00 0.00 0.00 0.00
0.07 0.05 0.04 0.08 0.06 0.04 0.04 0.00 0.01 0.03 0.12 0.16 0.11 0.07 0.04 0.03 0.05 0.04 0.04 0.02 0.01 0.00 0.00 0.00 0.00 0.00 0.02 0.00 0.01 0.00 0.00 0.01 0.01 0.00 0.00 0.00 0.01 0.01 0.00 0.00 0.00 0.00 0.01 0.01 0.02 0.02 0.02 0.01 0.00 0.00 0.00 0.00 0.00 0.00
0.03 0.01 0.01 0.01 0.01 0.01 0.00 0.00 0.02 0.07 0.13 0.13 0.25 0.23 0.16 0.12 0.10 0.09 0.07 0.05 0.02 0.00 0.01 0.00 0.02 0.02 0.02 0.02 0.02 0.03 0.04 0.03 0.02 0.01 0.01 0.02 0.04 0.03 0.02 0.04 0.03 0.04 0.05 0.02 0.01 0.01 0.00 0.00 0.00 0.00 0.00 0.00 0.00 0.00
0.01 0.01 0.01 0.00 0.00 0.00 0.00 0.01 0.03 0.02 0.08 0.19 0.22 0.35 0.28 0.31 0.28 0.24 0.22 0.15 0.11 0.10 0.09 0.11 0.09 0.12 0.15 0.13 0.12 0.15 0.15 0.13 0.12 0.12 0.11 0.10 0.07 0.06 0.06 0.05 0.05 0.05 0.04 0.02 0.01 0.00 0.00 0.00 0.00 0.00 0.00 0.00 0.00 0.00
0.00 0.00 0.00 0.00 0.00 0.00 0.00 0.00 0.01 0.05 0.18 0.23 0.26 0.23 0.17 0.21 0.22 0.23 0.19 0.17 0.17 0.15 0.16 0.21 0.21 0.24 0.27 0.27 0.32 0.29 0.26 0.23 0.21 0.16 0.14 0.14 0.12 0.11 0.11 0.09 0.10 0.09 0.05 0.02 0.01 0.00 0.00 0.00 0.00 0.00 0.00 0.00 0.00 0.00
0.00 0.00 0.00 0.00 0.00 0.00 0.00 0.00 0.00 0.03 0.11 0.16 0.17 0.11 0.08 0.13 0.08 0.02 0.03 0.03 0.03 0.03 0.09 0.17 0.30 0.34 0.36 0.41 0.40 0.32 0.27 0.21 0.09 0.08 0.17 0.22 0.20 0.14 0.14 0.12 0.10 0.07 0.04 0.03 0.02 0.01 0.00 0.00 0.00 0.00 0.00 0.00 0.00 0.00
0.00 0.00 0.00 0.00 0.00 0.00 0.00 0.00 0.01 0.02 0.04 0.06 0.07 0.02 0.04 0.01 0.00 0.00 0.00 0.00 0.00 0.06 0.19 0.30 0.30 0.28 0.29 0.33 0.28 0.21 0.17 0.14 0.08 0.08 0.09 0.13 0.16 0.11 0.12 0.12 0.08 0.06 0.04 0.04 0.03 0.03 0.03 0.04 0.03 0.01 0.00 0.00 0.00 0.00
0.00 0.00 0.00 0.00 0.00 0.00 0.00 0.00 0.01 0.00 0.00 0.01 0.00 0.00 0.01 0.02 0.01 0.01 0.01 0.01 0.07 0.18 0.21 0.19 0.19 0.15 0.12 0.15 0.20 0.22 0.26 0.20 0.14 0.12 0.11 0.09 0.10 0.11 0.13 0.14 0.10 0.11 0.12 0.12 0.10 0.09 0.07 0.04 0.03 0.02 0.01 0.00 0.00 0.00
0.00 0.00 0.00 0.00 0.00 0.00 0.00 0.00 0.00 0.00 0.00 0.00 0.01 0.01 0.01 0.02 0.03 0.01 0.02 0.04 0.10 0.18 0.17 0.11 0.07 0.06 0.07 0.10 0.07 0.08 0.12 0.14 0.21 0.25 0.23 0.19 0.18 0.19 0.17 0.17 0.16 0.13 0.11 0.11 0.08 0.07 0.05 0.04 0.02 0.01 0.00 0.00 0.00 0.00
0.00 0.00 0.00 0.00 0.00 0.00 0.00 0.00 0.00 0.00 0.00 0.00 0.00 0.01 0.02 0.03 0.01 0.01 0.02 0.06 0.10 0.05 0.03 0.04 0.06 0.03 0.01 0.01 0.02 0.06 0.11 0.09 0.11 0.14 0.18 0.13 0.12 0.15 0.12 0.12 0.10 0.09 0.09 0.07 0.05 0.03 0.02 0.01 0.00 0.00 0.00 0.00 0.00 0.00
0.00 0.00 0.00 0.00 0.00 0.00 0.00 0.00 0.00 0.00 0.01 0.01 0.01 0.02 0.02 0.01 0.01 0.02 0.03 0.08 0.04 0.03 0.03 0.04 0.01 0.01 0.03 0.03 0.04 0.05 0.06 0.05 0.05 0.05 0.10 0.09 0.08 0.08 0.06 0.05 0.04 0.03 0.01 0.00 0.00 0.00 0.00 0.00 0.00 0.00 0.00 0.00 0.00 0.00
0.00 0.01 0.01 0.00 0.00 0.00 0.00 0.00 0.00 0.01 0.01 0.01 0.01 0.02 0.02 0.02 0.01 0.03 0.05 0.07 0.04 0.03 0.04 0.04 0.04 0.01 0.02 0.02 0.02 0.03 0.03 0.05 0.03 0.03 0.07 0.04 0.05 0.04 0.04 0.03 0.01 0.00 0.00 0.00 0.00 0.00 0.00 0.00 0.00 0.00 0.00 0.00 0.00 0.01
0.00 0.01 0.01 0.01 0.01 0.00 0.00 0.00 0.00 0.01 0.01 0.02 0.02 0.02 0.05 0.03 0.03 0.07 0.05 0.05 0.03 0.03 0.03 0.02 0.01 0.01 0.02 0.03 0.03 0.02 0.01 0.00 0.00 0.01 0.01 0.00 0.00 0.00 0.00 0.00 0.00 0.00 0.00 0.00 0.00 0.00 0.00 0.00 0.00 0.00 0.00 0.00 0.01 0.01
0.01 0.00 0.01 0.01 0.00 0.00 0.01 0.01 0.01 0.02 0.02 0.01 0.04 0.02 0.01 0.02 0.06 0.08 0.08 0.09 0.08 0.03 0.01 0.00 0.00 0.01 0.01 0.01 0.02 0.02 0.01 0.01 0.00 0.00 0.00 0.01 0.00 0.00 0.00 0.01 0.00 0.00 0.00 0.01 0.00 0.01 0.00 0.01 0.01 0.01 0.01 0.00 0.00 0.00
0.00 0.00 0.00 0.00 0.00 0.00 0.01 0.03 0.02 0.02 0.02 0.02 0.03 0.03 0.03 0.04 0.09 0.09 0.08 0.06 0.04 0.04 0.02 0.03 0.05 0.03 0.02 0.00 0.00 0.00 0.00 0.00 0.00 0.00 0.00 0.01 0.02 0.01 0.00 0.00 0.00 0.00 0.00 0.00 0.00 0.00 0.00 0.01 0.01 0.01 0.00 0.00 0.01 0.02
0.00 0.00 0.00 0.00 0.01 0.02 0.03 0.02 0.02 0.02 0.01 0.01 0.01 0.01 0.02 0.05 0.08 0.05 0.03 0.02 0.03 0.02 0.02 0.02 0.02 0.01 0.02 0.01 0.01 0.01 0.00 0.00 0.00 0.00 0.00 0.00 0.00 0.00 0.00 0.01 0.01 0.00 0.01 0.00 0.00 0.01 0.00 0.00 0.00 0.00 0.01 0.01 0.01 0.01
0.00 0.00 0.00 0.00 0.02 0.04 0.03 0.02 0.02 0.01 0.00 0.01 0.01 0.01 0.01 0.03 0.04 0.02 0.02 0.05 0.02 0.03 0.02 0.01 0.00 0.00 0.00 0.00 0.00 0.00 0.01 0.01 0.00 0.00 0.00 0.00 0.00 0.01 0.01 0.01 0.01 0.00 0.01 0.01 0.01 0.01 0.01 0.01 0.00 0.01 0.00 0.00 0.01 0.01
0.00 0.00 0.00 0.01 0.02 0.02 0.03 0.05 0.06 0.07 0.04 0.02 0.02 0.02 0.03 0.03 0.02 0.02 0.01 0.02 0.01 0.01 0.01 0.01 0.01 0.01 0.01 0.00 0.00 0.01 0.01 0.01 0.00 0.00 0.00 0.00 0.01 0.01 0.00 0.00 0.00 0.01 0.01 0.01 0.00 0.01 0.01 0.01 0.00 0.01 0.01 0.01 0.01 0.00
0.00 0.00 0.00 0.00 0.01 0.03 0.01 0.02 0.03 0.02 0.02 0.01 0.02 0.02 0.02 0.02 0.02 0.03 0.03 0.01 0.01 0.01 0.01 0.01 0.02 0.02 0.01 0.00 0.00 0.00 0.00 0.00 0.00 0.00 0.01 0.00 0.00 0.00 0.00 0.00 0.00 0.00 0.01 0.01 0.00 0.01 0.01 0.01 0.01 0.01 0.01 0.01 0.01 0.01

GFSWCAN_prec_precacc12_048.txt.gz
Total_Precipitation_Accumulation
0.33 0.33 0.27 0.25 0.25 0.22 0.22 0.19 0.16 0.12 0.17 0.08 0.04 0.04 0.04 0.05 0.06 0.21 0.29 0.34 0.46 0.32 0.16 0.10 0.04 0.01 0.00 0.01 0.08 0.05 0.11 0.06 0.09 0.06 0.03 0.02 0.00 0.00 0.00 0.00 0.00 0.00 0.00 0.00 0.00 0.00 0.00 0.00 0.00 0.00 0.00 0.00 0.00 0.00
0.18 0.19 0.21 0.23 0.21 0.20 0.18 0.18 0.14 0.09 0.11 0.06 0.04 0.05 0.05 0.06 0.09 0.18 0.26 0.36 0.36 0.43 0.33 0.10 0.05 0.01 0.00 0.00 0.04 0.10 0.06 0.02 0.03 0.03 0.01 0.02 0.00 0.00 0.00 0.00 0.00 0.00 0.00 0.00 0.00 0.00 0.00 0.00 0.00 0.00 0.00 0.00 0.00 0.00
0.05 0.08 0.11 0.12 0.13 0.14 0.14 0.12 0.08 0.05 0.07 0.03 0.04 0.06 0.06 0.07 0.10 0.13 0.23 0.37 0.97 0.58 0.38 0.13 0.07 0.05 0.01 0.01 0.03 0.06 0.05 0.02 0.03 0.03 0.03 0.02 0.01 0.00 0.00 0.00 0.00 0.00 0.00 0.00 0.00 0.00 0.00 0.00 0.00 0.00 0.00 0.00 0.00 0.00
0.01 0.02 0.03 0.04 0.06 0.05 0.07 0.07 0.04 0.04 0.06 0.03 0.04 0.06 0.09 0.09 0.15 0.10 0.21 0.70 1.56 0.81 0.76 0.28 0.14 0.14 0.07 0.03 0.03 0.02 0.04 0.04 0.05 0.06 0.06 0.03 0.01 0.01 0.00 0.00 0.00 0.00 0.00 0.00 0.00 0.00 0.00 0.00 0.00 0.00 0.00 0.00 0.00 0.00
0.02 0.03 0.03 0.03 0.02 0.03 0.04 0.05 0.05 0.07 0.08 0.03 0.04 0.06 0.11 0.13 0.35 0.21 0.37 0.85 1.08 0.84 0.87 0.61 0.11 0.16 0.17 0.11 0.05 0.04 0.04 0.03 0.05 0.09 0.06 0.02 0.01 0.01 0.00 0.00 0.00 0.00 0.00 0.00 0.00 0.00 0.00 0.00 0.00 0.00 0.00 0.00 0.00 0.00
0.06 0.06 0.05 0.05 0.05 0.04 0.06 0.05 0.08 0.11 0.10 0.07 0.08 0.11 0.12 0.27 0.56 0.48 0.90 0.61 0.59 0.69 0.77 0.77 0.36 0.16 0.19 0.23 0.13 0.09 0.05 0.04 0.04 0.04 0.03 0.01 0.01 0.01 0.00 0.00 0.00 0.00 0.00 0.00 0.00 0.00 0.00 0.00 0.00 0.00 0.00 0.00 0.00 0.00
0.11 0.11 0.10 0.06 0.05 0.05 0.06 0.08 0.12 0.11 0.11 0.14 0.13 0.19 0.21 0.49 0.42 0.62 0.93 0.54 0.51 0.79 0.86 0.62 0.76 0.18 0.25 0.31 0.27 0.15 0.08 0.08 0.07 0.02 0.01 0.00 0.01 0.03 0.01 0.00 0.00 0.00 0.00 0.00 0.00 0.00 0.00 0.00 0.00 0.00 0.00 0.00 0.00 0.00
0.24 0.19 0.13 0.06 0.04 0.06 0.07 0.07 0.08 0.08 0.11 0.17 0.22 0.19 0.42 0.49 0.48 0.67 0.53 0.63 0.53 0.69 0.48 0.38 0.43 0.37 0.29 0.35 0.48 0.29 0.28 0.13 0.10 0.03 0.01 0.00 0.00 0.00 0.00 0.00 0.00 0.00 0.00 0.00 0.00 0.00 0.00 0.00 0.00 0.00 0.00 0.00 0.00 0.00
0.19 0.16 0.14 0.10 0.07 0.06 0.05 0.05 0.05 0.06 0.10 0.15 0.19 0.47 0.72 0.76 0.79 0.64 0.70 0.70 0.78 0.62 0.39 0.15 0.21 0.20 0.43 0.33 0.42 0.47 0.37 0.38 0.11 0.07 0.02 0.02 0.01 0.00 0.00 0.00 0.00 0.00 0.00 0.00 0.00 0.00 0.00 0.00 0.00 0.00 0.00 0.00 0.00 0.00
0.16 0.14 0.12 0.08 0.08 0.08 0.06 0.04 0.03 0.03 0.07 0.24 0.59 0.94 0.96 0.78 0.63 0.76 0.98 0.73 0.67 0.40 0.20 0.11 0.06 0.16 0.27 0.53 0.30 0.36 0.34 0.38 0.43 0.17 0.10 0.05 0.00 0.00 0.00 0.00 0.00 0.00 0.00 0.00 0.00 0.00 0.00 0.00 0.00 0.00 0.00 0.00 0.00 0.00
0.11 0.08 0.06 0.06 0.07 0.07 0.09 0.08 0.06 0.14 0.36 0.54 0.80 1.03 0.85 0.74 0.68 0.82 0.80 0.55 0.41 0.18 0.07 0.07 0.06 0.11 0.18 0.36 0.47 0.28 0.43 0.27 0.22 0.34 0.27 0.23 0.08 0.00 0.00 0.00 0.00 0.00 0.00 0.00 0.00 0.00 0.00 0.00 0.00 0.00 0.00 0.00 0.00 0.00
0.15 0.09 0.06 0.06 0.05 0.05 0.05 0.06 0.13 0.30 0.47 0.55 0.73 0.67 0.72 0.67 0.45 0.38 0.34 0.29 0.19 0.09 0.02 0.07 0.06 0.06 0.24 0.35 0.48 0.49 0.31 0.29 0.16 0.08 0.17 0.16 0.07 0.05 0.04 0.04 0.02 0.01 0.01 0.01 0.01 0.00 0.00 0.00 0.00 0.00 0.00 0.00 0.00 0.00
0.09 0.08 0.09 0.09 0.07 0.08 0.12 0.17 0.35 0.48 0.65 0.64 0.39 0.48 0.47 0.34 0.22 0.17 0.14 0.09 0.06 0.04 0.03 0.08 0.06 0.08 0.09 0.26 0.34 0.25 0.18 0.11 0.09 0.07 0.03 0.01 0.02 0.06 0.05 0.02 0.01 0.00 0.00 0.00 0.00 0.00 0.00 0.00 0.00 0.00 0.00 0.00 0.00 0.00
0.12 0.10 0.10 0.13 0.19 0.21 0.21 0.33 0.53 0.65 0.63 0.53 0.41 0.26 0.21 0.14 0.10 0.09 0.06 0.03 0.03 0.04 0.04 0.04 0.02 0.01 0.01 0.03 0.06 0.06 0.06 0.03 0.03 0.02 0.01 0.00 0.00 0.00 0.00 0.00 0.00 0.00 0.00 0.01 0.00 0.00 0.00 0.00 0.00 0.00 0.00 0.00 0.00 0.00
0.06 0.08 0.15 0.25 0.19 0.18 0.34 0.45 0.42 0.51 0.50 0.36 0.21 0.13 0.09 0.10 0.09 0.07 0.04 0.02 0.03 0.01 0.01 0.01 0.02 0.02 0.05 0.03 0.02 0.00 0.00 0.01 0.01 0.00 0.00 0.00 0.01 0.01 0.01 0.00 0.00 0.00 0.00 0.00 0.00 0.00 0.01 0.01 0.01 0.01 0.00 0.00 0.00 0.00
0.11 0.09 0.12 0.21 0.26 0.32 0.30 0.22 0.31 0.30 0.07 0.06 0.10 0.10 0.07 0.05 0.07 0.05 0.05 0.04 0.04 0.01 0.00 0.00 0.00 0.00 0.05 0.02 0.01 0.01 0.00 0.02 0.03 0.03 0.02 0.01 0.01 0.01 0.01 0.01 0.01 0.01 0.01 0.02 0.03 0.04 0.04 0.03 0.01 0.00 0.00 0.00 0.00 0.00
0.09 0.05 0.17 0.16 0.18 0.12 0.08 0.07 0.06 0.07 0.12 0.12 0.24 0.25 0.18 0.14 0.12 0.12 0.10 0.08 0.04 0.01 0.01 0.00 0.02 0.04 0.04 0.04 0.05 0.06 0.07 0.07 0.05 0.04 0.02 0.02 0.04 0.03 0.03 0.06 0.07 0.10 0.10 0.07 0.06 0.06 0.04 0.01 0.00 0.00 0.00 0.00 0.00 0.00
0.16 0.09 0.09 0.06 0.07 0.08 0.08 0.10 0.02 0.01 0.09 0.20 0.24 0.37 0.28 0.31 0.28 0.25 0.25 0.18 0.13 0.11 0.08 0.11 0.09 0.10 0.12 0.11 0.13 0.17 0.20 0.20 0.20 0.20 0.18 0.17 0.14 0.14 0.14 0.13 0.14 0.12 0.10 0.08 0.05 0.04 0.04 0.03 0.01 0.00 0.00 0.00 0.00 0.00
0.08 0.06 0.06 0.04 0.05 0.03 0.00 0.00 0.00 0.04 0.19 0.24 0.28 0.25 0.17 0.21 0.23 0.24 0.21 0.20 0.20 0.14 0.14 0.18 0.16 0.20 0.24 0.26 0.32 0.32 0.32 0.33 0.33 0.26 0.22 0.23 0.21 0.20 0.19 0.18 0.17 0.16 0.10 0.07 0.05 0.04 0.03 0.02 0.00 0.00 0.00 0.00 0.00 0.00
0.00 0.00 0.00 0.00 0.00 0.00 0.00 0.00 0.00 0.03 0.13 0.20 0.20 0.11 0.08 0.13 0.07 0.02 0.02 0.03 0.03 0.04 0.11 0.17 0.29 0.34 0.37 0.44 0.46 0.40 0.38 0.33 0.17 0.13 0.23 0.30 0.30 0.22 0.23 0.20 0.16 0.13 0.09 0.08 0.07 0.05 0.03 0.01 0.01 0.01 0.00 0.01 0.01 0.01
0.00 0.00 0.00 0.00 0.00 0.00 0.00 0.00 0.01 0.03 0.06 0.10 0.10 0.02 0.03 0.01 0.00 0.00 0.00 0.00 0.00 0.07 0.22 0.34 0.35 0.35 0.36 0.41 0.36 0.30 0.26 0.20 0.14 0.12 0.14 0.18 0.23 0.17 0.18 0.18 0.14 0.12 0.09 0.09 0.07 0.08 0.07 0.08 0.07 0.04 0.03 0.02 0.01 0.01
0.00 0.00 0.00 0.00 0.00 0.00 0.00 0.00 0.01 0.01 0.00 0.02 0.01 0.00 0.01 0.01 0.01 0.01 0.00 0.00 0.08 0.20 0.25 0.23 0.22 0.20 0.17 0.20 0.25 0.25 0.29 0.23 0.18 0.16 0.15 0.12 0.13 0.15 0.18 0.21 0.16 0.16 0.16 0.17 0.14 0.13 0.11 0.07 0.05 0.04 0.03 0.03 0.02 0.02
0.00 0.00 0.00 0.00 0.00 0.00 0.00 0.00 0.00 0.00 0.00 0.00 0.00 0.00 0.01 0.01 0.03 0.01 0.01 0.03 0.10 0.19 0.20 0.14 0.10 0.08 0.09 0.13 0.09 0.10 0.14 0.15 0.20 0.25 0.24 0.20 0.20 0.21 0.19 0.20 0.19 0.15 0.14 0.15 0.11 0.09 0.08 0.06 0.05 0.03 0.02 0.02 0.01 0.01
0.00 0.00 0.00 0.00 0.00 0.00 0.00 0.00 0.00 0.00 0.00 0.00 0.00 0.01 0.03 0.03 0.01 0.00 0.01 0.05 0.11 0.07 0.03 0.04 0.05 0.02 0.00 0.00 0.01 0.04 0.08 0.06 0.08 0.11 0.16 0.11 0.10 0.14 0.12 0.13 0.11 0.11 0.11 0.09 0.06 0.05 0.03 0.02 0.01 0.00 0.00 0.00 0.00 0.00
0.00 0.00 0.00 0.00 0.00 0.00 0.00 0.00 0.00 0.00 0.00 0.00 0.01 0.02 0.02 0.01 0.00 0.01 0.03 0.07 0.04 0.03 0.03 0.03 0.00 0.00 0.01 0.02 0.02 0.03 0.03 0.02 0.02 0.03 0.07 0.06 0.06 0.06 0.06 0.05 0.05 0.03 0.01 0.00 0.00 0.00 0.00 0.00 0.00 0.00 0.00 0.00 0.00 0.00
0.00 0.01 0.00 0.00 0.00 0.00 0.00 0.00 0.00 0.01 0.01 0.01 0.01 0.03 0.01 0.01 0.00 0.03 0.05 0.06 0.03 0.04 0.04 0.04 0.03 0.01 0.01 0.01 0.01 0.01 0.02 0.02 0.01 0.01 0.04 0.03 0.03 0.03 0.03 0.03 0.01 0.00 0.00 0.00 0.00 0.00 0.00 0.00 0.00 0.00 0.00 0.00 0.01 0.01
0.01 0.00 0.00 0.01 0.01 0.00 0.00 0.00 0.00 0.00 0.01 0.01 0.02 0.01 0.04 0.02 0.02 0.06 0.06 0.05 0.03 0.04 0.02 0.02 0.01 0.01 0.02 0.02 0.02 0.02 0.00 0.00 0.00 0.01 0.01 0.00 0.00 0.00 0.00 0.00 0.00 0.01 0.00 0.00 0.00 0.00 0.00 0.00 0.00 0.00 0.00 0.00 0.00 0.01
0.01 0.00 0.01 0.00 0.00 0.00 0.00 0.01 0.01 0.02 0.02 0.02 0.03 0.01 0.01 0.02 0.05 0.08 0.09 0.10 0.08 0.03 0.01 0.00 0.00 0.00 0.00 0.01 0.01 0.01 0.01 0.01 0.00 0.00 0.00 0.00 0.00 0.00 0.00 0.01 0.01 0.00 0.00 0.01 0.00 0.00 0.01 0.01 0.01 0.01 0.00 0.00 0.00 0.00
0.00 0.00 0.00 0.00 0.00 0.00 0.02 0.02 0.02 0.02 0.02 0.02 0.02 0.02 0.03 0.04 0.08 0.09 0.09 0.06 0.04 0.03 0.02 0.02 0.04 0.03 0.01 0.00 0.00 0.00 0.00 0.00 0.00 0.00 0.00 0.01 0.01 0.01 0.00 0.00 0.00 0.00 0.00 0.00 0.00 0.00 0.01 0.01 0.02 0.01 0.00 0.01 0.01 0.01
0.00 0.00 0.00 0.00 0.01 0.02 0.03 0.02 0.01 0.01 0.00 0.00 0.01 0.01 0.02 0.05 0.08 0.06 0.03 0.02 0.02 0.01 0.01 0.01 0.01 0.00 0.01 0.01 0.00 0.00 0.00 0.00 0.00 0.00 0.00 0.00 0.00 0.01 0.01 0.01 0.00 0.00 0.01 0.00 0.00 0.00 0.00 0.00 0.00 0.00 0.00 0.00 0.01 0.01
0.00 0.00 0.00 0.00 0.02 0.03 0.02 0.02 0.01 0.00 0.00 0.00 0.00 0.00 0.01 0.03 0.04 0.02 0.02 0.04 0.01 0.02 0.01 0.01 0.00 0.00 0.00 0.00 0.00 0.00 0.01 0.01 0.00 0.00 0.00 0.00 0.00 0.00 0.01 0.00 0.00 0.00 0.00 0.00 0.01 0.01 0.01 0.01 0.00 0.00 0.00 0.00 0.01 0.01
0.00 0.00 0.00 0.01 0.02 0.03 0.03 0.05 0.05 0.06 0.03 0.01 0.02 0.01 0.02 0.02 0.01 0.01 0.01 0.01 0.00 0.00 0.01 0.01 0.01 0.01 0.01 0.00 0.00 0.00 0.01 0.01 0.00 0.00 0.00 0.00 0.00 0.00 0.00 0.00 0.00 0.00 0.01 0.01 0.00 0.01 0.01 0.01 0.00 0.00 0.01 0.01 0.01 0.01
0.00 0.00 0.00 0.00 0.02 0.03 0.02 0.03 0.03 0.02 0.01 0.01 0.01 0.01 0.02 0.01 0.01 0.02 0.02 0.00 0.00 0.00 0.00 0.00 0.01 0.02 0.01 0.00 0.00 0.00 0.00 0.00 0.00 0.00 0.00 0.00 0.00 0.00 0.00 0.00 0.00 0.00 0.00 0.00 0.00 0.00 0.00 0.00 0.00 0.01 0.01 0.01 0.01 0.01

GFSWCAN_prec_precacc12_051.txt.gz
Total_Precipitation_Accumulation
0.34 0.34 0.29 0.27 0.25 0.21 0.23 0.23 0.26 0.28 0.24 0.12 0.05 0.05 0.06 0.05 0.09 0.18 0.21 0.26 0.32 0.22 0.21 0.16 0.06 0.01 0.00 0.00 0.00 0.00 0.04 0.05 0.08 0.06 0.03 0.02 0.00 0.00 0.01 0.00 0.00 0.00 0.00 0.00 0.00 0.00 0.00 0.00 0.00 0.00 0.00 0.00 0.00 0.00
0.22 0.23 0.23 0.25 0.22 0.21 0.25 0.27 0.27 0.24 0.22 0.11 0.06 0.08 0.09 0.08 0.12 0.15 0.22 0.32 0.33 0.26 0.29 0.16 0.10 0.03 0.00 0.00 0.01 0.01 0.02 0.02 0.03 0.03 0.01 0.02 0.00 0.00 0.00 0.00 0.00 0.00 0.00 0.00 0.00 0.00 0.00 0.00 0.00 0.00 0.00 0.00 0.00 0.00
0.13 0.17 0.19 0.20 0.22 0.24 0.27 0.26 0.23 0.19 0.18 0.10 0.08 0.11 0.12 0.10 0.13 0.10 0.18 0.28 0.52 0.30 0.23 0.11 0.13 0.10 0.03 0.01 0.02 0.02 0.00 0.02 0.03 0.03 0.03 0.02 0.01 0.00 0.00 0.00 0.00 0.00 0.00 0.00 0.00 0.00 0.00 0.00 0.00 0.00 0.00 0.00 0.00 0.00
0.03 0.05 0.10 0.14 0.17 0.19 0.21 0.20 0.16 0.17 0.15 0.10 0.10 0.11 0.12 0.11 0.15 0.07 0.14 0.31 0.49 0.36 0.43 0.16 0.15 0.17 0.12 0.07 0.03 0.02 0.03 0.04 0.05 0.06 0.06 0.03 0.01 0.01 0.00 0.00 0.00 0.00 0.01 0.00 0.00 0.00 0.00 0.00 0.00 0.00 0.00 0.00 0.00 0.00
0.02 0.02 0.05 0.07 0.09 0.11 0.12 0.11 0.10 0.12 0.11 0.06 0.07 0.08 0.14 0.15 0.20 0.11 0.12 0.39 0.47 0.55 0.56 0.34 0.11 0.18 0.18 0.13 0.08 0.04 0.03 0.03 0.05 0.10 0.06 0.02 0.01 0.01 0.01 0.00 0.00 0.00 0.00 0.00 0.00 0.00 0.00 0.00 0.00 0.00 0.00 0.00 0.00 0.00
0.02 0.02 0.02 0.03 0.04 0.04 0.05 0.04 0.05 0.08 0.08 0.06 0.08 0.14 0.17 0.21 0.27 0.23 0.30 0.31 0.56 0.60 0.57 0.67 0.35 0.17 0.22 0.28 0.18 0.10 0.05 0.04 0.04 0.04 0.03 0.02 0.01 0.01 0.00 0.00 0.00 0.00 0.01 0.01 0.00 0.01 0.00 0.00 0.00 0.00 0.00 0.00 0.00 0.00
0.01 0.01 0.00 0.00 0.01 0.02 0.01 0.02 0.06 0.07 0.08 0.11 0.13 0.20 0.19 0.22 0.20 0.22 0.36 0.26 0.39 0.81 0.88 0.61 0.77 0.19 0.25 0.35 0.32 0.17 0.10 0.10 0.07 0.03 0.01 0.01 0.01 0.04 0.03 0.00 0.00 0.00 0.00 0.00 0.00 0.00 0.00 0.00 0.00 0.00 0.00 0.00 0.00 0.00
0.03 0.02 0.01 0.00 0.01 0.02 0.02 0.02 0.04 0.05 0.08 0.14 0.18 0.13 0.19 0.23 0.28 0.50 0.47 0.60 0.49 0.69 0.49 0.40 0.46 0.44 0.33 0.37 0.52 0.32 0.30 0.15 0.13 0.04 0.01 0.00 0.01 0.01 0.02 0.01 0.00 0.00 0.00 0.00 0.00 0.00 0.00 0.00 0.00 0.00 0.00 0.00 0.00 0.00
0.04 0.03 0.04 0.04 0.05 0.05 0.03 0.03 0.03 0.04 0.08 0.13 0.15 0.29 0.42 0.47 0.58 0.61 0.71 0.70 0.77 0.64 0.44 0.19 0.24 0.27 0.47 0.36 0.56 0.60 0.43 0.42 0.13 0.07 0.02 0.03 0.01 0.00 0.00 0.00 0.00 0.00 0.00 0.00 0.00 0.00 0.00 0.00 0.00 0.00 0.00 0.00 0.00 0.00
0.10 0.09 0.08 0.06 0.04 0.04 0.03 0.03 0.02 0.03 0.06 0.22 0.51 0.66 0.70 0.59 0.63 0.79 1.00 0.74 0.67 0.40 0.25 0.17 0.07 0.17 0.29 0.55 0.35 0.64 0.61 0.46 0.44 0.18 0.11 0.05 0.00 0.00 0.00 0.00 0.00 0.00 0.00 0.00 0.00 0.00 0.00 0.00 0.00 0.00 0.00 0.00 0.00 0.00
0.07 0.05 0.04 0.04 0.03 0.03 0.03 0.04 0.05 0.13 0.33 0.53 0.73 0.95 0.75 0.73 0.74 0.91 0.86 0.62 0.42 0.17 0.07 0.07 0.05 0.10 0.17 0.33 0.44 0.29 0.52 0.40 0.25 0.34 0.28 0.23 0.09 0.00 0.00 0.00 0.00 0.00 0.00 0.00 0.00 0.00 0.00 0.00 0.00 0.00 0.00 0.00 0.00 0.00
0.08 0.05 0.04 0.03 0.02 0.03 0.05 0.07 0.17 0.30 0.45 0.55 0.75 0.68 0.71 0.70 0.58 0.54 0.51 0.41 0.21 0.09 0.02 0.08 0.06 0.06 0.23 0.34 0.48 0.55 0.46 0.44 0.27 0.10 0.17 0.16 0.07 0.06 0.06 0.05 0.04 0.03 0.02 0.01 0.01 0.00 0.00 0.00 0.00 0.00 0.00 0.00 0.00 0.01
0.07 0.06 0.04 0.05 0.05 0.08 0.12 0.22 0.44 0.58 0.78 0.75 0.46 0.47 0.50 0.38 0.38 0.35 0.25 0.17 0.10 0.05 0.05 0.09 0.08 0.09 0.11 0.33 0.54 0.49 0.45 0.35 0.24 0.16 0.09 0.05 0.03 0.09 0.14 0.18 0.20 0.17 0.13 0.08 0.03 0.01 0.01 0.01 0.00 0.00 0.01 0.03 0.04 0.06
0.12 0.09 0.10 0.11 0.15 0.17 0.23 0.39 0.64 0.87 0.84 0.73 0.52 0.39 0.34 0.22 0.23 0.20 0.13 0.13 0.12 0.11 0.07 0.14 0.11 0.09 0.06 0.12 0.24 0.20 0.21 0.17 0.20 0.19 0.12 0.09 0.10 0.08 0.04 0.03 0.04 0.06 0.06 0.04 0.03 0.02 0.01 0.01 0.03 0.06 0.07 0.08 0.08 0.07
0.07 0.09 0.17 0.27 0.21 0.20 0.39 0.51 0.54 0.67 0.66 0.52 0.34 0.22 0.20 0.25 0.27 0.27 0.25 0.16 0.15 0.12 0.06 0.14 0.12 0.08 0.06 0.07 0.05 0.03 0.05 0.08 0.09 0.10 0.08 0.06 0.05 0.05 0.04 0.02 0.02 0.03 0.05 0.06 0.06 0.06 0.06 0.07 0.06 0.08 0.07 0.07 0.04 0.01
0.13 0.15 0.22 0.30 0.32 0.38 0.40 0.38 0.51 0.51 0.20 0.14 0.17 0.22 0.21 0.20 0.16 0.14 0.11 0.09 0.08 0.05 0.02 0.01 0.03 0.03 0.08 0.05 0.03 0.04 0.03 0.05 0.07 0.09 0.08 0.05 0.04 0.05 0.06 0.06 0.08 0.09 0.09 0.07 0.08 0.07 0.08 0.08 0.05 0.05 0.05 0.02 0.01 0.00
0.12 0.10 0.27 0.27 0.32 0.28 0.28 0.26 0.16 0.05 0.05 0.06 0.18 0.22 0.16 0.12 0.13 0.12 0.12 0.12 0.07 0.02 0.02 0.01 0.03 0.05 0.07 0.05 0.07 0.09 0.12 0.13 0.11 0.10 0.10 0.09 0.09 0.09 0.11 0.14 0.16 0.17 0.16 0.12 0.10 0.10 0.09 0.07 0.04 0.02 0.01 0.01 0.01 0.00
0.27 0.16 0.20 0.17 0.17 0.19 0.20 0.19 0.03 0.01 0.07 0.19 0.20 0.30 0.19 0.23 0.22 0.21 0.25 0.20 0.15 0.11 0.07 0.10 0.09 0.09 0.12 0.11 0.14 0.20 0.24 0.26 0.31 0.31 0.28 0.25 0.22 0.24 0.23 0.23 0.23 0.21 0.17 0.14 0.10 0.11 0.10 0.09 0.06 0.04 0.02 0.01 0.00 0.00
0.37 0.26 0.23 0.24 0.21 0.13 0.04 0.01 0.00 0.05 0.20 0.23 0.25 0.20 0.13 0.16 0.18 0.20 0.19 0.17 0.16 0.11 0.09 0.12 0.11 0.15 0.19 0.22 0.27 0.30 0.34 0.39 0.43 0.36 0.31 0.29 0.27 0.27 0.28 0.28 0.26 0.23 0.16 0.13 0.10 0.09 0.09 0.07 0.05 0.04 0.02 0.01 0.01 0.00
0.09 0.11 0.14 0.08 0.01 0.00 0.00 0.00 0.00 0.03 0.13 0.20 0.16 0.08 0.06 0.10 0.05 0.01 0.02 0.02 0.03 0.03 0.08 0.13 0.25 0.30 0.33 0.37 0.41 0.41 0.44 0.42 0.26 0.19 0.26 0.33 0.37 0.30 0.32 0.27 0.23 0.19 0.14 0.13 0.12 0.10 0.08 0.06 0.06 0.05 0.04 0.03 0.03 0.03
0.00 0.00 0.00 0.00 0.00 0.00 0.00 0.00 0.02 0.04 0.07 0.11 0.11 0.02 0.03 0.01 0.00 0.00 0.00 0.00 0.00 0.07 0.21 0.32 0.32 0.33 0.35 0.39 0.36 0.33 0.31 0.27 0.20 0.17 0.21 0.24 0.31 0.24 0.25 0.25 0.20 0.17 0.13 0.13 0.11 0.12 0.11 0.12 0.11 0.08 0.06 0.05 0.04 0.03
0.00 0.00 0.00 0.00 0.00 0.00 0.00 0.00 0.01 0.01 0.00 0.02 0.01 0.00 0.00 0.01 0.00 0.00 0.00 0.00 0.07 0.18 0.27 0.25 0.24 0.23 0.21 0.22 0.28 0.27 0.31 0.25 0.20 0.18 0.19 0.16 0.16 0.18 0.20 0.24 0.18 0.18 0.18 0.18 0.16 0.15 0.13 0.10 0.07 0.06 0.04 0.04 0.04 0.03
0.00 0.00 0.00 0.00 0.00 0.00 0.00 0.00 0.00 0.00 0.00 0.00 0.00 0.00 0.00 0.01 0.02 0.00 0.00 0.03 0.09 0.17 0.18 0.14 0.12 0.11 0.12 0.17 0.13 0.11 0.15 0.15 0.17 0.20 0.21 0.19 0.19 0.20 0.18 0.19 0.18 0.15 0.14 0.16 0.13 0.10 0.09 0.07 0.05 0.04 0.03 0.02 0.01 0.01
0.00 0.00 0.00 0.00 0.00 0.00 0.00 0.00 0.00 0.00 0.00 0.00 0.00 0.01 0.03 0.02 0.00 0.00 0.01 0.03 0.10 0.08 0.04 0.04 0.02 0.01 0.01 0.00 0.01 0.03 0.05 0.04 0.06 0.08 0.12 0.09 0.07 0.10 0.08 0.09 0.09 0.09 0.10 0.09 0.06 0.05 0.03 0.02 0.01 0.00 0.00 0.00 0.00 0.00
0.00 0.00 0.00 0.00 0.00 0.00 0.00 0.00 0.00 0.00 0.00 0.00 0.00 0.03 0.02 0.00 0.00 0.00 0.02 0.05 0.04 0.03 0.03 0.02 0.00 0.00 0.01 0.01 0.02 0.02 0.01 0.00 0.00 0.01 0.04 0.03 0.03 0.04 0.04 0.04 0.04 0.03 0.01 0.00 0.00 0.00 0.00 0.00 0.00 0.00 0.00 0.00 0.00 0.00
0.00 0.01 0.00 0.01 0.00 0.00 0.00 0.00 0.00 0.01 0.01 0.01 0.02 0.03 0.01 0.00 0.00 0.02 0.04 0.04 0.03 0.03 0.03 0.03 0.01 0.00 0.00 0.01 0.01 0.01 0.01 0.01 0.00 0.00 0.02 0.01 0.01 0.01 0.01 0.01 0.00 0.00 0.00 0.00 0.00 0.00 0.00 0.00 0.00 0.00 0.00 0.00 0.01 0.01
0.00 0.00 0.00 0.01 0.01 0.00 0.00 0.00 0.00 0.00 0.01 0.01 0.01 0.00 0.02 0.00 0.02 0.05 0.06 0.05 0.03 0.03 0.02 0.01 0.00 0.00 0.01 0.02 0.02 0.01 0.00 0.00 0.00 0.00 0.01 0.00 0.00 0.00 0.00 0.00 0.01 0.01 0.01 0.00 0.00 0.00 0.00 0.00 0.00 0.00 0.00 0.00 0.00 0.01
0.01 0.00 0.00 0.00 0.00 0.00 0.00 0.00 0.00 0.01 0.01 0.02 0.01 0.00 0.01 0.01 0.04 0.07 0.08 0.10 0.05 0.01 0.00 0.00 0.00 0.00 0.00 0.00 0.01 0.01 0.00 0.00 0.00 0.00 0.00 0.00 0.00 0.00 0.00 0.01 0.01 0.00 0.00 0.01 0.00 0.00 0.01 0.01 0.01 0.01 0.00 0.01 0.00 0.00
0.00 0.00 0.00 0.00 0.00 0.00 0.01 0.01 0.01 0.02 0.02 0.02 0.01 0.02 0.02 0.03 0.07 0.07 0.08 0.06 0.04 0.01 0.01 0.01 0.02 0.01 0.00 0.00 0.00 0.00 0.00 0.00 0.00 0.00 0.00 0.00 0.00 0.00 0.00 0.00 0.00 0.00 0.00 0.00 0.00 0.00 0.00 0.01 0.01 0.01 0.00 0.00 0.00 0.01
0.00 0.00 0.00 0.00 0.01 0.01 0.02 0.01 0.00 0.01 0.00 0.00 0.00 0.01 0.02 0.05 0.08 0.06 0.03 0.02 0.01 0.00 0.01 0.00 0.01 0.00 0.00 0.00 0.00 0.00 0.00 0.00 0.00 0.00 0.00 0.00 0.01 0.01 0.00 0.00 0.00 0.00 0.01 0.00 0.00 0.00 0.00 0.00 0.00 0.00 0.00 0.00 0.00 0.00
0.00 0.00 0.00 0.00 0.02 0.03 0.01 0.01 0.00 0.00 0.00 0.00 0.00 0.00 0.01 0.03 0.04 0.03 0.02 0.02 0.01 0.01 0.00 0.00 0.00 0.00 0.00 0.00 0.00 0.00 0.00 0.01 0.00 0.00 0.00 0.00 0.00 0.00 0.00 0.00 0.00 0.00 0.00 0.00 0.00 0.01 0.01 0.01 0.00 0.00 0.00 0.00 0.00 0.01
0.00 0.00 0.00 0.00 0.02 0.03 0.03 0.05 0.03 0.02 0.01 0.00 0.01 0.01 0.01 0.00 0.01 0.01 0.02 0.01 0.00 0.00 0.00 0.00 0.00 0.01 0.01 0.00 0.00 0.00 0.01 0.01 0.00 0.01 0.00 0.00 0.00 0.00 0.00 0.00 0.00 0.00 0.00 0.00 0.00 0.00 0.00 0.00 0.00 0.00 0.00 0.01 0.00 0.01
0.00 0.00 0.00 0.00 0.02 0.03 0.02 0.04 0.03 0.02 0.01 0.01 0.01 0.01 0.01 0.00 0.00 0.01 0.02 0.00 0.00 0.00 0.00 0.00 0.00 0.01 0.01 0.00 0.00 0.00 0.00 0.00 0.00 0.00 0.00 0.00 0.00 0.00 0.00 0.00 0.00 0.00 0.00 0.00 0.00 0.00 0.00 0.00 0.00 0.00 0.00 0.00 0.01 0.01

GFSWCAN_prec_precacc12_057.txt.gz
Total_Precipitation_Accumulation
0.15 0.13 0.16 0.18 0.18 0.21 0.30 0.28 0.29 0.33 0.36 0.23 0.16 0.15 0.16 0.21 0.34 0.21 0.21 0.16 0.15 0.12 0.13 0.17 0.16 0.13 0.02 0.01 0.03 0.01 0.03 0.02 0.02 0.01 0.00 0.01 0.00 0.00 0.01 0.00 0.00 0.00 0.02 0.01 0.02 0.02 0.00 0.00 0.00 0.00 0.00 0.00 0.00 0.00
0.16 0.16 0.18 0.22 0.23 0.24 0.28 0.26 0.27 0.29 0.29 0.18 0.14 0.16 0.17 0.29 0.30 0.17 0.25 0.27 0.22 0.18 0.17 0.25 0.17 0.19 0.07 0.00 0.00 0.01 0.01 0.00 0.00 0.00 0.00 0.01 0.01 0.00 0.00 0.00 0.00 0.00 0.02 0.03 0.01 0.00 0.00 0.00 0.00 0.00 0.00 0.00 0.00 0.00
0.14 0.16 0.17 0.19 0.24 0.25 0.27 0.27 0.27 0.23 0.22 0.18 0.16 0.20 0.26 0.31 0.23 0.13 0.17 0.24 0.40 0.26 0.08 0.07 0.17 0.16 0.18 0.02 0.01 0.04 0.01 0.00 0.00 0.00 0.01 0.01 0.01 0.00 0.00 0.00 0.00 0.01 0.00 0.00 0.00 0.00 0.00 0.00 0.00 0.00 0.00 0.00 0.00 0.00
0.09 0.09 0.12 0.18 0.23 0.25 0.28 0.28 0.25 0.24 0.22 0.22 0.21 0.26 0.27 0.28 0.21 0.04 0.08 0.18 0.34 0.22 0.09 0.04 0.07 0.12 0.18 0.13 0.02 0.02 0.02 0.02 0.03 0.03 0.03 0.03 0.02 0.01 0.00 0.00 0.00 0.00 0.01 0.01 0.00 0.00 0.00 0.00 0.00 0.00 0.00 0.00 0.00 0.00
0.15 0.11 0.10 0.15 0.25 0.26 0.24 0.22 0.24 0.23 0.24 0.22 0.25 0.24 0.30 0.31 0.15 0.03 0.05 0.25 0.28 0.32 0.13 0.02 0.04 0.10 0.13 0.17 0.09 0.04 0.04 0.03 0.05 0.06 0.04 0.01 0.01 0.01 0.01 0.00 0.00 0.00 0.00 0.00 0.00 0.01 0.01 0.00 0.00 0.00 0.00 0.00 0.00 0.00
0.15 0.13 0.09 0.09 0.10 0.10 0.13 0.13 0.14 0.16 0.15 0.15 0.18 0.27 0.28 0.18 0.09 0.08 0.21 0.23 0.35 0.31 0.18 0.04 0.04 0.05 0.16 0.24 0.20 0.11 0.04 0.05 0.06 0.07 0.06 0.02 0.01 0.01 0.00 0.00 0.00 0.00 0.01 0.01 0.00 0.01 0.00 0.00 0.00 0.00 0.00 0.00 0.00 0.00
0.05 0.06 0.06 0.06 0.06 0.06 0.06 0.07 0.10 0.10 0.09 0.13 0.16 0.15 0.14 0.11 0.05 0.09 0.12 0.05 0.12 0.37 0.44 0.12 0.06 0.06 0.12 0.30 0.27 0.12 0.06 0.07 0.08 0.10 0.06 0.04 0.04 0.05 0.03 0.00 0.00 0.00 0.00 0.00 0.00 0.00 0.00 0.00 0.00 0.00 0.00 0.00 0.00 0.00
0.03 0.03 0.02 0.02 0.03 0.04 0.04 0.05 0.06 0.07 0.09 0.15 0.19 0.11 0.14 0.11 0.09 0.04 0.05 0.04 0.06 0.22 0.32 0.22 0.16 0.21 0.24 0.42 0.34 0.23 0.15 0.13 0.14 0.08 0.04 0.03 0.04 0.05 0.04 0.01 0.00 0.00 0.00 0.00 0.00 0.00 0.00 0.00 0.00 0.00 0.00 0.00 0.00 0.00
0.01 0.01 0.01 0.01 0.01 0.01 0.01 0.02 0.03 0.04 0.09 0.13 0.12 0.15 0.20 0.17 0.07 0.05 0.17 0.09 0.04 0.18 0.20 0.13 0.24 0.31 0.48 0.45 0.51 0.36 0.27 0.19 0.12 0.08 0.04 0.05 0.03 0.03 0.00 0.00 0.00 0.00 0.00 0.00 0.00 0.00 0.00 0.00 0.00 0.00 0.00 0.00 0.00 0.00
0.01 0.01 0.01 0.01 0.01 0.01 0.01 0.01 0.01 0.01 0.03 0.05 0.10 0.10 0.12 0.04 0.08 0.30 0.46 0.23 0.13 0.13 0.15 0.10 0.25 0.55 0.69 0.73 0.30 0.48 0.45 0.28 0.22 0.08 0.14 0.07 0.01 0.00 0.00 0.00 0.00 0.00 0.00 0.00 0.00 0.00 0.00 0.00 0.00 0.00 0.00 0.00 0.00 0.00
0.02 0.02 0.02 0.03 0.02 0.01 0.01 0.01 0.01 0.01 0.03 0.07 0.14 0.19 0.08 0.19 0.23 0.40 0.35 0.24 0.14 0.08 0.03 0.03 0.15 0.50 0.42 0.43 0.39 0.32 0.35 0.46 0.41 0.37 0.29 0.24 0.09 0.01 0.00 0.00 0.00 0.00 0.00 0.00 0.00 0.00 0.00 0.00 0.00 0.00 0.00 0.00 0.00 0.00
0.02 0.02 0.02 0.02 0.02 0.03 0.03 0.04 0.06 0.05 0.09 0.32 0.41 0.21 0.29 0.27 0.20 0.23 0.28 0.26 0.11 0.05 0.03 0.09 0.12 0.21 0.27 0.43 0.53 0.59 0.45 0.44 0.30 0.23 0.36 0.31 0.11 0.06 0.06 0.04 0.03 0.02 0.01 0.01 0.00 0.00 0.00 0.00 0.00 0.00 0.00 0.00 0.00 0.01
0.00 0.01 0.01 0.03 0.04 0.06 0.07 0.14 0.18 0.34 0.73 0.61 0.21 0.13 0.22 0.20 0.32 0.32 0.23 0.18 0.10 0.05 0.05 0.11 0.11 0.16 0.17 0.41 0.61 0.48 0.44 0.36 0.28 0.31 0.29 0.18 0.10 0.12 0.15 0.18 0.20 0.18 0.14 0.10 0.06 0.04 0.03 0.03 0.02 0.02 0.03 0.06 0.10 0.15
0.01 0.02 0.05 0.07 0.09 0.13 0.18 0.23 0.39 0.85 0.74 0.42 0.38 0.41 0.55 0.37 0.42 0.32 0.23 0.18 0.13 0.11 0.08 0.16 0.13 0.14 0.14 0.17 0.27 0.23 0.26 0.23 0.30 0.32 0.29 0.23 0.24 0.26 0.24 0.22 0.22 0.24 0.26 0.25 0.24 0.23 0.22 0.23 0.26 0.30 0.33 0.38 0.42 0.49
0.02 0.04 0.07 0.10 0.11 0.16 0.27 0.36 0.53 0.71 0.69 0.59 0.62 0.50 0.45 0.52 0.47 0.42 0.39 0.29 0.26 0.19 0.11 0.20 0.24 0.20 0.10 0.14 0.12 0.10 0.13 0.14 0.14 0.17 0.18 0.17 0.19 0.22 0.25 0.28 0.31 0.30 0.30 0.29 0.29 0.31 0.37 0.40 0.41 0.47 0.49 0.48 0.40 0.33
0.07 0.12 0.21 0.23 0.26 0.34 0.37 0.41 0.58 0.64 0.43 0.35 0.38 0.47 0.45 0.49 0.43 0.39 0.35 0.31 0.32 0.27 0.24 0.28 0.30 0.20 0.17 0.10 0.06 0.08 0.06 0.08 0.12 0.15 0.16 0.15 0.14 0.17 0.21 0.26 0.31 0.31 0.28 0.24 0.22 0.20 0.21 0.24 0.21 0.22 0.26 0.24 0.22 0.17
0.11 0.12 0.27 0.26 0.31 0.29 0.32 0.31 0.29 0.22 0.18 0.20 0.32 0.43 0.44 0.38 0.39 0.37 0.36 0.35 0.32 0.24 0.20 0.16 0.12 0.11 0.12 0.06 0.08 0.09 0.13 0.18 0.20 0.19 0.20 0.22 0.22 0.25 0.27 0.31 0.34 0.32 0.25 0.20 0.17 0.19 0.21 0.21 0.15 0.10 0.10 0.12 0.09 0.08
0.30 0.21 0.22 0.20 0.20 0.23 0.25 0.24 0.08 0.05 0.12 0.24 0.27 0.36 0.29 0.31 0.32 0.31 0.31 0.29 0.24 0.16 0.11 0.12 0.07 0.03 0.05 0.08 0.11 0.15 0.18 0.22 0.33 0.34 0.32 0.32 0.32 0.33 0.35 0.36 0.36 0.31 0.24 0.21 0.17 0.20 0.21 0.19 0.13 0.13 0.09 0.07 0.04 0.03
0.55 0.37 0.35 0.37 0.29 0.16 0.07 0.04 0.00 0.04 0.15 0.14 0.16 0.14 0.10 0.11 0.10 0.10 0.09 0.09 0.10 0.07 0.05 0.05 0.04 0.06 0.11 0.13 0.15 0.16 0.21 0.29 0.33 0.33 0.31 0.32 0.33 0.34 0.36 0.34 0.29 0.24 0.17 0.18 0.16 0.16 0.16 0.15 0.13 0.11 0.08 0.05 0.05 0.04
0.36 0.30 0.29 0.16 0.03 0.01 0.00 0.01 0.00 0.03 0.09 0.08 0.05 0.02 0.01 0.01 0.00 0.00 0.00 0.00 0.00 0.01 0.03 0.07 0.15 0.19 0.20 0.21 0.24 0.26 0.29 0.33 0.28 0.23 0.23 0.27 0.35 0.31 0.31 0.27 0.24 0.23 0.16 0.16 0.15 0.15 0.11 0.10 0.11 0.10 0.08 0.07 0.06 0.07
0.14 0.14 0.08 0.01 0.00 0.00 0.00 0.00 0.03 0.04 0.05 0.07 0.06 0.01 0.00 0.00 0.00 0.00 0.00 0.00 0.00 0.04 0.13 0.20 0.20 0.22 0.23 0.25 0.25 0.26 0.25 0.21 0.20 0.18 0.22 0.23 0.29 0.24 0.23 0.24 0.21 0.17 0.14 0.14 0.12 0.14 0.11 0.11 0.13 0.11 0.09 0.08 0.07 0.06
0.05 0.01 0.00 0.00 0.00 0.00 0.00 0.00 0.02 0.02 0.00 0.01 0.01 0.00 0.00 0.00 0.00 0.00 0.00 0.00 0.05 0.13 0.18 0.17 0.17 0.17 0.16 0.17 0.21 0.21 0.24 0.18 0.17 0.16 0.18 0.17 0.16 0.16 0.17 0.21 0.16 0.13 0.12 0.12 0.09 0.08 0.08 0.07 0.06 0.05 0.05 0.05 0.04 0.03
0.00 0.00 0.00 0.00 0.00 0.00 0.00 0.00 0.00 0.00 0.00 0.00 0.00 0.00 0.00 0.00 0.00 0.00 0.00 0.02 0.07 0.12 0.12 0.10 0.11 0.10 0.10 0.15 0.11 0.09 0.12 0.10 0.09 0.12 0.13 0.11 0.11 0.12 0.10 0.10 0.09 0.07 0.05 0.07 0.05 0.04 0.04 0.04 0.03 0.03 0.02 0.02 0.01 0.01
0.00 0.00 0.00 0.00 0.00 0.00 0.00 0.00 0.00 0.00 0.00 0.00 0.00 0.01 0.01 0.00 0.00 0.00 0.01 0.03 0.08 0.06 0.04 0.03 0.02 0.01 0.01 0.00 0.01 0.02 0.02 0.01 0.02 0.03 0.04 0.02 0.01 0.02 0.02 0.02 0.02 0.02 0.02 0.02 0.01 0.01 0.01 0.01 0.01 0.00 0.00 0.00 0.00 0.00
0.00 0.00 0.00 0.00 0.00 0.00 0.00 0.00 0.00 0.00 0.00 0.00 0.01 0.02 0.01 0.00 0.00 0.00 0.01 0.03 0.03 0.03 0.03 0.02 0.00 0.00 0.00 0.01 0.01 0.01 0.00 0.00 0.00 0.00 0.01 0.00 0.00 0.00 0.00 0.00 0.00 0.00 0.00 0.00 0.00 0.00 0.00 0.00 0.00 0.00 0.00 0.00 0.00 0.00
0.00 0.01 0.00 0.00 0.00 0.00 0.00 0.00 0.00 0.00 0.00 0.01 0.02 0.01 0.00 0.00 0.00 0.01 0.03 0.03 0.03 0.03 0.04 0.03 0.01 0.00 0.00 0.00 0.00 0.00 0.00 0.00 0.00 0.00 0.00 0.00 0.00 0.00 0.00 0.00 0.00 0.00 0.01 0.00 0.00 0.00 0.00 0.00 0.00 0.00 0.00 0.00 0.00 0.00
0.00 0.00 0.00 0.01 0.00 0.00 0.00 0.00 0.00 0.00 0.00 0.01 0.01 0.00 0.00 0.00 0.01 0.03 0.04 0.03 0.02 0.02 0.01 0.01 0.00 0.00 0.00 0.00 0.01 0.00 0.00 0.00 0.00 0.00 0.00 0.00 0.00 0.00 0.00 0.00 0.01 0.01 0.01 0.00 0.01 0.01 0.00 0.00 0.00 0.00 0.00 0.00 0.00 0.00
0.00 0.00 0.00 0.00 0.00 0.00 0.00 0.00 0.00 0.01 0.01 0.01 0.00 0.00 0.00 0.00 0.02 0.04 0.04 0.04 0.01 0.00 0.00 0.00 0.00 0.00 0.00 0.00 0.00 0.00 0.00 0.00 0.00 0.00 0.00 0.00 0.00 0.00 0.00 0.00 0.00 0.00 0.00 0.00 0.00 0.00 0.00 0.01 0.00 0.01 0.00 0.00 0.00 0.00
0.00 0.00 0.00 0.00 0.00 0.00 0.01 0.01 0.01 0.01 0.02 0.00 0.00 0.01 0.01 0.02 0.04 0.05 0.05 0.04 0.02 0.01 0.00 0.00 0.00 0.00 0.00 0.00 0.00 0.00 0.00 0.00 0.00 0.00 0.00 0.00 0.00 0.00 0.01 0.00 0.00 0.00 0.00 0.00 0.00 0.00 0.00 0.00 0.01 0.00 0.00 0.00 0.00 0.00
0.00 0.00 0.00 0.00 0.00 0.01 0.01 0.01 0.01 0.01 0.00 0.00 0.00 0.01 0.01 0.03 0.05 0.05 0.03 0.02 0.01 0.01 0.01 0.00 0.00 0.00 0.00 0.00 0.00 0.00 0.00 0.00 0.00 0.00 0.00 0.00 0.00 0.01 0.01 0.00 0.00 0.00 0.00 0.00 0.00 0.00 0.00 0.00 0.00 0.00 0.00 0.00 0.00 0.00
0.00 0.00 0.00 0.00 0.01 0.01 0.00 0.00 0.00 0.00 0.00 0.00 0.00 0.00 0.01 0.02 0.03 0.02 0.01 0.01 0.00 0.00 0.00 0.00 0.00 0.00 0.00 0.00 0.00 0.00 0.00 0.00 0.00 0.00 0.00 0.00 0.00 0.00 0.00 0.00 0.00 0.01 0.00 0.00 0.00 0.00 0.00 0.00 0.00 0.00 0.00 0.00 0.00 0.00
0.00 0.00 0.00 0.00 0.02 0.01 0.01 0.02 0.00 0.00 0.00 0.00 0.01 0.01 0.01 0.00 0.00 0.01 0.01 0.01 0.00 0.01 0.00 0.01 0.00 0.01 0.00 0.00 0.00 0.00 0.00 0.00 0.00 0.00 0.00 0.00 0.00 0.00 0.00 0.00 0.00 0.00 0.00 0.00 0.00 0.00 0.00 0.00 0.00 0.00 0.00 0.00 0.00 0.00
0.00 0.00 0.00 0.00 0.01 0.02 0.02 0.03 0.01 0.01 0.00 0.01 0.01 0.01 0.01 0.00 0.00 0.01 0.01 0.00 0.00 0.00 0.00 0.00 0.00 0.01 0.00 0.00 0.00 0.00 0.00 0.00 0.00 0.00 0.00 0.00 0.00 0.00 0.00 0.00 0.00 0.00 0.00 0.00 0.00 0.00 0.00 0.00 0.00 0.00 0.00 0.00 0.00 0.00

GFSWCAN_prec_precacc12_060.txt.gz
Total_Precipitation_Accumulation
0.05 0.03 0.05 0.06 0.03 0.09 0.17 0.19 0.23 0.30 0.35 0.27 0.20 0.24 0.23 0.26 0.40 0.25 0.19 0.08 0.15 0.11 0.12 0.16 0.18 0.13 0.02 0.02 0.05 0.02 0.05 0.07 0.14 0.06 0.01 0.00 0.00 0.00 0.01 0.00 0.00 0.02 0.06 0.04 0.05 0.06 0.01 0.00 0.00 0.00 0.00 0.00 0.00 0.00
0.06 0.04 0.03 0.05 0.08 0.12 0.15 0.15 0.22 0.30 0.31 0.22 0.17 0.20 0.23 0.33 0.35 0.20 0.21 0.11 0.14 0.22 0.21 0.29 0.20 0.22 0.07 0.01 0.01 0.01 0.02 0.02 0.03 0.03 0.00 0.00 0.01 0.01 0.01 0.01 0.00 0.01 0.02 0.04 0.02 0.00 0.00 0.00 0.00 0.00 0.00 0.00 0.00 0.00
0.11 0.10 0.08 0.11 0.15 0.18 0.18 0.19 0.25 0.24 0.25 0.23 0.19 0.22 0.28 0.35 0.27 0.20 0.15 0.12 0.29 0.41 0.12 0.08 0.17 0.15 0.17 0.02 0.02 0.13 0.03 0.00 0.00 0.00 0.00 0.01 0.01 0.00 0.00 0.00 0.00 0.01 0.00 0.00 0.01 0.01 0.01 0.00 0.00 0.00 0.00 0.00 0.00 0.00
0.09 0.08 0.12 0.19 0.21 0.24 0.25 0.26 0.26 0.25 0.24 0.25 0.23 0.28 0.28 0.33 0.29 0.15 0.08 0.08 0.21 0.25 0.12 0.05 0.07 0.12 0.17 0.12 0.02 0.05 0.06 0.02 0.01 0.00 0.00 0.04 0.01 0.00 0.00 0.00 0.00 0.00 0.01 0.01 0.00 0.00 0.00 0.00 0.00 0.00 0.00 0.00 0.00 0.00
0.18 0.12 0.12 0.17 0.25 0.26 0.24 0.23 0.24 0.24 0.26 0.24 0.25 0.26 0.35 0.40 0.24 0.13 0.08 0.14 0.22 0.31 0.13 0.05 0.05 0.09 0.11 0.14 0.06 0.04 0.06 0.08 0.09 0.10 0.03 0.03 0.00 0.00 0.00 0.00 0.00 0.00 0.00 0.00 0.00 0.01 0.01 0.00 0.00 0.00 0.00 0.00 0.00 0.00
0.19 0.14 0.10 0.09 0.09 0.09 0.10 0.11 0.13 0.16 0.17 0.18 0.22 0.33 0.37 0.30 0.15 0.13 0.25 0.21 0.31 0.27 0.16 0.06 0.04 0.04 0.14 0.16 0.15 0.08 0.07 0.09 0.10 0.10 0.06 0.01 0.00 0.00 0.00 0.00 0.00 0.00 0.01 0.01 0.00 0.01 0.00 0.00 0.00 0.00 0.00 0.00 0.00 0.00
0.10 0.09 0.08 0.07 0.06 0.06 0.06 0.07 0.10 0.13 0.16 0.21 0.24 0.19 0.17 0.12 0.06 0.11 0.16 0.06 0.11 0.24 0.24 0.07 0.05 0.07 0.09 0.22 0.20 0.09 0.07 0.09 0.14 0.18 0.09 0.04 0.03 0.02 0.02 0.00 0.00 0.00 0.00 0.00 0.00 0.00 0.00 0.00 0.00 0.00 0.00 0.00 0.00 0.00
0.05 0.07 0.07 0.08 0.08 0.07 0.08 0.08 0.11 0.13 0.15 0.16 0.14 0.15 0.18 0.13 0.09 0.06 0.04 0.01 0.06 0.14 0.13 0.15 0.16 0.23 0.24 0.26 0.25 0.18 0.13 0.16 0.18 0.15 0.08 0.05 0.05 0.08 0.05 0.01 0.00 0.00 0.00 0.00 0.00 0.00 0.00 0.00 0.00 0.00 0.00 0.00 0.00 0.00
0.02 0.02 0.03 0.03 0.02 0.03 0.04 0.05 0.07 0.08 0.09 0.09 0.11 0.14 0.17 0.13 0.11 0.07 0.05 0.03 0.05 0.17 0.15 0.09 0.27 0.45 0.52 0.34 0.37 0.32 0.26 0.22 0.14 0.11 0.07 0.09 0.08 0.09 0.02 0.00 0.00 0.00 0.00 0.00 0.00 0.00 0.00 0.00 0.00 0.00 0.00 0.00 0.00 0.00
0.02 0.02 0.03 0.03 0.02 0.02 0.02 0.02 0.02 0.02 0.03 0.04 0.04 0.07 0.10 0.05 0.06 0.09 0.13 0.08 0.09 0.10 0.13 0.09 0.26 0.68 0.89 0.53 0.34 0.51 0.54 0.27 0.10 0.05 0.13 0.08 0.05 0.02 0.00 0.00 0.00 0.00 0.00 0.00 0.00 0.00 0.00 0.00 0.00 0.00 0.00 0.00 0.00 0.00
0.02 0.02 0.03 0.04 0.03 0.03 0.04 0.04 0.03 0.03 0.03 0.06 0.10 0.11 0.05 0.13 0.20 0.24 0.16 0.14 0.09 0.05 0.02 0.01 0.13 0.55 0.69 0.69 0.27 0.24 0.34 0.38 0.27 0.16 0.13 0.09 0.05 0.01 0.00 0.00 0.00 0.00 0.00 0.00 0.00 0.00 0.00 0.00 0.00 0.00 0.00 0.00 0.00 0.00
0.02 0.02 0.02 0.02 0.02 0.03 0.04 0.04 0.06 0.07 0.08 0.16 0.15 0.09 0.16 0.26 0.25 0.20 0.21 0.16 0.07 0.07 0.07 0.04 0.07 0.23 0.40 0.66 0.49 0.32 0.36 0.22 0.18 0.17 0.26 0.24 0.09 0.02 0.02 0.02 0.02 0.02 0.01 0.01 0.00 0.00 0.00 0.00 0.00 0.00 0.00 0.00 0.00 0.01
0.00 0.01 0.01 0.02 0.04 0.05 0.07 0.14 0.16 0.20 0.35 0.28 0.17 0.09 0.19 0.16 0.26 0.24 0.15 0.11 0.07 0.05 0.03 0.06 0.07 0.17 0.26 0.43 0.67 0.43 0.49 0.32 0.29 0.34 0.36 0.24 0.11 0.07 0.11 0.17 0.20 0.18 0.15 0.11 0.06 0.04 0.03 0.03 0.02 0.02 0.03 0.06 0.10 0.15
0.00 0.01 0.03 0.05 0.07 0.11 0.15 0.15 0.20 0.41 0.29 0.26 0.26 0.29 0.48 0.30 0.36 0.27 0.19 0.17 0.12 0.09 0.06 0.15 0.13 0.17 0.17 0.25 0.46 0.29 0.36 0.28 0.40 0.37 0.35 0.26 0.27 0.28 0.25 0.24 0.24 0.29 0.31 0.30 0.29 0.26 0.25 0.25 0.28 0.33 0.37 0.43 0.46 0.56
0.01 0.02 0.04 0.06 0.08 0.09 0.09 0.09 0.19 0.27 0.32 0.38 0.47 0.41 0.38 0.48 0.42 0.38 0.36 0.28 0.24 0.19 0.11 0.21 0.24 0.24 0.13 0.21 0.21 0.14 0.13 0.15 0.16 0.20 0.21 0.21 0.24 0.25 0.28 0.31 0.35 0.38 0.38 0.37 0.37 0.39 0.44 0.47 0.46 0.54 0.59 0.58 0.49 0.46
0.03 0.08 0.14 0.10 0.07 0.06 0.10 0.19 0.27 0.35 0.40 0.34 0.36 0.47 0.44 0.48 0.42 0.39 0.34 0.30 0.31 0.27 0.27 0.35 0.42 0.28 0.16 0.11 0.07 0.08 0.06 0.09 0.13 0.17 0.19 0.18 0.19 0.22 0.27 0.31 0.37 0.38 0.34 0.30 0.28 0.26 0.27 0.30 0.28 0.30 0.35 0.33 0.32 0.26
0.06 0.08 0.12 0.12 0.14 0.19 0.25 0.24 0.25 0.22 0.18 0.21 0.33 0.42 0.44 0.38 0.38 0.37 0.35 0.33 0.33 0.28 0.28 0.23 0.18 0.14 0.11 0.04 0.06 0.07 0.13 0.18 0.20 0.21 0.24 0.26 0.26 0.30 0.32 0.35 0.37 0.32 0.25 0.22 0.19 0.21 0.25 0.27 0.20 0.13 0.16 0.21 0.16 0.15
0.16 0.13 0.14 0.14 0.14 0.15 0.17 0.15 0.07 0.06 0.13 0.27 0.29 0.37 0.32 0.34 0.34 0.32 0.32 0.29 0.26 0.18 0.14 0.14 0.09 0.03 0.07 0.10 0.14 0.18 0.18 0.22 0.29 0.31 0.32 0.33 0.32 0.32 0.33 0.34 0.34 0.28 0.22 0.20 0.18 0.21 0.23 0.20 0.16 0.18 0.14 0.12 0.08 0.07
0.48 0.31 0.30 0.34 0.23 0.12 0.07 0.05 0.00 0.05 0.16 0.18 0.22 0.21 0.19 0.21 0.20 0.18 0.14 0.13 0.12 0.08 0.08 0.09 0.10 0.12 0.16 0.20 0.22 0.21 0.23 0.26 0.27 0.28 0.28 0.29 0.31 0.32 0.33 0.31 0.27 0.23 0.17 0.18 0.15 0.15 0.17 0.16 0.16 0.14 0.11 0.07 0.07 0.07
0.38 0.31 0.30 0.16 0.03 0.01 0.00 0.01 0.00 0.03 0.07 0.05 0.03 0.01 0.02 0.03 0.04 0.03 0.02 0.03 0.04 0.04 0.06 0.10 0.18 0.21 0.21 0.20 0.20 0.21 0.23 0.27 0.22 0.20 0.20 0.23 0.30 0.26 0.27 0.24 0.22 0.21 0.15 0.14 0.13 0.13 0.11 0.09 0.11 0.11 0.09 0.08 0.06 0.07
0.15 0.14 0.08 0.01 0.00 0.00 0.00 0.01 0.02 0.02 0.03 0.04 0.03 0.00 0.00 0.00 0.00 0.00 0.00 0.00 0.00 0.03 0.10 0.15 0.15 0.16 0.16 0.18 0.18 0.18 0.18 0.16 0.16 0.16 0.20 0.21 0.25 0.20 0.19 0.20 0.18 0.14 0.11 0.12 0.10 0.11 0.08 0.09 0.11 0.08 0.07 0.06 0.06 0.06
0.05 0.01 0.00 0.00 0.00 0.00 0.00 0.00 0.01 0.02 0.01 0.00 0.00 0.00 0.00 0.00 0.00 0.00 0.00 0.00 0.06 0.11 0.14 0.12 0.13 0.13 0.11 0.13 0.16 0.16 0.18 0.13 0.12 0.11 0.14 0.13 0.13 0.12 0.13 0.15 0.10 0.08 0.07 0.07 0.05 0.05 0.04 0.04 0.03 0.02 0.02 0.03 0.02 0.02
0.00 0.00 0.00 0.00 0.00 0.00 0.00 0.00 0.00 0.00 0.00 0.00 0.00 0.00 0.00 0.00 0.00 0.00 0.00 0.02 0.07 0.10 0.09 0.07 0.07 0.06 0.06 0.10 0.07 0.07 0.09 0.06 0.06 0.08 0.08 0.07 0.07 0.08 0.06 0.06 0.05 0.04 0.03 0.03 0.02 0.02 0.01 0.01 0.00 0.00 0.00 0.00 0.00 0.00
0.00 0.00 0.00 0.00 0.00 0.00 0.00 0.00 0.00 0.00 0.00 0.00 0.00 0.01 0.01 0.00 0.00 0.00 0.01 0.03 0.07 0.05 0.03 0.03 0.02 0.01 0.01 0.00 0.00 0.01 0.01 0.00 0.01 0.01 0.02 0.01 0.00 0.01 0.00 0.00 0.00 0.00 0.00 0.00 0.00 0.00 0.00 0.00 0.00 0.00 0.00 0.00 0.00 0.00
0.00 0.00 0.00 0.00 0.00 0.00 0.00 0.00 0.00 0.00 0.00 0.00 0.00 0.01 0.00 0.00 0.00 0.00 0.01 0.03 0.03 0.04 0.04 0.02 0.00 0.00 0.00 0.00 0.00 0.00 0.00 0.00 0.00 0.00 0.00 0.00 0.00 0.00 0.00 0.00 0.00 0.00 0.00 0.00 0.00 0.00 0.00 0.00 0.00 0.00 0.00 0.00 0.00 0.00
0.00 0.01 0.00 0.00 0.00 0.00 0.00 0.00 0.00 0.00 0.00 0.00 0.01 0.01 0.00 0.00 0.00 0.01 0.03 0.03 0.03 0.03 0.04 0.03 0.01 0.00 0.00 0.00 0.00 0.00 0.00 0.00 0.00 0.00 0.00 0.00 0.00 0.00 0.00 0.00 0.00 0.00 0.01 0.00 0.00 0.00 0.00 0.00 0.00 0.00 0.00 0.00 0.00 0.00
0.00 0.00 0.00 0.00 0.00 0.00 0.00 0.00 0.00 0.00 0.00 0.01 0.01 0.00 0.00 0.00 0.01 0.03 0.03 0.03 0.02 0.01 0.01 0.01 0.00 0.00 0.00 0.00 0.00 0.00 0.00 0.00 0.00 0.00 0.00 0.00 0.00 0.00 0.00 0.00 0.00 0.01 0.01 0.00 0.00 0.00 0.00 0.00 0.00 0.00 0.00 0.00 0.00 0.00
0.00 0.00 0.00 0.00 0.00 0.00 0.00 0.00 0.00 0.00 0.01 0.01 0.00 0.00 0.00 0.00 0.02 0.05 0.03 0.02 0.01 0.00 0.00 0.00 0.00 0.00 0.00 0.00 0.00 0.00 0.00 0.00 0.00 0.00 0.00 0.00 0.00 0.00 0.00 0.00 0.00 0.00 0.00 0.00 0.00 0.00 0.00 0.00 0.00 0.00 0.00 0.00 0.00 0.00
0.00 0.00 0.00 0.00 0.00 0.00 0.00 0.01 0.01 0.01 0.01 0.00 0.00 0.01 0.01 0.02 0.04 0.04 0.04 0.02 0.01 0.01 0.00 0.00 0.00 0.00 0.00 0.00 0.00 0.00 0.00 0.00 0.00 0.00 0.00 0.00 0.00 0.00 0.00 0.00 0.00 0.00 0.00 0.00 0.00 0.00 0.00 0.00 0.00 0.00 0.00 0.00 0.00 0.00
0.00 0.00 0.00 0.00 0.00 0.01 0.02 0.01 0.01 0.01 0.00 0.00 0.00 0.01 0.01 0.02 0.05 0.04 0.03 0.03 0.02 0.02 0.01 0.00 0.00 0.00 0.00 0.00 0.00 0.00 0.00 0.00 0.00 0.00 0.00 0.00 0.00 0.00 0.00 0.00 0.00 0.00 0.00 0.00 0.00 0.00 0.00 0.00 0.00 0.00 0.00 0.00 0.00 0.00
0.00 0.00 0.00 0.00 0.01 0.01 0.01 0.01 0.00 0.00 0.00 0.00 0.00 0.00 0.01 0.02 0.02 0.02 0.01 0.01 0.00 0.00 0.00 0.00 0.00 0.00 0.00 0.00 0.00 0.00 0.00 0.00 0.00 0.00 0.00 0.00 0.00 0.00 0.00 0.00 0.00 0.00 0.00 0.00 0.00 0.00 0.00 0.00 0.00 0.00 0.00 0.00 0.00 0.00
0.00 0.00 0.00 0.00 0.01 0.01 0.02 0.03 0.01 0.00 0.01 0.00 0.01 0.01 0.01 0.01 0.01 0.01 0.01 0.01 0.01 0.01 0.01 0.01 0.01 0.01 0.00 0.00 0.00 0.00 0.00 0.00 0.00 0.00 0.00 0.00 0.00 0.00 0.00 0.00 0.00 0.00 0.00 0.00 0.00 0.00 0.00 0.00 0.00 0.00 0.00 0.00 0.00 0.00
0.00 0.00 0.00 0.00 0.01 0.01 0.01 0.01 0.00 0.00 0.00 0.00 0.01 0.01 0.01 0.00 0.01 0.01 0.01 0.01 0.02 0.01 0.01 0.01 0.01 0.01 0.00 0.00 0.00 0.00 0.00 0.00 0.00 0.00 0.00 0.00 0.00 0.00 0.00 0.00 0.00 0.00 0.00 0.00 0.00 0.00 0.00 0.00 0.00 0.00 0.00 0.00 0.00 0.00

GFSWCAN_prec_precacc12_063.txt.gz
Total_Precipitation_Accumulation
0.05 0.04 0.05 0.04 0.03 0.09 0.15 0.14 0.12 0.14 0.23 0.20 0.18 0.25 0.28 0.31 0.43 0.35 0.34 0.17 0.46 0.31 0.09 0.12 0.17 0.15 0.03 0.03 0.05 0.02 0.06 0.08 0.17 0.10 0.04 0.01 0.00 0.00 0.01 0.00 0.00 0.02 0.07 0.08 0.10 0.08 0.02 0.00 0.00 0.00 0.00 0.00 0.00 0.00
0.05 0.03 0.02 0.03 0.07 0.10 0.09 0.07 0.09 0.17 0.21 0.18 0.17 0.19 0.26 0.40 0.46 0.38 0.32 0.16 0.33 0.40 0.22 0.23 0.15 0.20 0.08 0.03 0.03 0.01 0.02 0.02 0.05 0.10 0.04 0.01 0.01 0.01 0.00 0.00 0.00 0.01 0.02 0.04 0.03 0.01 0.01 0.01 0.00 0.00 0.00 0.00 0.00 0.00
0.06 0.02 0.01 0.02 0.06 0.08 0.04 0.05 0.11 0.19 0.22 0.21 0.20 0.19 0.30 0.44 0.42 0.43 0.21 0.12 0.57 0.67 0.16 0.12 0.11 0.09 0.16 0.05 0.05 0.15 0.03 0.00 0.01 0.01 0.07 0.05 0.02 0.01 0.00 0.00 0.00 0.00 0.00 0.00 0.01 0.01 0.01 0.01 0.02 0.00 0.00 0.00 0.00 0.00
0.11 0.06 0.05 0.09 0.10 0.11 0.12 0.14 0.15 0.21 0.24 0.26 0.23 0.26 0.33 0.43 0.45 0.29 0.12 0.09 0.39 0.42 0.16 0.08 0.10 0.09 0.11 0.08 0.03 0.06 0.07 0.03 0.02 0.06 0.07 0.16 0.05 0.00 0.00 0.00 0.00 0.00 0.00 0.03 0.02 0.00 0.01 0.00 0.01 0.06 0.04 0.00 0.00 0.00
0.18 0.12 0.10 0.13 0.18 0.18 0.16 0.17 0.20 0.21 0.27 0.27 0.26 0.26 0.37 0.47 0.32 0.20 0.13 0.09 0.14 0.17 0.08 0.07 0.09 0.09 0.07 0.11 0.04 0.04 0.06 0.09 0.12 0.29 0.25 0.07 0.02 0.00 0.00 0.00 0.00 0.00 0.00 0.01 0.03 0.01 0.02 0.00 0.00 0.00 0.00 0.00 0.00 0.00
0.20 0.13 0.09 0.08 0.07 0.08 0.10 0.11 0.13 0.17 0.18 0.19 0.23 0.31 0.33 0.26 0.26 0.31 0.34 0.16 0.09 0.12 0.06 0.09 0.06 0.02 0.11 0.10 0.09 0.07 0.06 0.09 0.14 0.20 0.27 0.13 0.01 0.02 0.02 0.00 0.00 0.00 0.00 0.00 0.00 0.00 0.00 0.00 0.00 0.00 0.00 0.00 0.00 0.00
0.12 0.09 0.08 0.07 0.06 0.06 0.06 0.07 0.10 0.14 0.17 0.23 0.25 0.19 0.16 0.16 0.36 0.16 0.17 0.08 0.03 0.08 0.12 0.06 0.04 0.06 0.08 0.17 0.15 0.07 0.05 0.08 0.16 0.26 0.21 0.10 0.05 0.04 0.03 0.00 0.00 0.00 0.00 0.00 0.00 0.00 0.00 0.00 0.00 0.00 0.00 0.00 0.00 0.00
0.09 0.10 0.09 0.08 0.09 0.09 0.10 0.11 0.13 0.16 0.21 0.24 0.25 0.30 0.31 0.36 0.21 0.04 0.03 0.02 0.05 0.10 0.11 0.11 0.13 0.18 0.22 0.24 0.20 0.15 0.11 0.15 0.21 0.21 0.18 0.21 0.10 0.11 0.08 0.01 0.00 0.00 0.00 0.00 0.00 0.00 0.00 0.00 0.00 0.00 0.00 0.00 0.00 0.00
0.04 0.06 0.08 0.06 0.05 0.06 0.06 0.08 0.11 0.14 0.16 0.18 0.19 0.17 0.20 0.19 0.12 0.06 0.05 0.03 0.05 0.15 0.07 0.04 0.24 0.38 0.49 0.33 0.23 0.20 0.21 0.19 0.17 0.19 0.14 0.25 0.24 0.16 0.03 0.00 0.00 0.00 0.00 0.00 0.00 0.00 0.00 0.00 0.00 0.00 0.00 0.00 0.00 0.00
0.03 0.04 0.06 0.09 0.09 0.07 0.06 0.07 0.08 0.08 0.07 0.05 0.06 0.12 0.21 0.09 0.04 0.06 0.11 0.08 0.09 0.10 0.07 0.03 0.24 0.66 0.91 0.61 0.31 0.28 0.31 0.20 0.11 0.07 0.19 0.18 0.24 0.08 0.01 0.00 0.00 0.00 0.00 0.00 0.00 0.00 0.00 0.00 0.00 0.00 0.00 0.00 0.00 0.00
0.03 0.03 0.06 0.10 0.13 0.15 0.16 0.16 0.14 0.09 0.05 0.05 0.06 0.09 0.06 0.07 0.14 0.15 0.10 0.07 0.06 0.04 0.02 0.01 0.14 0.55 0.70 0.74 0.30 0.28 0.25 0.26 0.25 0.18 0.17 0.17 0.11 0.08 0.06 0.02 0.00 0.00 0.00 0.00 0.00 0.00 0.00 0.00 0.00 0.00 0.00 0.00 0.00 0.00
0.02 0.02 0.02 0.02 0.03 0.03 0.03 0.03 0.02 0.04 0.06 0.11 0.08 0.05 0.11 0.18 0.12 0.05 0.05 0.04 0.05 0.12 0.11 0.06 0.08 0.25 0.44 0.70 0.52 0.27 0.29 0.18 0.10 0.19 0.35 0.39 0.17 0.03 0.01 0.01 0.00 0.00 0.00 0.00 0.00 0.00 0.00 0.00 0.00 0.00 0.00 0.00 0.00 0.00
0.00 0.01 0.01 0.02 0.02 0.02 0.03 0.07 0.05 0.08 0.23 0.19 0.10 0.06 0.13 0.09 0.10 0.08 0.05 0.04 0.07 0.21 0.05 0.11 0.08 0.20 0.39 0.56 0.62 0.27 0.38 0.35 0.20 0.27 0.37 0.26 0.14 0.07 0.04 0.02 0.02 0.01 0.02 0.03 0.03 0.03 0.02 0.02 0.02 0.02 0.03 0.04 0.06 0.10
0.00 0.01 0.03 0.05 0.07 0.10 0.12 0.08 0.08 0.19 0.09 0.06 0.13 0.14 0.34 0.20 0.24 0.18 0.14 0.08 0.04 0.02 0.02 0.19 0.09 0.17 0.31 0.48 0.56 0.37 0.50 0.53 0.43 0.26 0.27 0.20 0.22 0.23 0.24 0.23 0.22 0.26 0.28 0.29 0.29 0.28 0.27 0.26 0.28 0.30 0.33 0.38 0.40 0.53
0.00 0.01 0.02 0.03 0.05 0.06 0.05 0.03 0.08 0.11 0.16 0.21 0.33 0.31 0.28 0.35 0.25 0.18 0.16 0.14 0.13 0.08 0.08 0.13 0.19 0.26 0.33 0.44 0.47 0.34 0.30 0.20 0.16 0.20 0.18 0.23 0.27 0.27 0.30 0.34 0.37 0.39 0.38 0.36 0.36 0.38 0.44 0.46 0.44 0.52 0.58 0.57 0.50 0.49
0.00 0.01 0.03 0.02 0.00 0.00 0.01 0.03 0.07 0.13 0.23 0.21 0.25 0.32 0.29 0.33 0.31 0.29 0.29 0.26 0.27 0.24 0.26 0.38 0.41 0.27 0.17 0.11 0.12 0.11 0.09 0.10 0.15 0.20 0.19 0.22 0.23 0.26 0.30 0.32 0.36 0.35 0.32 0.30 0.29 0.27 0.28 0.30 0.28 0.31 0.36 0.36 0.37 0.30
0.03 0.03 0.02 0.01 0.01 0.03 0.05 0.06 0.13 0.19 0.16 0.20 0.30 0.34 0.38 0.35 0.35 0.34 0.33 0.30 0.31 0.27 0.26 0.23 0.17 0.14 0.10 0.03 0.04 0.06 0.12 0.16 0.17 0.18 0.22 0.24 0.25 0.29 0.31 0.32 0.34 0.31 0.25 0.23 0.21 0.21 0.25 0.26 0.19 0.12 0.18 0.26 0.19 0.18
0.05 0.05 0.04 0.06 0.08 0.07 0.04 0.06 0.06 0.06 0.12 0.24 0.28 0.34 0.31 0.32 0.33 0.33 0.30 0.27 0.24 0.16 0.13 0.13 0.08 0.03 0.06 0.08 0.13 0.18 0.17 0.18 0.20 0.23 0.26 0.30 0.29 0.28 0.30 0.31 0.31 0.26 0.20 0.19 0.17 0.18 0.20 0.17 0.13 0.18 0.16 0.16 0.10 0.10
0.19 0.12 0.12 0.13 0.08 0.04 0.03 0.03 0.00 0.05 0.15 0.19 0.23 0.23 0.22 0.23 0.22 0.20 0.15 0.14 0.12 0.08 0.07 0.09 0.10 0.11 0.15 0.20 0.24 0.23 0.25 0.24 0.23 0.24 0.25 0.27 0.29 0.30 0.31 0.27 0.23 0.20 0.15 0.17 0.13 0.13 0.14 0.13 0.14 0.12 0.11 0.08 0.08 0.09
0.29 0.20 0.16 0.07 0.02 0.01 0.00 0.01 0.00 0.03 0.09 0.07 0.06 0.04 0.05 0.06 0.06 0.04 0.03 0.03 0.04 0.05 0.08 0.12 0.19 0.23 0.22 0.22 0.21 0.22 0.26 0.24 0.17 0.17 0.19 0.21 0.26 0.22 0.22 0.20 0.19 0.18 0.13 0.11 0.10 0.09 0.07 0.06 0.07 0.07 0.06 0.05 0.04 0.06
0.15 0.14 0.08 0.01 0.00 0.00 0.01 0.01 0.02 0.02 0.04 0.05 0.03 0.00 0.01 0.00 0.00 0.00 0.00 0.00 0.01 0.03 0.10 0.13 0.12 0.13 0.11 0.13 0.12 0.11 0.12 0.10 0.12 0.12 0.16 0.17 0.20 0.16 0.15 0.16 0.14 0.11 0.09 0.09 0.07 0.08 0.06 0.07 0.08 0.05 0.03 0.03 0.03 0.03
0.05 0.01 0.00 0.00 0.00 0.00 0.00 0.00 0.02 0.02 0.01 0.00 0.00 0.00 0.00 0.00 0.00 0.00 0.00 0.01 0.07 0.11 0.12 0.09 0.09 0.08 0.07 0.10 0.12 0.10 0.13 0.09 0.08 0.08 0.10 0.10 0.10 0.09 0.10 0.11 0.06 0.05 0.04 0.04 0.02 0.02 0.02 0.02 0.01 0.01 0.01 0.01 0.01 0.00
0.00 0.00 0.00 0.00 0.00 0.00 0.00 0.00 0.00 0.00 0.01 0.00 0.00 0.00 0.00 0.00 0.00 0.00 0.00 0.03 0.10 0.10 0.06 0.04 0.05 0.03 0.03 0.05 0.04 0.04 0.05 0.04 0.04 0.05 0.05 0.04 0.04 0.04 0.03 0.02 0.02 0.01 0.01 0.01 0.01 0.01 0.00 0.00 0.00 0.00 0.00 0.00 0.00 0.00
0.00 0.00 0.00 0.00 0.00 0.00 0.00 0.00 0.00 0.00 0.00 0.00 0.00 0.00 0.00 0.00 0.00 0.00 0.01 0.04 0.06 0.04 0.05 0.05 0.02 0.01 0.00 0.00 0.00 0.00 0.00 0.00 0.01 0.00 0.00 0.00 0.00 0.00 0.00 0.00 0.00 0.00 0.00 0.00 0.00 0.00 0.00 0.00 0.00 0.00 0.00 0.00 0.00 0.00
0.00 0.00 0.00 0.00 0.00 0.00 0.00 0.00 0.00 0.00 0.00 0.00 0.00 0.00 0.00 0.00 0.00 0.01 0.02 0.05 0.04 0.04 0.04 0.02 0.01 0.00 0.00 0.00 0.00 0.00 0.00 0.00 0.00 0.00 0.00 0.00 0.00 0.00 0.00 0.00 0.00 0.00 0.00 0.00 0.00 0.00 0.00 0.00 0.00 0.00 0.00 0.00 0.00 0.00
0.00 0.00 0.00 0.00 0.00 0.00 0.00 0.00 0.00 0.00 0.00 0.00 0.01 0.00 0.00 0.00 0.00 0.01 0.04 0.05 0.03 0.03 0.05 0.04 0.01 0.00 0.00 0.00 0.00 0.00 0.00 0.00 0.00 0.00 0.00 0.00 0.00 0.00 0.00 0.00 0.00 0.00 0.00 0.00 0.00 0.00 0.00 0.00 0.00 0.00 0.00 0.00 0.00 0.00
0.00 0.00 0.00 0.00 0.00 0.00 0.00 0.00 0.00 0.00 0.00 0.01 0.01 0.00 0.00 0.00 0.01 0.03 0.04 0.03 0.01 0.01 0.01 0.01 0.00 0.00 0.00 0.00 0.00 0.00 0.00 0.00 0.00 0.00 0.00 0.00 0.00 0.00 0.00 0.00 0.00 0.00 0.00 0.00 0.00 0.00 0.00 0.00 0.00 0.00 0.00 0.00 0.00 0.00
0.00 0.00 0.00 0.00 0.00 0.00 0.00 0.00 0.00 0.00 0.00 0.00 0.00 0.00 0.00 0.01 0.03 0.05 0.03 0.01 0.00 0.00 0.00 0.00 0.00 0.00 0.00 0.00 0.00 0.00 0.00 0.00 0.00 0.00 0.00 0.00 0.00 0.00 0.00 0.00 0.00 0.00 0.00 0.00 0.00 0.00 0.00 0.00 0.00 0.00 0.00 0.00 0.00 0.00
0.00 0.00 0.00 0.00 0.00 0.00 0.00 0.00 0.00 0.00 0.00 0.00 0.00 0.00 0.01 0.03 0.05 0.04 0.03 0.01 0.01 0.00 0.00 0.00 0.00 0.00 0.00 0.00 0.00 0.00 0.00 0.00 0.00 0.00 0.00 0.01 0.01 0.01 0.00 0.00 0.00 0.00 0.00 0.01 0.00 0.00 0.00 0.00 0.00 0.00 0.00 0.00 0.00 0.00
0.00 0.00 0.00 0.00 0.00 0.01 0.02 0.01 0.02 0.01 0.00 0.00 0.00 0.01 0.01 0.03 0.05 0.04 0.03 0.03 0.03 0.03 0.02 0.01 0.01 0.01 0.01 0.00 0.00 0.00 0.00 0.00 0.00 0.00 0.00 0.00 0.00 0.00 0.00 0.00 0.00 0.00 0.00 0.00 0.00 0.00 0.00 0.00 0.00 0.00 0.00 0.00 0.00 0.00
0.00 0.00 0.00 0.00 0.01 0.01 0.01 0.01 0.01 0.00 0.00 0.00 0.00 0.00 0.01 0.02 0.02 0.02 0.02 0.01 0.00 0.00 0.00 0.00 0.00 0.00 0.00 0.00 0.00 0.00 0.00 0.00 0.00 0.00 0.00 0.00 0.00 0.00 0.00 0.00 0.00 0.00 0.00 0.00 0.00 0.00 0.00 0.00 0.00 0.00 0.00 0.00 0.00 0.00
0.00 0.00 0.00 0.00 0.01 0.01 0.03 0.04 0.02 0.01 0.01 0.00 0.01 0.01 0.01 0.01 0.01 0.01 0.01 0.01 0.01 0.02 0.01 0.01 0.01 0.01 0.00 0.00 0.00 0.00 0.00 0.00 0.00 0.00 0.00 0.00 0.00 0.00 0.00 0.00 0.00 0.00 0.00 0.00 0.00 0.00 0.00 0.00 0.00 0.00 0.00 0.00 0.00 0.00
0.00 0.00 0.00 0.00 0.00 0.01 0.01 0.01 0.00 0.00 0.00 0.00 0.01 0.01 0.01 0.01 0.01 0.02 0.00 0.01 0.03 0.03 0.01 0.01 0.01 0.01 0.00 0.00 0.00 0.00 0.00 0.00 0.00 0.00 0.00 0.00 0.00 0.00 0.00 0.00 0.00 0.00 0.00 0.00 0.00 0.00 0.00 0.00 0.00 0.00 0.00 0.00 0.00 0.00

GFSWCAN_prec_precacc12_069.txt.gz
Total_Precipitation_Accumulation
0.19 0.19 0.15 0.11 0.08 0.06 0.06 0.09 0.10 0.09 0.09 0.09 0.09 0.15 0.20 0.20 0.20 0.30 0.40 0.25 0.70 0.83 0.12 0.04 0.05 0.03 0.01 0.02 0.02 0.01 0.04 0.06 0.16 0.09 0.04 0.01 0.00 0.00 0.01 0.00 0.01 0.05 0.15 0.24 0.28 0.24 0.10 0.02 0.06 0.07 0.02 0.00 0.00 0.00
0.27 0.20 0.13 0.10 0.08 0.09 0.07 0.08 0.10 0.14 0.12 0.14 0.12 0.11 0.19 0.22 0.35 0.47 0.50 0.20 0.34 0.60 0.31 0.07 0.05 0.05 0.02 0.03 0.03 0.01 0.02 0.02 0.05 0.10 0.04 0.01 0.00 0.01 0.00 0.00 0.00 0.02 0.00 0.02 0.06 0.05 0.01 0.03 0.08 0.09 0.04 0.01 0.01 0.00
0.16 0.06 0.04 0.03 0.03 0.05 0.03 0.03 0.05 0.15 0.16 0.14 0.17 0.16 0.18 0.25 0.39 0.84 0.44 0.15 0.63 0.93 0.42 0.18 0.05 0.01 0.01 0.04 0.04 0.13 0.03 0.02 0.03 0.03 0.08 0.05 0.02 0.01 0.01 0.00 0.00 0.00 0.00 0.00 0.01 0.01 0.01 0.01 0.02 0.01 0.00 0.01 0.01 0.00
0.05 0.03 0.04 0.04 0.03 0.03 0.03 0.04 0.03 0.14 0.18 0.16 0.14 0.19 0.24 0.27 0.42 0.84 0.54 0.13 0.43 0.61 0.38 0.18 0.10 0.04 0.01 0.02 0.02 0.06 0.06 0.05 0.07 0.16 0.12 0.18 0.07 0.01 0.00 0.01 0.00 0.00 0.00 0.02 0.02 0.00 0.01 0.01 0.02 0.06 0.04 0.00 0.00 0.00
0.05 0.03 0.05 0.06 0.02 0.01 0.02 0.03 0.04 0.12 0.13 0.16 0.11 0.17 0.34 0.36 0.46 0.67 0.37 0.12 0.14 0.38 0.26 0.21 0.14 0.08 0.03 0.05 0.04 0.06 0.05 0.07 0.13 0.37 0.37 0.11 0.05 0.04 0.03 0.04 0.01 0.01 0.02 0.04 0.05 0.02 0.02 0.01 0.00 0.00 0.00 0.00 0.00 0.00
0.07 0.03 0.02 0.02 0.02 0.02 0.03 0.06 0.09 0.11 0.13 0.15 0.11 0.21 0.39 0.45 0.60 0.66 0.67 0.38 0.13 0.32 0.54 0.29 0.16 0.05 0.04 0.05 0.05 0.03 0.04 0.05 0.15 0.25 0.35 0.26 0.10 0.14 0.08 0.02 0.01 0.02 0.04 0.02 0.02 0.01 0.02 0.02 0.00 0.00 0.00 0.00 0.00 0.00
0.08 0.04 0.04 0.04 0.03 0.03 0.05 0.06 0.08 0.11 0.16 0.17 0.22 0.32 0.49 0.50 0.51 0.24 0.33 0.19 0.10 0.27 0.58 0.49 0.17 0.10 0.06 0.03 0.03 0.01 0.02 0.04 0.12 0.22 0.24 0.12 0.07 0.19 0.20 0.08 0.02 0.02 0.03 0.05 0.04 0.03 0.02 0.00 0.00 0.00 0.00 0.00 0.00 0.00
0.07 0.10 0.08 0.08 0.08 0.08 0.10 0.11 0.13 0.17 0.24 0.35 0.46 0.57 0.60 0.55 0.29 0.08 0.01 0.02 0.06 0.20 0.33 0.35 0.18 0.13 0.10 0.04 0.01 0.00 0.01 0.06 0.12 0.17 0.19 0.26 0.15 0.19 0.20 0.09 0.02 0.01 0.02 0.03 0.02 0.02 0.02 0.02 0.01 0.01 0.01 0.01 0.01 0.01
0.05 0.08 0.09 0.06 0.06 0.07 0.08 0.09 0.14 0.22 0.29 0.34 0.41 0.45 0.51 0.43 0.25 0.09 0.05 0.09 0.09 0.13 0.08 0.09 0.07 0.20 0.12 0.04 0.02 0.04 0.07 0.10 0.11 0.14 0.14 0.30 0.35 0.40 0.19 0.04 0.01 0.00 0.00 0.00 0.00 0.00 0.02 0.03 0.03 0.02 0.01 0.01 0.00 0.00
0.07 0.07 0.10 0.14 0.14 0.12 0.12 0.13 0.15 0.18 0.20 0.20 0.22 0.29 0.62 0.37 0.10 0.09 0.23 0.24 0.08 0.01 0.01 0.00 0.01 0.13 0.33 0.23 0.19 0.15 0.19 0.07 0.07 0.06 0.18 0.21 0.47 0.32 0.10 0.04 0.01 0.00 0.00 0.00 0.00 0.00 0.00 0.02 0.02 0.01 0.01 0.01 0.01 0.00
0.06 0.05 0.08 0.12 0.16 0.19 0.20 0.20 0.18 0.14 0.08 0.05 0.09 0.26 0.28 0.12 0.10 0.14 0.11 0.04 0.02 0.02 0.00 0.00 0.02 0.08 0.36 0.52 0.26 0.16 0.26 0.12 0.06 0.08 0.16 0.24 0.24 0.18 0.15 0.10 0.03 0.01 0.01 0.00 0.00 0.00 0.00 0.00 0.00 0.00 0.00 0.00 0.00 0.00
0.03 0.02 0.01 0.02 0.02 0.03 0.02 0.02 0.01 0.03 0.03 0.02 0.03 0.04 0.04 0.08 0.09 0.04 0.04 0.03 0.04 0.11 0.09 0.04 0.02 0.09 0.34 0.55 0.39 0.21 0.46 0.34 0.10 0.09 0.18 0.28 0.20 0.05 0.02 0.03 0.03 0.01 0.01 0.01 0.01 0.02 0.02 0.03 0.05 0.05 0.04 0.04 0.03 0.02
0.01 0.01 0.00 0.00 0.00 0.00 0.00 0.00 0.00 0.00 0.04 0.07 0.04 0.03 0.06 0.05 0.03 0.03 0.03 0.03 0.12 0.33 0.09 0.12 0.05 0.13 0.32 0.51 0.56 0.31 0.50 0.65 0.29 0.19 0.20 0.17 0.12 0.06 0.04 0.02 0.02 0.02 0.01 0.02 0.01 0.02 0.01 0.01 0.02 0.03 0.03 0.04 0.04 0.05
0.00 0.00 0.00 0.00 0.00 0.00 0.00 0.00 0.00 0.00 0.00 0.01 0.01 0.00 0.06 0.04 0.07 0.07 0.07 0.06 0.07 0.07 0.09 0.34 0.12 0.22 0.35 0.57 0.66 0.50 0.53 0.55 0.53 0.20 0.14 0.12 0.13 0.10 0.08 0.07 0.06 0.10 0.11 0.10 0.12 0.11 0.11 0.11 0.13 0.14 0.17 0.21 0.16 0.24
0.00 0.00 0.00 0.00 0.00 0.00 0.00 0.00 0.00 0.00 0.00 0.01 0.00 0.03 0.04 0.11 0.05 0.03 0.02 0.03 0.03 0.04 0.17 0.28 0.26 0.30 0.45 0.55 0.50 0.39 0.32 0.24 0.18 0.17 0.13 0.19 0.19 0.13 0.12 0.12 0.13 0.17 0.20 0.21 0.22 0.21 0.22 0.21 0.17 0.24 0.30 0.29 0.25 0.30
0.02 0.01 0.01 0.00 0.00 0.00 0.00 0.00 0.00 0.00 0.00 0.00 0.03 0.07 0.04 0.03 0.01 0.01 0.01 0.01 0.01 0.04 0.12 0.20 0.22 0.18 0.17 0.21 0.18 0.14 0.11 0.11 0.16 0.25 0.20 0.21 0.23 0.24 0.25 0.24 0.25 0.25 0.24 0.25 0.26 0.24 0.23 0.22 0.21 0.24 0.25 0.23 0.25 0.20
0.08 0.04 0.03 0.01 0.00 0.00 0.01 0.00 0.00 0.00 0.00 0.04 0.09 0.06 0.05 0.05 0.05 0.06 0.05 0.04 0.05 0.06 0.10 0.10 0.10 0.13 0.07 0.05 0.13 0.15 0.19 0.22 0.20 0.29 0.34 0.28 0.29 0.34 0.32 0.30 0.31 0.28 0.26 0.26 0.25 0.22 0.23 0.22 0.13 0.07 0.15 0.23 0.17 0.17
0.04 0.05 0.06 0.05 0.06 0.03 0.00 0.00 0.00 0.01 0.04 0.10 0.12 0.13 0.08 0.10 0.09 0.09 0.09 0.09 0.06 0.04 0.04 0.05 0.03 0.02 0.04 0.06 0.13 0.19 0.18 0.18 0.15 0.17 0.23 0.28 0.28 0.27 0.27 0.28 0.29 0.26 0.23 0.22 0.18 0.17 0.16 0.12 0.10 0.15 0.15 0.15 0.09 0.10
0.03 0.02 0.01 0.01 0.01 0.01 0.00 0.01 0.00 0.03 0.12 0.16 0.19 0.16 0.14 0.18 0.19 0.17 0.12 0.10 0.07 0.04 0.05 0.07 0.08 0.09 0.13 0.18 0.23 0.21 0.21 0.18 0.17 0.18 0.20 0.22 0.23 0.24 0.24 0.22 0.19 0.18 0.16 0.16 0.12 0.11 0.11 0.09 0.10 0.09 0.08 0.05 0.07 0.07
0.04 0.01 0.01 0.00 0.00 0.00 0.00 0.00 0.00 0.02 0.10 0.12 0.10 0.05 0.06 0.10 0.08 0.05 0.03 0.03 0.04 0.05 0.08 0.12 0.18 0.20 0.19 0.20 0.16 0.16 0.21 0.16 0.09 0.09 0.13 0.15 0.16 0.13 0.15 0.14 0.14 0.14 0.11 0.09 0.08 0.07 0.05 0.04 0.04 0.04 0.03 0.02 0.02 0.03
0.01 0.00 0.00 0.00 0.00 0.00 0.00 0.01 0.02 0.02 0.06 0.09 0.03 0.01 0.02 0.00 0.00 0.00 0.00 0.00 0.01 0.03 0.09 0.11 0.10 0.11 0.08 0.08 0.07 0.04 0.05 0.03 0.05 0.06 0.08 0.10 0.13 0.09 0.10 0.10 0.09 0.08 0.06 0.06 0.05 0.06 0.04 0.04 0.04 0.02 0.01 0.01 0.01 0.01
0.00 0.00 0.00 0.00 0.00 0.00 0.00 0.00 0.02 0.02 0.01 0.01 0.01 0.00 0.00 0.00 0.00 0.00 0.00 0.00 0.08 0.10 0.10 0.07 0.08 0.06 0.05 0.07 0.07 0.05 0.06 0.03 0.03 0.03 0.04 0.04 0.05 0.06 0.07 0.06 0.03 0.03 0.01 0.01 0.00 0.00 0.00 0.00 0.00 0.00 0.00 0.00 0.00 0.00
0.00 0.00 0.00 0.00 0.00 0.00 0.00 0.00 0.00 0.00 0.01 0.00 0.00 0.00 0.00 0.00 0.00 0.00 0.01 0.04 0.14 0.10 0.03 0.02 0.03 0.02 0.03 0.03 0.02 0.02 0.01 0.01 0.02 0.01 0.02 0.02 0.02 0.01 0.01 0.01 0.00 0.00 0.00 0.01 0.00 0.00 0.00 0.00 0.00 0.00 0.00 0.00 0.00 0.00
0.00 0.00 0.00 0.00 0.00 0.00 0.00 0.00 0.00 0.00 0.00 0.00 0.00 0.01 0.01 0.00 0.00 0.00 0.02 0.06 0.10 0.07 0.05 0.04 0.01 0.00 0.00 0.00 0.00 0.00 0.00 0.00 0.00 0.00 0.00 0.00 0.00 0.00 0.00 0.00 0.00 0.01 0.00 0.00 0.00 0.00 0.00 0.00 0.00 0.00 0.00 0.00 0.00 0.00
0.00 0.00 0.00 0.00 0.00 0.00 0.00 0.00 0.00 0.00 0.00 0.00 0.00 0.00 0.00 0.00 0.00 0.00 0.02 0.06 0.05 0.04 0.03 0.00 0.00 0.00 0.00 0.00 0.00 0.00 0.00 0.00 0.00 0.00 0.00 0.00 0.00 0.00 0.00 0.00 0.00 0.00 0.00 0.00 0.00 0.00 0.00 0.00 0.00 0.00 0.00 0.00 0.00 0.00
0.00 0.00 0.00 0.00 0.00 0.00 0.00 0.00 0.00 0.00 0.00 0.00 0.00 0.00 0.00 0.00 0.00 0.02 0.04 0.05 0.02 0.02 0.04 0.03 0.01 0.00 0.00 0.00 0.00 0.00 0.00 0.00 0.00 0.00 0.00 0.00 0.00 0.00 0.00 0.00 0.00 0.00 0.00 0.00 0.00 0.00 0.00 0.00 0.00 0.00 0.00 0.00 0.00 0.00
0.00 0.01 0.00 0.00 0.00 0.00 0.00 0.00 0.00 0.00 0.00 0.00 0.00 0.00 0.00 0.00 0.01 0.03 0.04 0.03 0.01 0.01 0.01 0.01 0.00 0.00 0.00 0.00 0.00 0.00 0.00 0.00 0.00 0.00 0.00 0.00 0.00 0.00 0.00 0.00 0.00 0.00 0.00 0.00 0.00 0.00 0.00 0.00 0.00 0.00 0.00 0.00 0.00 0.00
0.00 0.00 0.00 0.00 0.00 0.00 0.00 0.00 0.00 0.00 0.01 0.01 0.00 0.00 0.00 0.01 0.03 0.05 0.02 0.01 0.00 0.00 0.00 0.00 0.00 0.00 0.00 0.00 0.00 0.00 0.00 0.00 0.00 0.00 0.00 0.00 0.00 0.00 0.00 0.00 0.00 0.00 0.00 0.00 0.00 0.00 0.00 0.00 0.00 0.00 0.00 0.00 0.00 0.00
0.00 0.00 0.00 0.00 0.00 0.00 0.00 0.01 0.01 0.00 0.00 0.01 0.00 0.01 0.01 0.03 0.04 0.02 0.01 0.00 0.00 0.00 0.00 0.00 0.00 0.00 0.00 0.00 0.00 0.00 0.00 0.00 0.00 0.00 0.00 0.01 0.01 0.01 0.00 0.00 0.00 0.00 0.00 0.00 0.00 0.00 0.00 0.00 0.00 0.00 0.00 0.00 0.00 0.00
0.00 0.00 0.00 0.00 0.00 0.01 0.03 0.01 0.01 0.01 0.00 0.00 0.00 0.01 0.02 0.05 0.06 0.03 0.02 0.03 0.03 0.02 0.01 0.01 0.02 0.01 0.01 0.01 0.00 0.00 0.00 0.00 0.00 0.00 0.00 0.00 0.00 0.00 0.00 0.00 0.00 0.00 0.00 0.00 0.00 0.00 0.00 0.00 0.00 0.00 0.00 0.00 0.00 0.00
0.00 0.00 0.00 0.00 0.01 0.02 0.01 0.01 0.01 0.00 0.00 0.00 0.00 0.00 0.01 0.03 0.03 0.03 0.02 0.02 0.00 0.00 0.00 0.00 0.00 0.00 0.00 0.00 0.00 0.00 0.00 0.00 0.00 0.00 0.00 0.00 0.00 0.00 0.00 0.00 0.00 0.00 0.00 0.00 0.00 0.00 0.00 0.00 0.00 0.00 0.00 0.00 0.00 0.00
0.00 0.00 0.00 0.00 0.02 0.02 0.03 0.04 0.01 0.01 0.01 0.00 0.00 0.00 0.01 0.01 0.01 0.01 0.01 0.01 0.01 0.02 0.01 0.01 0.01 0.01 0.00 0.00 0.00 0.00 0.00 0.00 0.00 0.00 0.00 0.00 0.00 0.00 0.00 0.00 0.00 0.00 0.00 0.00 0.00 0.00 0.00 0.00 0.00 0.00 0.00 0.00 0.00 0.00
0.00 0.00 0.00 0.00 0.01 0.01 0.01 0.01 0.00 0.00 0.00 0.00 0.01 0.01 0.01 0.01 0.01 0.02 0.01 0.01 0.03 0.03 0.01 0.01 0.01 0.00 0.00 0.00 0.00 0.00 0.00 0.00 0.00 0.00 0.00 0.00 0.00 0.00 0.00 0.00 0.00 0.00 0.00 0.00 0.00 0.00 0.00 0.00 0.00 0.00 0.00 0.00 0.00 0.00

GFSWCAN_prec_precacc12_072.txt.gz
Total_Precipitation_Accumulation
0.24 0.25 0.19 0.14 0.10 0.08 0.06 0.06 0.07 0.08 0.07 0.05 0.05 0.07 0.17 0.23 0.23 0.46 0.50 0.24 0.75 0.91 0.19 0.04 0.02 0.02 0.01 0.01 0.00 0.00 0.03 0.01 0.04 0.04 0.03 0.01 0.00 0.00 0.01 0.00 0.01 0.04 0.12 0.22 0.26 0.21 0.09 0.02 0.06 0.08 0.03 0.01 0.00 0.00
0.31 0.22 0.16 0.12 0.10 0.10 0.10 0.11 0.10 0.11 0.12 0.13 0.09 0.07 0.13 0.21 0.35 0.52 0.58 0.18 0.37 0.66 0.32 0.06 0.02 0.01 0.01 0.02 0.02 0.01 0.01 0.00 0.02 0.07 0.04 0.01 0.00 0.00 0.00 0.00 0.00 0.02 0.00 0.01 0.05 0.04 0.01 0.03 0.08 0.09 0.08 0.06 0.04 0.01
0.17 0.08 0.07 0.05 0.03 0.02 0.03 0.04 0.08 0.19 0.18 0.16 0.17 0.14 0.15 0.19 0.35 0.79 0.43 0.14 0.54 0.91 0.44 0.18 0.04 0.00 0.01 0.03 0.03 0.04 0.01 0.02 0.02 0.03 0.08 0.05 0.02 0.00 0.00 0.00 0.00 0.00 0.00 0.00 0.00 0.00 0.00 0.01 0.02 0.01 0.00 0.01 0.01 0.01
0.06 0.05 0.04 0.02 0.02 0.01 0.02 0.02 0.02 0.15 0.22 0.20 0.18 0.20 0.20 0.20 0.32 0.76 0.52 0.12 0.35 0.59 0.38 0.18 0.08 0.03 0.01 0.02 0.02 0.02 0.02 0.04 0.10 0.18 0.12 0.14 0.06 0.01 0.00 0.01 0.00 0.00 0.00 0.02 0.02 0.00 0.01 0.01 0.01 0.06 0.04 0.01 0.00 0.01
0.03 0.03 0.03 0.04 0.02 0.01 0.02 0.03 0.03 0.12 0.14 0.20 0.15 0.17 0.28 0.25 0.36 0.60 0.37 0.09 0.10 0.36 0.25 0.18 0.13 0.07 0.03 0.05 0.03 0.04 0.03 0.04 0.09 0.30 0.35 0.08 0.05 0.04 0.03 0.04 0.01 0.01 0.02 0.04 0.05 0.02 0.02 0.01 0.00 0.00 0.00 0.01 0.01 0.01
0.03 0.03 0.02 0.03 0.04 0.03 0.04 0.05 0.09 0.10 0.12 0.15 0.10 0.18 0.32 0.36 0.61 0.75 0.87 0.49 0.11 0.32 0.54 0.27 0.17 0.07 0.04 0.06 0.08 0.04 0.02 0.03 0.10 0.19 0.32 0.26 0.11 0.17 0.09 0.02 0.01 0.02 0.04 0.02 0.02 0.01 0.02 0.03 0.03 0.01 0.01 0.01 0.00 0.00
0.03 0.03 0.02 0.02 0.03 0.03 0.04 0.04 0.05 0.07 0.10 0.12 0.17 0.31 0.50 0.58 0.59 0.34 0.36 0.23 0.13 0.29 0.59 0.52 0.21 0.12 0.05 0.06 0.13 0.15 0.08 0.07 0.08 0.14 0.20 0.12 0.08 0.27 0.36 0.23 0.07 0.03 0.03 0.05 0.04 0.03 0.03 0.02 0.02 0.01 0.01 0.01 0.01 0.01
0.05 0.06 0.03 0.03 0.04 0.05 0.06 0.06 0.08 0.13 0.20 0.29 0.42 0.60 0.70 0.59 0.34 0.15 0.02 0.02 0.05 0.22 0.36 0.53 0.46 0.17 0.11 0.06 0.05 0.04 0.02 0.03 0.08 0.09 0.14 0.24 0.15 0.22 0.31 0.12 0.03 0.03 0.03 0.04 0.05 0.06 0.04 0.03 0.03 0.03 0.02 0.03 0.03 0.03
0.05 0.08 0.08 0.07 0.10 0.13 0.10 0.10 0.14 0.21 0.29 0.37 0.51 0.63 0.75 0.50 0.28 0.09 0.06 0.10 0.08 0.16 0.14 0.26 0.37 0.20 0.09 0.03 0.02 0.02 0.02 0.04 0.06 0.09 0.10 0.25 0.30 0.35 0.18 0.05 0.02 0.00 0.00 0.00 0.01 0.02 0.04 0.05 0.04 0.02 0.02 0.02 0.01 0.01
0.07 0.06 0.09 0.14 0.16 0.20 0.24 0.24 0.24 0.27 0.30 0.32 0.37 0.52 0.85 0.42 0.11 0.11 0.35 0.40 0.26 0.16 0.06 0.14 0.10 0.04 0.10 0.12 0.04 0.09 0.07 0.02 0.04 0.03 0.11 0.16 0.44 0.31 0.10 0.04 0.01 0.00 0.00 0.00 0.00 0.00 0.01 0.02 0.02 0.01 0.01 0.01 0.01 0.01
0.06 0.05 0.07 0.11 0.15 0.19 0.21 0.23 0.20 0.15 0.12 0.09 0.16 0.45 0.40 0.13 0.07 0.22 0.35 0.20 0.12 0.02 0.02 0.05 0.01 0.01 0.01 0.06 0.05 0.09 0.09 0.05 0.03 0.04 0.08 0.18 0.22 0.20 0.16 0.10 0.03 0.01 0.01 0.01 0.00 0.00 0.00 0.00 0.01 0.01 0.00 0.00 0.00 0.00
0.06 0.02 0.01 0.01 0.02 0.02 0.02 0.02 0.01 0.01 0.02 0.01 0.06 0.12 0.10 0.06 0.08 0.07 0.04 0.02 0.02 0.06 0.04 0.02 0.01 0.01 0.04 0.05 0.06 0.06 0.28 0.30 0.10 0.11 0.14 0.21 0.17 0.05 0.02 0.03 0.03 0.02 0.01 0.02 0.02 0.03 0.03 0.04 0.05 0.05 0.05 0.05 0.05 0.04
0.04 0.03 0.01 0.00 0.00 0.00 0.00 0.00 0.00 0.00 0.01 0.02 0.02 0.01 0.02 0.02 0.01 0.01 0.02 0.03 0.11 0.31 0.08 0.08 0.03 0.05 0.16 0.24 0.16 0.14 0.30 0.67 0.31 0.17 0.14 0.11 0.10 0.05 0.04 0.02 0.02 0.02 0.02 0.02 0.03 0.03 0.02 0.02 0.03 0.03 0.04 0.06 0.06 0.07
0.00 0.00 0.00 0.00 0.00 0.00 0.00 0.00 0.00 0.00 0.00 0.00 0.00 0.00 0.01 0.01 0.05 0.07 0.06 0.06 0.09 0.08 0.10 0.32 0.11 0.17 0.31 0.47 0.42 0.42 0.42 0.53 0.52 0.19 0.08 0.09 0.11 0.09 0.08 0.06 0.05 0.06 0.07 0.07 0.09 0.09 0.10 0.10 0.12 0.13 0.16 0.20 0.15 0.21
0.00 0.00 0.00 0.00 0.00 0.00 0.00 0.00 0.00 0.00 0.00 0.00 0.00 0.02 0.03 0.10 0.06 0.04 0.04 0.05 0.05 0.05 0.18 0.29 0.26 0.27 0.44 0.50 0.43 0.36 0.32 0.22 0.16 0.14 0.12 0.17 0.17 0.12 0.12 0.12 0.11 0.12 0.14 0.15 0.16 0.15 0.17 0.17 0.12 0.18 0.23 0.22 0.18 0.21
0.04 0.01 0.00 0.00 0.00 0.00 0.00 0.00 0.00 0.00 0.00 0.00 0.02 0.03 0.02 0.02 0.01 0.01 0.01 0.02 0.02 0.05 0.15 0.19 0.14 0.12 0.19 0.21 0.18 0.13 0.11 0.10 0.14 0.22 0.18 0.19 0.21 0.21 0.22 0.22 0.22 0.22 0.21 0.21 0.22 0.20 0.19 0.18 0.16 0.19 0.19 0.18 0.19 0.15
0.12 0.04 0.03 0.01 0.00 0.00 0.00 0.00 0.00 0.00 0.00 0.02 0.04 0.03 0.02 0.03 0.03 0.05 0.03 0.02 0.03 0.04 0.08 0.10 0.09 0.13 0.09 0.07 0.14 0.15 0.16 0.19 0.19 0.29 0.34 0.28 0.29 0.32 0.30 0.28 0.29 0.27 0.25 0.24 0.23 0.19 0.20 0.19 0.12 0.07 0.13 0.20 0.14 0.13
0.08 0.05 0.06 0.05 0.06 0.03 0.00 0.00 0.00 0.00 0.01 0.04 0.06 0.07 0.03 0.04 0.04 0.05 0.04 0.03 0.02 0.01 0.02 0.04 0.04 0.03 0.04 0.06 0.11 0.15 0.15 0.13 0.13 0.14 0.18 0.22 0.24 0.25 0.25 0.26 0.27 0.26 0.24 0.22 0.19 0.16 0.15 0.12 0.09 0.14 0.13 0.13 0.08 0.09
0.05 0.02 0.01 0.01 0.01 0.01 0.00 0.00 0.00 0.02 0.08 0.09 0.09 0.05 0.04 0.06 0.07 0.06 0.03 0.02 0.00 0.00 0.00 0.00 0.00 0.03 0.06 0.08 0.12 0.13 0.14 0.11 0.13 0.15 0.16 0.18 0.19 0.20 0.20 0.20 0.18 0.17 0.14 0.15 0.12 0.11 0.10 0.08 0.08 0.07 0.06 0.04 0.05 0.05
0.02 0.00 0.00 0.00 0.00 0.00 0.00 0.00 0.00 0.01 0.08 0.10 0.08 0.04 0.04 0.06 0.04 0.01 0.01 0.01 0.00 0.01 0.03 0.04 0.09 0.13 0.12 0.16 0.12 0.12 0.15 0.10 0.07 0.07 0.10 0.12 0.13 0.11 0.12 0.12 0.12 0.12 0.10 0.09 0.07 0.06 0.04 0.03 0.03 0.02 0.01 0.01 0.01 0.02
0.00 0.00 0.00 0.00 0.00 0.00 0.00 0.00 0.02 0.02 0.05 0.08 0.03 0.01 0.01 0.00 0.00 0.00 0.00 0.00 0.01 0.02 0.07 0.09 0.08 0.11 0.07 0.07 0.05 0.03 0.04 0.02 0.04 0.04 0.05 0.08 0.10 0.07 0.08 0.08 0.08 0.07 0.06 0.06 0.05 0.04 0.03 0.03 0.02 0.00 0.00 0.00 0.00 0.00
0.00 0.00 0.00 0.00 0.00 0.00 0.00 0.00 0.02 0.01 0.00 0.01 0.01 0.00 0.00 0.00 0.00 0.00 0.00 0.01 0.07 0.09 0.09 0.07 0.07 0.06 0.04 0.06 0.06 0.04 0.05 0.03 0.03 0.03 0.04 0.04 0.05 0.06 0.06 0.05 0.03 0.03 0.01 0.01 0.00 0.00 0.00 0.00 0.00 0.00 0.00 0.00 0.00 0.00
0.00 0.00 0.00 0.00 0.00 0.00 0.00 0.00 0.00 0.01 0.00 0.00 0.00 0.00 0.00 0.00 0.00 0.00 0.01 0.04 0.14 0.09 0.02 0.01 0.02 0.01 0.03 0.04 0.02 0.02 0.01 0.01 0.02 0.02 0.02 0.02 0.02 0.01 0.01 0.01 0.00 0.00 0.00 0.01 0.00 0.00 0.00 0.00 0.00 0.00 0.00 0.00 0.00 0.00
0.00 0.00 0.00 0.00 0.00 0.00 0.00 0.00 0.00 0.00 0.00 0.00 0.00 0.00 0.00 0.00 0.00 0.00 0.01 0.05 0.10 0.07 0.05 0.02 0.00 0.00 0.00 0.00 0.00 0.00 0.00 0.00 0.00 0.00 0.00 0.00 0.00 0.00 0.00 0.00 0.00 0.01 0.00 0.00 0.00 0.00 0.00 0.00 0.00 0.00 0.00 0.00 0.00 0.00
0.00 0.00 0.00 0.00 0.00 0.00 0.00 0.00 0.00 0.00 0.00 0.00 0.00 0.01 0.00 0.00 0.00 0.00 0.01 0.05 0.04 0.03 0.02 0.00 0.00 0.00 0.00 0.00 0.00 0.00 0.00 0.00 0.00 0.00 0.00 0.00 0.00 0.00 0.00 0.00 0.00 0.00 0.00 0.00 0.00 0.00 0.00 0.00 0.00 0.00 0.00 0.00 0.00 0.00
0.00 0.00 0.00 0.00 0.00 0.00 0.00 0.00 0.00 0.00 0.00 0.00 0.00 0.00 0.00 0.00 0.00 0.01 0.03 0.03 0.01 0.02 0.02 0.02 0.00 0.00 0.00 0.00 0.00 0.00 0.00 0.00 0.00 0.00 0.00 0.00 0.00 0.00 0.00 0.00 0.00 0.00 0.00 0.00 0.00 0.00 0.00 0.00 0.00 0.00 0.00 0.00 0.00 0.00
0.00 0.00 0.00 0.00 0.00 0.00 0.00 0.00 0.00 0.00 0.00 0.00 0.00 0.00 0.00 0.00 0.01 0.02 0.04 0.02 0.00 0.00 0.00 0.00 0.00 0.00 0.00 0.00 0.00 0.00 0.00 0.00 0.00 0.00 0.00 0.00 0.00 0.00 0.00 0.00 0.00 0.00 0.00 0.00 0.00 0.00 0.00 0.00 0.00 0.00 0.00 0.00 0.00 0.00
0.00 0.00 0.00 0.00 0.00 0.00 0.00 0.00 0.00 0.00 0.01 0.00 0.00 0.00 0.00 0.01 0.02 0.04 0.01 0.01 0.00 0.00 0.00 0.00 0.00 0.00 0.00 0.00 0.00 0.00 0.00 0.00 0.00 0.00 0.00 0.00 0.00 0.00 0.00 0.00 0.00 0.00 0.00 0.00 0.00 0.00 0.00 0.00 0.00 0.00 0.00 0.00 0.00 0.00
0.00 0.00 0.00 0.00 0.00 0.00 0.01 0.01 0.01 0.00 0.01 0.00 0.00 0.01 0.01 0.03 0.03 0.02 0.01 0.00 0.00 0.00 0.00 0.00 0.00 0.00 0.00 0.00 0.00 0.00 0.00 0.00 0.00 0.00 0.00 0.01 0.01 0.01 0.00 0.00 0.00 0.00 0.00 0.00 0.00 0.00 0.00 0.00 0.00 0.00 0.00 0.00 0.00 0.00
0.00 0.00 0.00 0.00 0.00 0.01 0.03 0.01 0.02 0.01 0.00 0.00 0.00 0.02 0.02 0.05 0.07 0.02 0.01 0.02 0.02 0.01 0.00 0.00 0.01 0.01 0.01 0.00 0.00 0.00 0.00 0.00 0.00 0.00 0.00 0.00 0.00 0.00 0.00 0.00 0.00 0.00 0.00 0.00 0.00 0.00 0.00 0.00 0.00 0.01 0.00 0.00 0.00 0.00
0.00 0.00 0.00 0.00 0.01 0.01 0.01 0.00 0.00 0.00 0.00 0.00 0.00 0.00 0.01 0.03 0.03 0.03 0.02 0.01 0.00 0.00 0.00 0.00 0.00 0.00 0.00 0.00 0.00 0.00 0.00 0.00 0.00 0.00 0.00 0.00 0.00 0.00 0.00 0.00 0.00 0.00 0.00 0.00 0.00 0.00 0.00 0.00 0.00 0.00 0.00 0.00 0.00 0.00
0.00 0.00 0.00 0.00 0.02 0.01 0.02 0.03 0.01 0.00 0.00 0.00 0.00 0.00 0.00 0.01 0.01 0.01 0.02 0.01 0.01 0.01 0.00 0.00 0.00 0.00 0.00 0.00 0.00 0.00 0.00 0.00 0.00 0.00 0.00 0.00 0.00 0.00 0.00 0.00 0.00 0.00 0.00 0.00 0.00 0.00 0.00 0.00 0.00 0.00 0.00 0.00 0.00 0.00
0.00 0.00 0.00 0.00 0.01 0.01 0.01 0.01 0.00 0.00 0.00 0.00 0.01 0.01 0.01 0.01 0.01 0.01 0.01 0.01 0.02 0.02 0.00 0.00 0.00 0.00 0.00 0.00 0.00 0.00 0.00 0.00 0.00 0.00 0.00 0.00 0.00 0.00 0.00 0.00 0.00 0.00 0.00 0.00 0.00 0.00 0.00 0.00 0.00 0.00 0.00 0.00 0.00 0.00

GFSWCAN_prec_precacc12_075.txt.gz
Total_Precipitation_Accumulation
0.26 0.28 0.21 0.16 0.12 0.10 0.08 0.08 0.08 0.08 0.07 0.06 0.05 0.10 0.19 0.24 0.25 0.47 0.51 0.21 0.49 0.81 0.22 0.03 0.00 0.00 0.00 0.01 0.03 0.01 0.07 0.04 0.03 0.04 0.02 0.01 0.00 0.00 0.00 0.00 0.01 0.06 0.13 0.19 0.22 0.20 0.09 0.02 0.08 0.12 0.04 0.01 0.00 0.00
0.34 0.22 0.17 0.14 0.12 0.11 0.11 0.11 0.11 0.10 0.11 0.13 0.10 0.07 0.11 0.21 0.32 0.50 0.70 0.24 0.21 0.54 0.38 0.09 0.02 0.00 0.00 0.00 0.01 0.04 0.02 0.00 0.00 0.00 0.00 0.00 0.00 0.00 0.00 0.00 0.00 0.02 0.01 0.01 0.04 0.04 0.01 0.02 0.08 0.09 0.08 0.06 0.04 0.01
0.17 0.09 0.10 0.06 0.02 0.02 0.03 0.05 0.09 0.14 0.14 0.14 0.17 0.15 0.10 0.14 0.32 0.81 0.61 0.23 0.36 0.74 0.52 0.19 0.04 0.00 0.00 0.00 0.01 0.02 0.01 0.01 0.01 0.01 0.01 0.00 0.01 0.00 0.00 0.00 0.00 0.00 0.00 0.00 0.00 0.00 0.00 0.00 0.00 0.00 0.00 0.01 0.01 0.01
0.04 0.06 0.06 0.02 0.02 0.02 0.02 0.02 0.02 0.09 0.18 0.18 0.18 0.23 0.15 0.13 0.31 0.94 0.68 0.20 0.17 0.38 0.41 0.18 0.02 0.01 0.01 0.02 0.01 0.02 0.02 0.05 0.08 0.14 0.05 0.02 0.02 0.01 0.00 0.01 0.00 0.00 0.00 0.00 0.00 0.00 0.00 0.00 0.00 0.00 0.00 0.00 0.00 0.01
0.03 0.03 0.03 0.04 0.03 0.02 0.03 0.04 0.03 0.09 0.12 0.24 0.22 0.24 0.24 0.23 0.47 0.74 0.46 0.15 0.05 0.28 0.29 0.16 0.08 0.04 0.03 0.05 0.03 0.04 0.03 0.04 0.07 0.12 0.15 0.05 0.04 0.03 0.03 0.04 0.01 0.01 0.02 0.04 0.01 0.01 0.01 0.00 0.00 0.00 0.00 0.01 0.01 0.01
0.02 0.03 0.02 0.04 0.04 0.02 0.03 0.05 0.09 0.09 0.11 0.23 0.24 0.28 0.35 0.43 0.62 0.68 0.91 0.54 0.09 0.24 0.52 0.25 0.15 0.06 0.04 0.06 0.08 0.04 0.02 0.03 0.09 0.11 0.12 0.15 0.09 0.16 0.07 0.02 0.01 0.02 0.04 0.02 0.02 0.01 0.02 0.03 0.03 0.01 0.01 0.01 0.00 0.00
0.02 0.03 0.04 0.03 0.04 0.03 0.04 0.04 0.05 0.07 0.12 0.18 0.29 0.38 0.52 0.52 0.30 0.28 0.32 0.22 0.11 0.25 0.59 0.51 0.20 0.12 0.05 0.07 0.17 0.22 0.13 0.11 0.11 0.11 0.08 0.06 0.06 0.24 0.34 0.23 0.07 0.03 0.03 0.05 0.04 0.03 0.03 0.02 0.02 0.01 0.01 0.01 0.02 0.01
0.01 0.03 0.04 0.04 0.04 0.04 0.05 0.07 0.08 0.11 0.18 0.29 0.41 0.52 0.61 0.39 0.27 0.17 0.02 0.00 0.05 0.23 0.37 0.53 0.47 0.24 0.10 0.08 0.19 0.25 0.28 0.23 0.23 0.18 0.09 0.08 0.10 0.18 0.26 0.11 0.03 0.03 0.03 0.04 0.05 0.06 0.04 0.03 0.03 0.03 0.02 0.03 0.04 0.05
0.03 0.04 0.05 0.09 0.11 0.13 0.15 0.15 0.15 0.21 0.30 0.39 0.58 0.82 0.98 0.59 0.38 0.13 0.08 0.10 0.09 0.16 0.15 0.26 0.42 0.52 0.14 0.08 0.09 0.19 0.16 0.16 0.12 0.09 0.07 0.10 0.13 0.28 0.18 0.05 0.02 0.00 0.01 0.00 0.01 0.02 0.04 0.06 0.05 0.03 0.03 0.03 0.02 0.01
0.05 0.04 0.06 0.10 0.17 0.22 0.27 0.32 0.36 0.41 0.48 0.50 0.55 0.76 1.01 0.51 0.14 0.16 0.41 0.43 0.28 0.16 0.07 0.15 0.15 0.27 0.18 0.07 0.07 0.10 0.03 0.02 0.05 0.02 0.05 0.07 0.26 0.28 0.11 0.04 0.01 0.00 0.00 0.00 0.00 0.00 0.01 0.04 0.05 0.03 0.04 0.05 0.02 0.01
0.05 0.04 0.05 0.05 0.06 0.09 0.11 0.12 0.17 0.25 0.19 0.17 0.31 0.55 0.48 0.16 0.08 0.22 0.39 0.26 0.18 0.08 0.09 0.17 0.11 0.14 0.09 0.01 0.03 0.04 0.10 0.04 0.02 0.02 0.04 0.12 0.17 0.15 0.11 0.08 0.03 0.01 0.01 0.01 0.01 0.01 0.01 0.02 0.02 0.03 0.02 0.01 0.01 0.00
0.06 0.02 0.00 0.00 0.00 0.00 0.01 0.01 0.02 0.02 0.04 0.05 0.13 0.16 0.13 0.08 0.11 0.10 0.07 0.07 0.04 0.07 0.07 0.06 0.05 0.03 0.11 0.01 0.01 0.04 0.21 0.19 0.08 0.10 0.08 0.07 0.11 0.04 0.02 0.03 0.03 0.02 0.02 0.02 0.03 0.04 0.04 0.05 0.07 0.07 0.07 0.06 0.06 0.05
0.04 0.03 0.01 0.00 0.00 0.00 0.00 0.00 0.00 0.00 0.00 0.00 0.01 0.00 0.00 0.01 0.01 0.01 0.02 0.03 0.08 0.15 0.06 0.03 0.00 0.00 0.02 0.03 0.02 0.05 0.15 0.41 0.26 0.17 0.10 0.07 0.08 0.02 0.03 0.02 0.02 0.03 0.02 0.03 0.03 0.04 0.04 0.04 0.04 0.05 0.06 0.08 0.08 0.09
0.00 0.00 0.00 0.00 0.00 0.00 0.00 0.00 0.00 0.00 0.00 0.00 0.00 0.00 0.00 0.01 0.03 0.06 0.05 0.05 0.09 0.08 0.09 0.18 0.05 0.10 0.12 0.15 0.15 0.20 0.15 0.16 0.33 0.16 0.06 0.07 0.09 0.08 0.07 0.06 0.05 0.06 0.07 0.07 0.09 0.09 0.09 0.09 0.11 0.13 0.15 0.19 0.14 0.19
0.00 0.00 0.00 0.00 0.00 0.00 0.00 0.00 0.00 0.00 0.00 0.00 0.00 0.01 0.02 0.08 0.06 0.05 0.05 0.05 0.05 0.06 0.17 0.24 0.21 0.19 0.23 0.23 0.15 0.14 0.12 0.11 0.09 0.06 0.07 0.12 0.13 0.10 0.11 0.11 0.11 0.12 0.13 0.14 0.15 0.14 0.16 0.15 0.11 0.16 0.21 0.20 0.16 0.19
0.04 0.01 0.00 0.00 0.00 0.00 0.00 0.00 0.00 0.00 0.00 0.00 0.01 0.02 0.01 0.02 0.02 0.02 0.02 0.03 0.04 0.07 0.15 0.16 0.12 0.10 0.16 0.18 0.12 0.09 0.05 0.06 0.08 0.13 0.13 0.14 0.15 0.15 0.17 0.18 0.20 0.21 0.20 0.21 0.21 0.20 0.19 0.17 0.15 0.17 0.16 0.16 0.17 0.14
0.12 0.04 0.03 0.01 0.00 0.00 0.00 0.00 0.00 0.00 0.00 0.01 0.02 0.03 0.02 0.02 0.03 0.04 0.02 0.02 0.03 0.05 0.10 0.12 0.11 0.13 0.10 0.08 0.14 0.14 0.14 0.16 0.18 0.28 0.32 0.26 0.27 0.29 0.27 0.25 0.26 0.25 0.23 0.23 0.22 0.20 0.19 0.19 0.13 0.08 0.11 0.18 0.14 0.14
0.08 0.05 0.05 0.03 0.01 0.00 0.00 0.00 0.00 0.00 0.01 0.03 0.03 0.05 0.01 0.02 0.02 0.02 0.02 0.01 0.00 0.01 0.04 0.06 0.06 0.06 0.07 0.08 0.13 0.14 0.13 0.13 0.13 0.14 0.16 0.19 0.21 0.23 0.24 0.24 0.24 0.24 0.22 0.21 0.19 0.16 0.15 0.13 0.10 0.13 0.12 0.13 0.08 0.09
0.05 0.02 0.01 0.01 0.00 0.00 0.00 0.00 0.00 0.01 0.04 0.04 0.04 0.01 0.01 0.03 0.04 0.03 0.01 0.00 0.00 0.00 0.00 0.00 0.01 0.03 0.06 0.06 0.07 0.08 0.07 0.06 0.07 0.09 0.11 0.13 0.14 0.15 0.16 0.16 0.16 0.15 0.13 0.14 0.12 0.11 0.10 0.08 0.08 0.07 0.06 0.04 0.03 0.03
0.02 0.00 0.00 0.00 0.00 0.00 0.00 0.00 0.00 0.01 0.04 0.06 0.04 0.02 0.02 0.04 0.02 0.00 0.00 0.00 0.00 0.00 0.00 0.01 0.04 0.06 0.05 0.08 0.04 0.04 0.05 0.04 0.03 0.03 0.06 0.08 0.09 0.08 0.09 0.10 0.10 0.10 0.09 0.08 0.07 0.06 0.05 0.03 0.03 0.01 0.01 0.00 0.01 0.01
0.00 0.00 0.00 0.00 0.00 0.00 0.00 0.00 0.02 0.01 0.03 0.05 0.02 0.00 0.01 0.00 0.00 0.00 0.00 0.00 0.00 0.01 0.05 0.07 0.06 0.10 0.06 0.06 0.04 0.02 0.03 0.01 0.02 0.02 0.03 0.06 0.07 0.06 0.06 0.07 0.07 0.06 0.05 0.05 0.04 0.03 0.02 0.01 0.01 0.00 0.00 0.00 0.00 0.01
0.00 0.00 0.00 0.00 0.00 0.00 0.00 0.00 0.01 0.01 0.00 0.01 0.01 0.00 0.00 0.00 0.00 0.00 0.00 0.00 0.05 0.07 0.07 0.06 0.06 0.05 0.03 0.04 0.04 0.03 0.03 0.01 0.01 0.02 0.02 0.02 0.03 0.04 0.05 0.04 0.03 0.02 0.01 0.00 0.00 0.00 0.00 0.00 0.00 0.00 0.00 0.00 0.00 0.00
0.00 0.00 0.00 0.00 0.00 0.00 0.01 0.01 0.00 0.01 0.00 0.00 0.00 0.00 0.00 0.00 0.00 0.00 0.00 0.03 0.11 0.08 0.02 0.02 0.02 0.01 0.02 0.04 0.01 0.01 0.00 0.00 0.01 0.01 0.01 0.01 0.01 0.01 0.01 0.01 0.00 0.00 0.00 0.01 0.00 0.00 0.00 0.00 0.00 0.00 0.00 0.00 0.00 0.00
0.00 0.00 0.00 0.00 0.00 0.00 0.00 0.00 0.00 0.00 0.00 0.00 0.00 0.00 0.00 0.00 0.00 0.00 0.01 0.04 0.09 0.07 0.03 0.01 0.00 0.00 0.00 0.00 0.00 0.00 0.00 0.00 0.00 0.00 0.00 0.00 0.00 0.00 0.00 0.00 0.00 0.00 0.00 0.00 0.00 0.00 0.00 0.00 0.00 0.00 0.00 0.00 0.00 0.00
0.00 0.00 0.00 0.00 0.00 0.00 0.00 0.00 0.00 0.00 0.00 0.00 0.00 0.01 0.00 0.00 0.00 0.00 0.00 0.03 0.04 0.03 0.01 0.00 0.00 0.00 0.00 0.00 0.00 0.00 0.00 0.00 0.00 0.00 0.00 0.00 0.00 0.00 0.00 0.00 0.00 0.00 0.00 0.00 0.00 0.00 0.00 0.00 0.00 0.00 0.00 0.00 0.00 0.00
0.00 0.00 0.00 0.00 0.00 0.00 0.00 0.00 0.00 0.00 0.00 0.00 0.00 0.00 0.00 0.00 0.00 0.01 0.01 0.01 0.01 0.01 0.01 0.00 0.00 0.00 0.00 0.00 0.00 0.00 0.00 0.00 0.00 0.00 0.00 0.00 0.00 0.00 0.00 0.00 0.00 0.00 0.00 0.00 0.00 0.00 0.00 0.00 0.00 0.00 0.00 0.00 0.00 0.00
0.00 0.00 0.00 0.00 0.00 0.00 0.00 0.00 0.00 0.00 0.00 0.00 0.00 0.00 0.00 0.00 0.00 0.02 0.03 0.01 0.00 0.00 0.00 0.00 0.00 0.00 0.00 0.00 0.00 0.00 0.00 0.00 0.00 0.00 0.00 0.00 0.00 0.00 0.00 0.00 0.00 0.00 0.00 0.00 0.00 0.00 0.00 0.00 0.00 0.00 0.00 0.00 0.00 0.00
0.00 0.00 0.00 0.00 0.00 0.00 0.00 0.00 0.00 0.00 0.01 0.00 0.00 0.00 0.00 0.00 0.02 0.03 0.01 0.01 0.00 0.00 0.00 0.00 0.00 0.00 0.00 0.00 0.00 0.00 0.00 0.00 0.00 0.00 0.00 0.00 0.00 0.00 0.00 0.00 0.00 0.00 0.00 0.00 0.00 0.00 0.00 0.00 0.00 0.00 0.00 0.00 0.00 0.00
0.00 0.00 0.00 0.00 0.00 0.00 0.01 0.01 0.01 0.01 0.01 0.00 0.00 0.01 0.02 0.03 0.03 0.02 0.02 0.00 0.00 0.00 0.00 0.00 0.00 0.00 0.00 0.00 0.00 0.00 0.00 0.00 0.00 0.00 0.00 0.00 0.00 0.00 0.00 0.00 0.00 0.00 0.00 0.00 0.00 0.00 0.00 0.00 0.00 0.00 0.00 0.00 0.00 0.00
0.00 0.00 0.00 0.00 0.00 0.01 0.03 0.02 0.01 0.00 0.00 0.00 0.00 0.02 0.02 0.05 0.07 0.02 0.00 0.00 0.00 0.00 0.00 0.00 0.00 0.00 0.00 0.00 0.00 0.00 0.00 0.00 0.00 0.01 0.00 0.00 0.00 0.00 0.00 0.00 0.00 0.00 0.00 0.00 0.00 0.00 0.00 0.00 0.01 0.01 0.00 0.00 0.00 0.00
0.00 0.00 0.00 0.00 0.01 0.01 0.01 0.00 0.00 0.00 0.00 0.00 0.00 0.00 0.01 0.04 0.04 0.03 0.02 0.01 0.00 0.00 0.00 0.00 0.00 0.00 0.00 0.00 0.00 0.00 0.00 0.00 0.00 0.00 0.00 0.00 0.00 0.00 0.00 0.00 0.00 0.00 0.00 0.00 0.00 0.00 0.00 0.00 0.00 0.00 0.00 0.00 0.00 0.00
0.00 0.00 0.00 0.00 0.02 0.01 0.01 0.01 0.00 0.00 0.00 0.00 0.00 0.00 0.00 0.00 0.01 0.01 0.02 0.01 0.01 0.01 0.00 0.00 0.00 0.00 0.00 0.00 0.00 0.00 0.00 0.00 0.00 0.00 0.00 0.00 0.00 0.00 0.00 0.00 0.01 0.00 0.00 0.00 0.00 0.00 0.00 0.00 0.00 0.00 0.00 0.00 0.00 0.00
0.00 0.00 0.00 0.00 0.01 0.01 0.01 0.00 0.00 0.00 0.00 0.00 0.00 0.01 0.01 0.00 0.00 0.01 0.02 0.01 0.01 0.00 0.00 0.00 0.00 0.00 0.00 0.00 0.00 0.00 0.00 0.00 0.00 0.00 0.00 0.00 0.00 0.00 0.00 0.00 0.00 0.00 0.00 0.00 0.00 0.00 0.00 0.00 0.00 0.00 0.00 0.00 0.00 0.00

GFSWCAN_prec_precacc12_078.txt.gz
Total_Precipitation_Accumulation
0.22 0.25 0.20 0.15 0.11 0.09 0.09 0.09 0.08 0.09 0.09 0.07 0.08 0.12 0.19 0.24 0.30 0.55 0.59 0.25 0.38 0.44 0.16 0.04 0.01 0.02 0.02 0.03 0.07 0.05 0.17 0.13 0.10 0.09 0.04 0.02 0.01 0.00 0.00 0.01 0.02 0.04 0.03 0.04 0.04 0.07 0.07 0.02 0.09 0.12 0.04 0.01 0.00 0.00
0.23 0.14 0.11 0.12 0.12 0.12 0.11 0.11 0.10 0.09 0.09 0.11 0.10 0.08 0.11 0.22 0.29 0.49 0.69 0.29 0.24 0.38 0.27 0.10 0.02 0.01 0.01 0.01 0.06 0.09 0.04 0.00 0.00 0.02 0.01 0.00 0.00 0.00 0.00 0.00 0.00 0.01 0.01 0.02 0.01 0.02 0.01 0.03 0.08 0.09 0.08 0.06 0.04 0.01
0.10 0.06 0.10 0.07 0.03 0.03 0.03 0.05 0.08 0.13 0.14 0.15 0.16 0.12 0.10 0.17 0.35 0.57 0.56 0.26 0.42 0.70 0.32 0.17 0.07 0.00 0.00 0.01 0.02 0.04 0.01 0.01 0.00 0.01 0.01 0.01 0.00 0.00 0.00 0.00 0.00 0.00 0.00 0.01 0.01 0.00 0.00 0.00 0.00 0.00 0.00 0.01 0.01 0.00
0.05 0.06 0.06 0.02 0.02 0.02 0.02 0.02 0.02 0.06 0.14 0.18 0.24 0.20 0.13 0.16 0.36 0.84 0.63 0.24 0.21 0.32 0.22 0.09 0.02 0.06 0.03 0.02 0.01 0.00 0.01 0.04 0.06 0.07 0.04 0.02 0.01 0.00 0.00 0.00 0.00 0.00 0.00 0.00 0.00 0.00 0.00 0.00 0.00 0.00 0.00 0.00 0.00 0.00
0.03 0.03 0.02 0.02 0.03 0.02 0.03 0.04 0.02 0.02 0.07 0.22 0.30 0.27 0.25 0.25 0.56 0.83 0.49 0.19 0.06 0.08 0.15 0.05 0.04 0.01 0.03 0.05 0.03 0.02 0.05 0.06 0.08 0.13 0.14 0.05 0.02 0.03 0.02 0.02 0.01 0.01 0.01 0.03 0.01 0.01 0.00 0.00 0.00 0.00 0.00 0.01 0.01 0.01
0.02 0.03 0.02 0.03 0.03 0.03 0.03 0.03 0.02 0.02 0.07 0.26 0.34 0.35 0.34 0.51 0.76 0.71 1.00 0.72 0.15 0.08 0.26 0.18 0.12 0.04 0.02 0.05 0.07 0.04 0.06 0.09 0.13 0.14 0.13 0.14 0.07 0.13 0.05 0.01 0.00 0.01 0.03 0.01 0.01 0.01 0.02 0.03 0.03 0.01 0.01 0.01 0.00 0.00
0.02 0.03 0.04 0.03 0.04 0.04 0.04 0.03 0.02 0.04 0.11 0.29 0.40 0.41 0.52 0.66 0.32 0.26 0.29 0.30 0.13 0.08 0.38 0.47 0.17 0.10 0.05 0.07 0.17 0.24 0.19 0.20 0.18 0.19 0.09 0.05 0.05 0.18 0.28 0.21 0.07 0.02 0.03 0.03 0.03 0.03 0.03 0.02 0.02 0.01 0.01 0.01 0.02 0.01
0.01 0.03 0.05 0.05 0.04 0.06 0.07 0.07 0.07 0.10 0.22 0.41 0.50 0.49 0.58 0.39 0.34 0.19 0.02 0.00 0.01 0.18 0.35 0.52 0.46 0.24 0.10 0.09 0.21 0.27 0.32 0.29 0.31 0.25 0.12 0.03 0.07 0.15 0.22 0.09 0.03 0.02 0.03 0.04 0.05 0.06 0.04 0.03 0.03 0.03 0.02 0.03 0.04 0.05
0.02 0.03 0.05 0.10 0.12 0.13 0.15 0.16 0.19 0.30 0.45 0.57 0.64 0.78 0.87 0.55 0.41 0.13 0.07 0.08 0.09 0.17 0.15 0.26 0.42 0.56 0.16 0.10 0.10 0.24 0.23 0.30 0.24 0.15 0.12 0.12 0.08 0.13 0.11 0.03 0.01 0.01 0.01 0.00 0.01 0.02 0.04 0.05 0.05 0.03 0.03 0.03 0.02 0.02
0.03 0.02 0.03 0.07 0.14 0.22 0.33 0.50 0.58 0.62 0.67 0.61 0.61 0.78 1.01 0.50 0.13 0.17 0.44 0.45 0.29 0.17 0.07 0.16 0.15 0.28 0.20 0.12 0.12 0.23 0.17 0.16 0.15 0.13 0.08 0.12 0.10 0.08 0.03 0.01 0.01 0.01 0.00 0.01 0.01 0.00 0.01 0.04 0.05 0.04 0.06 0.08 0.08 0.07
0.03 0.02 0.02 0.01 0.02 0.07 0.15 0.23 0.30 0.33 0.25 0.24 0.38 0.63 0.58 0.20 0.09 0.24 0.42 0.28 0.19 0.10 0.10 0.18 0.11 0.16 0.14 0.05 0.05 0.13 0.14 0.09 0.05 0.07 0.09 0.09 0.07 0.06 0.02 0.01 0.02 0.01 0.01 0.01 0.01 0.01 0.01 0.02 0.03 0.05 0.05 0.06 0.06 0.08
0.07 0.02 0.00 0.00 0.00 0.01 0.02 0.04 0.04 0.03 0.05 0.06 0.17 0.25 0.17 0.10 0.13 0.11 0.09 0.09 0.06 0.09 0.09 0.10 0.11 0.11 0.20 0.04 0.03 0.06 0.13 0.18 0.08 0.09 0.08 0.06 0.09 0.03 0.01 0.01 0.01 0.01 0.01 0.01 0.02 0.02 0.03 0.04 0.07 0.08 0.09 0.11 0.12 0.12
0.05 0.04 0.01 0.00 0.00 0.00 0.00 0.00 0.01 0.00 0.00 0.00 0.01 0.00 0.00 0.01 0.01 0.01 0.02 0.03 0.04 0.05 0.05 0.06 0.06 0.11 0.09 0.02 0.02 0.01 0.11 0.40 0.21 0.15 0.09 0.05 0.06 0.02 0.01 0.01 0.02 0.02 0.02 0.02 0.03 0.04 0.04 0.04 0.04 0.05 0.06 0.10 0.10 0.11
0.00 0.01 0.00 0.00 0.00 0.00 0.00 0.00 0.00 0.00 0.00 0.00 0.00 0.00 0.00 0.00 0.02 0.04 0.04 0.04 0.07 0.06 0.05 0.03 0.01 0.06 0.04 0.04 0.07 0.10 0.11 0.13 0.19 0.12 0.04 0.05 0.07 0.06 0.05 0.05 0.04 0.05 0.05 0.06 0.07 0.07 0.07 0.07 0.09 0.10 0.12 0.15 0.11 0.15
0.00 0.00 0.00 0.00 0.00 0.00 0.00 0.00 0.00 0.00 0.00 0.00 0.00 0.01 0.02 0.06 0.06 0.06 0.05 0.05 0.05 0.06 0.11 0.13 0.12 0.12 0.12 0.11 0.07 0.06 0.07 0.04 0.02 0.03 0.05 0.08 0.10 0.09 0.10 0.10 0.09 0.09 0.09 0.10 0.11 0.10 0.12 0.13 0.10 0.14 0.18 0.17 0.14 0.16
0.04 0.01 0.00 0.00 0.00 0.00 0.00 0.00 0.00 0.00 0.00 0.00 0.01 0.02 0.01 0.02 0.03 0.03 0.03 0.04 0.05 0.08 0.13 0.13 0.09 0.06 0.07 0.05 0.02 0.02 0.02 0.02 0.03 0.04 0.07 0.08 0.08 0.10 0.12 0.13 0.15 0.16 0.16 0.16 0.16 0.16 0.16 0.16 0.14 0.16 0.16 0.16 0.17 0.14
0.11 0.04 0.02 0.00 0.00 0.00 0.00 0.00 0.00 0.00 0.00 0.00 0.01 0.03 0.02 0.02 0.03 0.03 0.02 0.02 0.03 0.05 0.10 0.12 0.11 0.10 0.08 0.05 0.07 0.06 0.07 0.08 0.12 0.17 0.21 0.19 0.17 0.18 0.17 0.16 0.18 0.18 0.17 0.18 0.18 0.18 0.18 0.19 0.16 0.11 0.12 0.19 0.15 0.15
0.07 0.05 0.03 0.00 0.00 0.00 0.00 0.00 0.00 0.00 0.00 0.01 0.02 0.04 0.01 0.01 0.01 0.01 0.00 0.00 0.00 0.01 0.04 0.06 0.06 0.07 0.08 0.09 0.13 0.14 0.14 0.13 0.13 0.13 0.14 0.15 0.15 0.17 0.18 0.19 0.20 0.20 0.19 0.20 0.18 0.17 0.16 0.16 0.13 0.14 0.13 0.14 0.09 0.09
0.05 0.01 0.00 0.00 0.00 0.00 0.00 0.00 0.00 0.00 0.02 0.02 0.02 0.00 0.00 0.01 0.01 0.01 0.00 0.00 0.00 0.00 0.00 0.00 0.01 0.03 0.05 0.05 0.05 0.05 0.05 0.04 0.04 0.06 0.06 0.08 0.09 0.10 0.12 0.13 0.13 0.13 0.12 0.13 0.12 0.11 0.11 0.10 0.09 0.07 0.05 0.03 0.02 0.02
0.02 0.00 0.00 0.00 0.00 0.00 0.00 0.00 0.00 0.00 0.01 0.02 0.01 0.00 0.00 0.01 0.00 0.00 0.00 0.00 0.00 0.00 0.00 0.01 0.03 0.04 0.03 0.05 0.02 0.01 0.01 0.02 0.01 0.02 0.04 0.05 0.07 0.06 0.07 0.08 0.08 0.09 0.08 0.08 0.07 0.06 0.05 0.03 0.02 0.01 0.00 0.00 0.00 0.00
0.00 0.00 0.00 0.00 0.00 0.00 0.00 0.00 0.01 0.00 0.01 0.02 0.01 0.00 0.00 0.00 0.00 0.00 0.00 0.00 0.00 0.01 0.03 0.05 0.05 0.08 0.05 0.04 0.02 0.01 0.02 0.01 0.02 0.01 0.02 0.04 0.05 0.04 0.05 0.06 0.06 0.06 0.05 0.05 0.04 0.02 0.01 0.00 0.00 0.00 0.00 0.00 0.00 0.01
0.00 0.00 0.00 0.00 0.00 0.00 0.00 0.00 0.01 0.00 0.00 0.01 0.01 0.00 0.00 0.00 0.00 0.00 0.00 0.00 0.03 0.05 0.06 0.05 0.04 0.03 0.02 0.02 0.03 0.02 0.02 0.01 0.01 0.01 0.01 0.02 0.03 0.03 0.04 0.04 0.02 0.02 0.01 0.00 0.00 0.00 0.00 0.00 0.00 0.00 0.00 0.00 0.00 0.00
0.00 0.00 0.00 0.00 0.00 0.00 0.01 0.01 0.00 0.01 0.00 0.00 0.00 0.00 0.00 0.00 0.00 0.00 0.00 0.02 0.06 0.06 0.02 0.01 0.02 0.01 0.02 0.03 0.01 0.01 0.00 0.00 0.01 0.01 0.01 0.01 0.01 0.01 0.00 0.00 0.00 0.00 0.00 0.00 0.00 0.00 0.00 0.00 0.00 0.00 0.00 0.00 0.00 0.00
0.00 0.00 0.00 0.00 0.00 0.00 0.00 0.00 0.00 0.00 0.00 0.00 0.00 0.00 0.00 0.00 0.00 0.00 0.01 0.02 0.06 0.04 0.01 0.00 0.00 0.00 0.00 0.00 0.00 0.00 0.00 0.00 0.00 0.00 0.00 0.00 0.00 0.00 0.00 0.00 0.00 0.00 0.00 0.00 0.00 0.00 0.00 0.00 0.00 0.00 0.00 0.00 0.00 0.00
0.00 0.00 0.00 0.00 0.00 0.00 0.00 0.00 0.00 0.00 0.00 0.00 0.00 0.01 0.00 0.00 0.00 0.00 0.00 0.02 0.03 0.02 0.01 0.00 0.00 0.00 0.00 0.00 0.00 0.00 0.00 0.00 0.00 0.00 0.00 0.00 0.00 0.00 0.00 0.00 0.00 0.00 0.00 0.00 0.00 0.00 0.00 0.00 0.00 0.00 0.00 0.00 0.00 0.00
0.00 0.00 0.00 0.00 0.00 0.00 0.00 0.00 0.00 0.00 0.00 0.00 0.00 0.00 0.00 0.00 0.00 0.01 0.00 0.00 0.01 0.00 0.00 0.00 0.00 0.00 0.00 0.00 0.00 0.00 0.00 0.00 0.00 0.00 0.00 0.00 0.00 0.00 0.00 0.00 0.00 0.00 0.00 0.00 0.00 0.00 0.00 0.00 0.00 0.00 0.00 0.00 0.00 0.00
0.00 0.00 0.00 0.00 0.00 0.00 0.00 0.00 0.00 0.00 0.00 0.00 0.00 0.00 0.00 0.00 0.00 0.01 0.02 0.01 0.00 0.00 0.00 0.00 0.00 0.00 0.00 0.00 0.00 0.00 0.00 0.00 0.00 0.00 0.00 0.00 0.00 0.00 0.00 0.00 0.00 0.00 0.00 0.00 0.00 0.00 0.00 0.00 0.00 0.00 0.00 0.00 0.00 0.00
0.00 0.00 0.00 0.00 0.00 0.00 0.00 0.00 0.00 0.00 0.01 0.00 0.00 0.00 0.00 0.00 0.01 0.02 0.01 0.01 0.00 0.00 0.00 0.00 0.00 0.00 0.00 0.00 0.00 0.00 0.00 0.00 0.00 0.00 0.00 0.00 0.00 0.00 0.00 0.00 0.00 0.00 0.00 0.00 0.00 0.00 0.00 0.00 0.00 0.00 0.00 0.00 0.00 0.00
0.00 0.00 0.00 0.00 0.00 0.00 0.01 0.01 0.01 0.01 0.01 0.00 0.00 0.01 0.01 0.02 0.03 0.02 0.02 0.00 0.00 0.00 0.00 0.00 0.00 0.00 0.00 0.00 0.00 0.00 0.00 0.00 0.00 0.00 0.00 0.00 0.00 0.00 0.00 0.00 0.00 0.00 0.00 0.00 0.00 0.00 0.00 0.00 0.00 0.00 0.00 0.00 0.00 0.00
0.00 0.00 0.00 0.00 0.00 0.01 0.02 0.02 0.01 0.01 0.00 0.00 0.00 0.02 0.02 0.05 0.07 0.02 0.00 0.00 0.00 0.00 0.00 0.00 0.00 0.00 0.00 0.00 0.00 0.00 0.00 0.00 0.00 0.00 0.00 0.00 0.00 0.00 0.00 0.00 0.00 0.00 0.00 0.00 0.00 0.00 0.00 0.00 0.01 0.01 0.00 0.00 0.00 0.00
0.00 0.00 0.00 0.00 0.01 0.01 0.01 0.00 0.00 0.00 0.00 0.00 0.00 0.00 0.02 0.04 0.04 0.03 0.02 0.01 0.00 0.00 0.00 0.00 0.00 0.00 0.00 0.00 0.00 0.00 0.00 0.00 0.00 0.00 0.00 0.00 0.00 0.00 0.00 0.00 0.00 0.00 0.00 0.00 0.00 0.00 0.00 0.00 0.00 0.00 0.00 0.00 0.00 0.00
0.00 0.00 0.00 0.00 0.01 0.01 0.01 0.00 0.00 0.00 0.00 0.00 0.00 0.00 0.00 0.00 0.00 0.01 0.02 0.01 0.00 0.00 0.00 0.00 0.00 0.00 0.00 0.00 0.00 0.00 0.00 0.00 0.00 0.00 0.00 0.00 0.00 0.00 0.00 0.00 0.00 0.00 0.00 0.00 0.00 0.00 0.00 0.00 0.00 0.00 0.00 0.00 0.00 0.00
0.00 0.00 0.00 0.00 0.00 0.00 0.01 0.00 0.00 0.00 0.00 0.00 0.00 0.01 0.01 0.00 0.00 0.01 0.02 0.01 0.01 0.00 0.00 0.00 0.00 0.00 0.00 0.00 0.00 0.00 0.00 0.00 0.00 0.00 0.00 0.00 0.00 0.00 0.00 0.00 0.00 0.00 0.00 0.00 0.00 0.00 0.00 0.00 0.00 0.00 0.00 0.00 0.00 0.00

GFSWCAN_prec_precacc12_084.txt.gz
Total_Precipitation_Accumulation
0.05 0.07 0.08 0.07 0.06 0.06 0.06 0.07 0.06 0.06 0.07 0.08 0.12 0.17 0.30 0.37 0.36 0.43 0.33 0.15 0.19 0.27 0.08 0.03 0.04 0.07 0.05 0.12 0.24 0.20 0.39 0.21 0.21 0.21 0.12 0.08 0.09 0.06 0.02 0.06 0.06 0.04 0.06 0.05 0.05 0.06 0.02 0.00 0.05 0.11 0.08 0.00 0.00 0.00
0.12 0.08 0.06 0.06 0.05 0.06 0.06 0.05 0.05 0.05 0.05 0.07 0.10 0.11 0.16 0.35 0.48 0.68 0.66 0.23 0.18 0.24 0.18 0.08 0.03 0.02 0.04 0.10 0.29 0.35 0.16 0.05 0.03 0.07 0.07 0.08 0.08 0.05 0.03 0.04 0.03 0.07 0.02 0.04 0.02 0.01 0.01 0.03 0.03 0.02 0.00 0.00 0.00 0.00
0.09 0.04 0.06 0.03 0.02 0.02 0.02 0.02 0.03 0.05 0.06 0.07 0.10 0.12 0.13 0.21 0.41 0.86 0.82 0.20 0.42 0.57 0.29 0.13 0.06 0.00 0.01 0.04 0.10 0.17 0.11 0.12 0.11 0.09 0.14 0.12 0.09 0.03 0.04 0.02 0.05 0.05 0.00 0.09 0.11 0.07 0.11 0.15 0.06 0.01 0.00 0.00 0.00 0.00
0.04 0.03 0.03 0.01 0.02 0.02 0.03 0.02 0.02 0.03 0.08 0.09 0.15 0.17 0.15 0.19 0.39 0.86 0.72 0.19 0.33 0.40 0.24 0.08 0.02 0.06 0.03 0.02 0.04 0.04 0.06 0.10 0.12 0.18 0.21 0.15 0.08 0.02 0.03 0.01 0.02 0.03 0.03 0.02 0.03 0.05 0.16 0.23 0.11 0.03 0.00 0.00 0.00 0.00
0.03 0.02 0.01 0.01 0.02 0.02 0.02 0.03 0.02 0.02 0.06 0.17 0.24 0.25 0.20 0.26 0.57 0.94 0.50 0.16 0.12 0.13 0.20 0.05 0.01 0.00 0.04 0.06 0.06 0.07 0.11 0.15 0.23 0.29 0.24 0.13 0.07 0.07 0.05 0.06 0.05 0.04 0.04 0.06 0.08 0.04 0.08 0.12 0.00 0.00 0.00 0.00 0.00 0.00
0.01 0.01 0.01 0.01 0.01 0.01 0.02 0.02 0.03 0.03 0.06 0.20 0.32 0.34 0.30 0.48 0.84 1.01 1.08 0.69 0.15 0.14 0.23 0.18 0.04 0.00 0.00 0.01 0.03 0.04 0.12 0.25 0.35 0.30 0.16 0.09 0.08 0.15 0.13 0.09 0.06 0.01 0.00 0.00 0.00 0.00 0.00 0.00 0.00 0.00 0.00 0.00 0.00 0.00
0.01 0.01 0.02 0.01 0.02 0.02 0.03 0.02 0.02 0.04 0.08 0.27 0.41 0.38 0.42 0.54 0.48 0.27 0.30 0.31 0.12 0.15 0.22 0.19 0.09 0.02 0.01 0.04 0.09 0.16 0.27 0.35 0.26 0.30 0.13 0.10 0.13 0.13 0.10 0.15 0.08 0.01 0.00 0.00 0.00 0.00 0.00 0.00 0.00 0.00 0.00 0.00 0.00 0.00
0.00 0.01 0.04 0.03 0.04 0.07 0.05 0.04 0.05 0.07 0.22 0.42 0.51 0.39 0.51 0.60 0.43 0.16 0.02 0.00 0.03 0.17 0.14 0.10 0.13 0.17 0.06 0.10 0.23 0.30 0.52 0.51 0.48 0.37 0.16 0.07 0.15 0.19 0.20 0.04 0.00 0.00 0.00 0.00 0.00 0.00 0.00 0.00 0.00 0.00 0.00 0.00 0.00 0.02
0.00 0.01 0.03 0.08 0.08 0.06 0.09 0.12 0.18 0.38 0.56 0.68 0.69 0.91 1.09 0.69 0.51 0.17 0.07 0.06 0.08 0.10 0.10 0.05 0.12 0.47 0.14 0.18 0.15 0.34 0.32 0.51 0.41 0.25 0.15 0.17 0.16 0.20 0.14 0.01 0.00 0.00 0.00 0.00 0.00 0.00 0.00 0.00 0.01 0.01 0.01 0.01 0.01 0.01
0.01 0.02 0.02 0.05 0.13 0.17 0.27 0.50 0.66 0.70 0.69 0.56 0.56 0.69 0.87 0.42 0.11 0.17 0.31 0.27 0.22 0.09 0.09 0.04 0.15 0.28 0.18 0.14 0.15 0.27 0.19 0.24 0.27 0.17 0.12 0.19 0.14 0.07 0.02 0.01 0.00 0.00 0.00 0.00 0.00 0.00 0.01 0.03 0.04 0.03 0.05 0.07 0.07 0.06
0.02 0.04 0.05 0.08 0.09 0.14 0.22 0.27 0.30 0.29 0.21 0.23 0.34 0.44 0.47 0.21 0.10 0.10 0.20 0.18 0.16 0.13 0.10 0.17 0.17 0.18 0.14 0.10 0.10 0.18 0.20 0.17 0.15 0.14 0.16 0.17 0.08 0.04 0.01 0.00 0.00 0.00 0.00 0.00 0.01 0.01 0.01 0.02 0.03 0.05 0.05 0.06 0.06 0.08
0.05 0.03 0.06 0.09 0.09 0.09 0.07 0.06 0.08 0.10 0.12 0.07 0.20 0.31 0.24 0.15 0.12 0.10 0.11 0.12 0.11 0.13 0.10 0.12 0.13 0.14 0.22 0.14 0.15 0.14 0.19 0.12 0.13 0.12 0.16 0.10 0.07 0.01 0.00 0.00 0.00 0.00 0.00 0.01 0.01 0.01 0.02 0.03 0.04 0.04 0.05 0.07 0.09 0.10
0.04 0.02 0.02 0.04 0.05 0.04 0.04 0.04 0.03 0.00 0.00 0.00 0.00 0.02 0.01 0.01 0.02 0.05 0.04 0.06 0.05 0.04 0.05 0.08 0.09 0.15 0.15 0.13 0.19 0.06 0.11 0.14 0.05 0.10 0.11 0.06 0.04 0.01 0.01 0.01 0.01 0.01 0.01 0.01 0.02 0.02 0.02 0.03 0.03 0.04 0.05 0.07 0.07 0.09
0.03 0.02 0.02 0.03 0.03 0.04 0.02 0.00 0.00 0.00 0.00 0.00 0.00 0.00 0.00 0.01 0.02 0.03 0.04 0.03 0.03 0.04 0.04 0.05 0.03 0.08 0.04 0.02 0.04 0.01 0.03 0.02 0.04 0.05 0.05 0.05 0.04 0.04 0.04 0.04 0.03 0.04 0.04 0.04 0.05 0.05 0.05 0.05 0.07 0.07 0.08 0.09 0.07 0.09
0.01 0.01 0.00 0.00 0.00 0.01 0.00 0.00 0.00 0.00 0.00 0.00 0.00 0.01 0.02 0.04 0.04 0.05 0.04 0.04 0.04 0.04 0.04 0.03 0.02 0.04 0.01 0.00 0.00 0.01 0.03 0.03 0.03 0.05 0.05 0.05 0.05 0.05 0.06 0.06 0.06 0.06 0.06 0.07 0.08 0.08 0.09 0.10 0.08 0.10 0.13 0.12 0.10 0.11
0.00 0.00 0.00 0.00 0.00 0.00 0.00 0.00 0.00 0.00 0.00 0.00 0.01 0.03 0.04 0.06 0.06 0.04 0.05 0.06 0.05 0.04 0.02 0.01 0.01 0.01 0.02 0.01 0.01 0.01 0.02 0.02 0.05 0.04 0.05 0.03 0.04 0.05 0.06 0.07 0.08 0.09 0.09 0.09 0.10 0.10 0.10 0.11 0.12 0.13 0.14 0.13 0.14 0.13
0.01 0.00 0.00 0.00 0.00 0.00 0.00 0.00 0.00 0.00 0.00 0.00 0.02 0.03 0.03 0.03 0.04 0.04 0.04 0.03 0.02 0.03 0.03 0.03 0.03 0.03 0.03 0.02 0.02 0.03 0.05 0.06 0.05 0.06 0.07 0.08 0.08 0.08 0.09 0.08 0.09 0.09 0.09 0.10 0.11 0.12 0.12 0.13 0.12 0.11 0.10 0.15 0.14 0.14
0.01 0.00 0.00 0.00 0.00 0.00 0.00 0.00 0.00 0.00 0.01 0.02 0.02 0.04 0.01 0.02 0.02 0.02 0.01 0.00 0.01 0.01 0.02 0.02 0.03 0.04 0.06 0.07 0.09 0.11 0.10 0.10 0.09 0.09 0.08 0.08 0.07 0.08 0.08 0.08 0.08 0.08 0.08 0.10 0.10 0.11 0.11 0.12 0.11 0.11 0.11 0.12 0.09 0.07
0.00 0.00 0.00 0.00 0.00 0.00 0.00 0.00 0.00 0.00 0.01 0.01 0.01 0.01 0.00 0.01 0.00 0.01 0.00 0.00 0.00 0.00 0.00 0.00 0.01 0.03 0.05 0.05 0.04 0.05 0.04 0.04 0.03 0.03 0.03 0.04 0.05 0.05 0.06 0.07 0.07 0.08 0.08 0.09 0.09 0.09 0.09 0.09 0.08 0.07 0.05 0.03 0.01 0.01
0.00 0.00 0.00 0.00 0.00 0.00 0.00 0.00 0.00 0.00 0.00 0.00 0.00 0.00 0.00 0.00 0.00 0.00 0.00 0.00 0.00 0.00 0.00 0.01 0.04 0.06 0.05 0.05 0.02 0.02 0.02 0.02 0.01 0.02 0.03 0.03 0.04 0.03 0.05 0.06 0.05 0.06 0.06 0.06 0.06 0.06 0.05 0.03 0.01 0.00 0.00 0.00 0.00 0.01
0.00 0.00 0.00 0.00 0.00 0.00 0.00 0.00 0.00 0.00 0.00 0.00 0.00 0.00 0.00 0.00 0.00 0.00 0.00 0.00 0.00 0.01 0.03 0.04 0.04 0.05 0.04 0.03 0.02 0.01 0.02 0.01 0.02 0.02 0.02 0.03 0.03 0.03 0.03 0.04 0.04 0.05 0.05 0.05 0.04 0.02 0.01 0.00 0.00 0.00 0.01 0.01 0.01 0.01
0.00 0.00 0.00 0.00 0.00 0.00 0.00 0.00 0.00 0.00 0.00 0.00 0.00 0.00 0.00 0.00 0.00 0.00 0.00 0.00 0.02 0.05 0.04 0.03 0.03 0.02 0.01 0.01 0.02 0.01 0.01 0.00 0.00 0.00 0.01 0.01 0.02 0.02 0.02 0.02 0.02 0.02 0.01 0.01 0.00 0.00 0.00 0.00 0.00 0.00 0.01 0.01 0.01 0.01
0.00 0.00 0.00 0.00 0.00 0.00 0.01 0.02 0.00 0.00 0.00 0.00 0.00 0.00 0.00 0.00 0.00 0.00 0.00 0.01 0.04 0.04 0.02 0.02 0.02 0.01 0.01 0.01 0.01 0.01 0.00 0.00 0.00 0.00 0.00 0.00 0.00 0.00 0.00 0.00 0.00 0.00 0.00 0.00 0.00 0.00 0.00 0.00 0.00 0.00 0.00 0.00 0.00 0.00
0.00 0.00 0.00 0.00 0.00 0.01 0.00 0.00 0.00 0.00 0.00 0.00 0.00 0.00 0.00 0.00 0.00 0.00 0.00 0.01 0.03 0.03 0.01 0.01 0.00 0.00 0.00 0.00 0.00 0.00 0.00 0.00 0.00 0.00 0.00 0.00 0.00 0.00 0.00 0.00 0.00 0.00 0.00 0.00 0.00 0.00 0.00 0.00 0.00 0.00 0.00 0.00 0.00 0.00
0.00 0.00 0.00 0.00 0.00 0.00 0.00 0.00 0.00 0.00 0.00 0.00 0.00 0.00 0.00 0.00 0.00 0.00 0.00 0.01 0.02 0.02 0.01 0.00 0.00 0.00 0.00 0.00 0.00 0.00 0.00 0.00 0.00 0.00 0.00 0.00 0.00 0.00 0.00 0.00 0.00 0.00 0.00 0.00 0.01 0.01 0.00 0.00 0.00 0.00 0.00 0.00 0.00 0.00
0.00 0.00 0.00 0.00 0.00 0.00 0.00 0.00 0.00 0.00 0.00 0.00 0.00 0.00 0.00 0.00 0.00 0.00 0.00 0.00 0.01 0.01 0.01 0.01 0.00 0.00 0.00 0.00 0.00 0.00 0.00 0.00 0.00 0.00 0.00 0.00 0.00 0.00 0.00 0.00 0.00 0.00 0.00 0.00 0.00 0.00 0.00 0.00 0.00 0.00 0.00 0.00 0.00 0.00
0.00 0.00 0.00 0.00 0.00 0.00 0.00 0.00 0.00 0.00 0.00 0.00 0.00 0.00 0.00 0.00 0.00 0.01 0.02 0.01 0.00 0.00 0.00 0.00 0.00 0.00 0.00 0.00 0.00 0.00 0.00 0.00 0.00 0.00 0.00 0.00 0.00 0.00 0.00 0.00 0.00 0.00 0.00 0.00 0.00 0.00 0.00 0.00 0.00 0.00 0.00 0.00 0.00 0.00
0.00 0.00 0.00 0.00 0.00 0.00 0.00 0.00 0.00 0.00 0.00 0.00 0.00 0.00 0.00 0.00 0.02 0.03 0.02 0.02 0.00 0.00 0.00 0.00 0.00 0.00 0.00 0.00 0.00 0.00 0.00 0.00 0.00 0.00 0.00 0.00 0.00 0.00 0.00 0.00 0.00 0.00 0.00 0.00 0.00 0.00 0.00 0.00 0.00 0.00 0.00 0.00 0.00 0.00
0.00 0.00 0.00 0.00 0.00 0.00 0.00 0.00 0.01 0.01 0.01 0.00 0.00 0.00 0.01 0.02 0.04 0.02 0.02 0.01 0.00 0.00 0.00 0.00 0.00 0.00 0.00 0.00 0.00 0.00 0.00 0.00 0.00 0.00 0.00 0.00 0.00 0.01 0.00 0.00 0.00 0.00 0.01 0.01 0.00 0.00 0.00 0.00 0.00 0.00 0.00 0.00 0.01 0.00
0.00 0.00 0.00 0.00 0.00 0.01 0.03 0.02 0.02 0.01 0.00 0.00 0.00 0.01 0.02 0.06 0.08 0.04 0.01 0.00 0.00 0.00 0.00 0.00 0.00 0.00 0.00 0.00 0.00 0.00 0.00 0.00 0.00 0.00 0.00 0.00 0.00 0.00 0.00 0.01 0.01 0.01 0.01 0.01 0.01 0.00 0.00 0.00 0.01 0.00 0.01 0.00 0.00 0.01
0.00 0.00 0.00 0.00 0.01 0.03 0.03 0.01 0.01 0.01 0.01 0.00 0.00 0.00 0.02 0.05 0.05 0.03 0.02 0.01 0.00 0.00 0.00 0.00 0.00 0.00 0.00 0.00 0.00 0.00 0.00 0.00 0.00 0.00 0.00 0.00 0.00 0.00 0.00 0.00 0.00 0.01 0.00 0.00 0.00 0.00 0.00 0.00 0.00 0.00 0.00 0.00 0.00 0.00
0.00 0.00 0.00 0.00 0.01 0.02 0.04 0.02 0.00 0.01 0.01 0.00 0.00 0.00 0.01 0.00 0.01 0.02 0.01 0.02 0.01 0.01 0.00 0.00 0.00 0.00 0.00 0.00 0.00 0.00 0.00 0.00 0.00 0.00 0.00 0.00 0.00 0.00 0.00 0.00 0.00 0.00 0.00 0.00 0.00 0.00 0.00 0.00 0.00 0.00 0.00 0.00 0.00 0.00
0.00 0.00 0.00 0.00 0.00 0.00 0.01 0.00 0.00 0.00 0.00 0.00 0.01 0.01 0.01 0.00 0.01 0.02 0.01 0.02 0.03 0.02 0.01 0.01 0.01 0.00 0.00 0.00 0.00 0.00 0.00 0.00 0.00 0.00 0.00 0.00 0.00 0.00 0.00 0.00 0.00 0.00 0.00 0.00 0.00 0.00 0.00 0.00 0.00 0.00 0.00 0.00 0.00 0.00

GFSWCAN_prec_precacc12_090.txt.gz
Total_Precipitation_Accumulation
0.02 0.02 0.02 0.02 0.03 0.03 0.02 0.02 0.02 0.03 0.03 0.05 0.08 0.10 0.21 0.30 0.24 0.29 0.12 0.03 0.06 0.07 0.01 0.01 0.02 0.05 0.05 0.13 0.22 0.21 0.33 0.24 0.26 0.15 0.10 0.07 0.09 0.10 0.06 0.13 0.12 0.07 0.07 0.05 0.04 0.07 0.03 0.00 0.02 0.08 0.10 0.01 0.00 0.00
0.03 0.03 0.03 0.02 0.02 0.02 0.03 0.03 0.03 0.03 0.05 0.07 0.07 0.08 0.12 0.27 0.43 0.54 0.38 0.05 0.07 0.09 0.03 0.02 0.01 0.01 0.04 0.12 0.30 0.33 0.25 0.34 0.18 0.18 0.10 0.11 0.15 0.12 0.08 0.10 0.20 0.23 0.03 0.03 0.02 0.03 0.08 0.11 0.08 0.08 0.02 0.00 0.01 0.01
0.03 0.02 0.02 0.02 0.02 0.02 0.02 0.02 0.02 0.01 0.02 0.03 0.05 0.08 0.12 0.13 0.28 0.82 0.67 0.07 0.30 0.28 0.10 0.02 0.01 0.00 0.00 0.03 0.11 0.21 0.26 0.27 0.32 0.31 0.21 0.19 0.15 0.09 0.09 0.11 0.24 0.40 0.20 0.13 0.17 0.17 0.17 0.35 0.24 0.04 0.03 0.04 0.02 0.00
0.02 0.02 0.03 0.04 0.04 0.04 0.04 0.04 0.03 0.03 0.03 0.03 0.03 0.06 0.11 0.15 0.17 0.55 0.82 0.23 0.31 0.26 0.10 0.01 0.00 0.00 0.01 0.01 0.04 0.06 0.09 0.12 0.18 0.32 0.29 0.19 0.12 0.06 0.07 0.10 0.21 0.17 0.32 0.23 0.26 0.32 0.31 0.50 0.48 0.23 0.06 0.01 0.02 0.01
0.02 0.02 0.02 0.02 0.02 0.02 0.01 0.01 0.01 0.02 0.02 0.02 0.04 0.10 0.13 0.13 0.22 0.62 0.52 0.13 0.13 0.10 0.10 0.03 0.01 0.00 0.02 0.05 0.05 0.07 0.09 0.13 0.20 0.24 0.23 0.16 0.11 0.12 0.10 0.20 0.24 0.08 0.26 0.51 0.71 0.46 0.42 0.45 0.18 0.11 0.09 0.02 0.00 0.00
0.01 0.01 0.01 0.01 0.01 0.01 0.01 0.02 0.03 0.03 0.04 0.05 0.06 0.15 0.17 0.20 0.54 1.25 1.28 0.67 0.11 0.17 0.27 0.19 0.05 0.01 0.00 0.01 0.03 0.04 0.10 0.21 0.27 0.24 0.17 0.14 0.16 0.45 0.36 0.23 0.18 0.03 0.04 0.12 0.30 0.40 0.25 0.16 0.06 0.01 0.00 0.00 0.00 0.00
0.01 0.01 0.01 0.00 0.01 0.02 0.03 0.03 0.05 0.07 0.09 0.12 0.16 0.21 0.26 0.35 0.49 0.37 0.35 0.24 0.09 0.31 0.44 0.23 0.11 0.06 0.02 0.03 0.04 0.07 0.19 0.25 0.16 0.16 0.10 0.10 0.16 0.21 0.28 0.31 0.25 0.14 0.10 0.13 0.09 0.06 0.02 0.00 0.00 0.00 0.00 0.00 0.00 0.00
0.01 0.01 0.01 0.01 0.03 0.04 0.01 0.01 0.03 0.09 0.18 0.23 0.30 0.27 0.39 0.47 0.36 0.27 0.07 0.00 0.09 0.49 0.26 0.13 0.20 0.29 0.09 0.08 0.09 0.10 0.26 0.29 0.26 0.17 0.05 0.06 0.18 0.21 0.29 0.08 0.01 0.07 0.07 0.05 0.03 0.02 0.01 0.00 0.00 0.00 0.00 0.00 0.00 0.00
0.02 0.01 0.00 0.01 0.03 0.02 0.01 0.03 0.12 0.28 0.43 0.51 0.53 0.78 1.00 0.68 0.59 0.31 0.10 0.06 0.10 0.19 0.13 0.06 0.11 0.31 0.17 0.16 0.10 0.15 0.12 0.29 0.26 0.13 0.04 0.14 0.19 0.32 0.20 0.02 0.00 0.00 0.00 0.00 0.00 0.00 0.00 0.00 0.00 0.00 0.00 0.00 0.00 0.01
0.02 0.02 0.02 0.02 0.04 0.06 0.11 0.17 0.27 0.33 0.45 0.45 0.53 0.64 0.86 0.41 0.16 0.30 0.48 0.44 0.31 0.11 0.10 0.05 0.13 0.34 0.32 0.19 0.09 0.13 0.12 0.10 0.18 0.07 0.11 0.15 0.13 0.09 0.02 0.00 0.00 0.00 0.00 0.00 0.00 0.00 0.00 0.00 0.01 0.01 0.00 0.00 0.01 0.01
0.07 0.08 0.07 0.10 0.11 0.13 0.16 0.17 0.16 0.15 0.18 0.25 0.34 0.42 0.48 0.30 0.22 0.22 0.28 0.15 0.10 0.06 0.04 0.08 0.11 0.11 0.31 0.20 0.10 0.08 0.11 0.15 0.13 0.10 0.19 0.24 0.09 0.06 0.00 0.00 0.00 0.00 0.00 0.00 0.00 0.00 0.01 0.01 0.02 0.02 0.01 0.00 0.00 0.01
0.12 0.07 0.11 0.15 0.16 0.17 0.17 0.16 0.17 0.23 0.20 0.07 0.20 0.50 0.50 0.26 0.14 0.12 0.08 0.08 0.07 0.06 0.02 0.05 0.10 0.10 0.10 0.17 0.20 0.14 0.15 0.11 0.16 0.17 0.24 0.14 0.09 0.02 0.00 0.00 0.00 0.00 0.00 0.00 0.00 0.00 0.00 0.01 0.02 0.01 0.01 0.02 0.02 0.03
0.12 0.06 0.07 0.10 0.13 0.13 0.12 0.14 0.09 0.02 0.02 0.01 0.01 0.08 0.07 0.06 0.10 0.09 0.05 0.09 0.05 0.03 0.01 0.02 0.09 0.08 0.06 0.14 0.26 0.07 0.13 0.14 0.06 0.16 0.14 0.07 0.04 0.01 0.00 0.00 0.00 0.00 0.00 0.00 0.00 0.00 0.01 0.01 0.01 0.02 0.03 0.03 0.03 0.04
0.07 0.04 0.05 0.06 0.06 0.05 0.04 0.01 0.00 0.00 0.00 0.01 0.01 0.00 0.01 0.01 0.02 0.04 0.04 0.02 0.01 0.02 0.01 0.03 0.02 0.05 0.03 0.05 0.13 0.02 0.02 0.04 0.14 0.06 0.05 0.07 0.02 0.02 0.01 0.01 0.01 0.01 0.01 0.01 0.01 0.01 0.02 0.02 0.03 0.03 0.04 0.05 0.04 0.05
0.04 0.03 0.03 0.05 0.02 0.01 0.00 0.00 0.00 0.00 0.00 0.00 0.00 0.01 0.02 0.04 0.06 0.06 0.03 0.02 0.02 0.02 0.02 0.03 0.02 0.04 0.01 0.00 0.00 0.01 0.01 0.02 0.03 0.06 0.06 0.04 0.02 0.01 0.02 0.02 0.02 0.02 0.02 0.02 0.02 0.02 0.03 0.04 0.04 0.05 0.06 0.06 0.06 0.06
0.01 0.01 0.02 0.03 0.00 0.00 0.00 0.00 0.00 0.00 0.00 0.00 0.02 0.05 0.07 0.07 0.07 0.05 0.05 0.06 0.05 0.05 0.01 0.01 0.01 0.03 0.03 0.00 0.00 0.01 0.03 0.03 0.06 0.05 0.04 0.02 0.01 0.01 0.01 0.01 0.02 0.02 0.02 0.02 0.03 0.03 0.03 0.04 0.05 0.06 0.06 0.06 0.07 0.07
0.03 0.01 0.00 0.00 0.00 0.00 0.00 0.00 0.00 0.00 0.00 0.01 0.02 0.04 0.04 0.03 0.05 0.06 0.05 0.05 0.03 0.02 0.00 0.00 0.00 0.01 0.01 0.00 0.01 0.01 0.04 0.05 0.04 0.04 0.02 0.01 0.01 0.01 0.01 0.02 0.02 0.02 0.02 0.03 0.03 0.04 0.04 0.04 0.04 0.05 0.05 0.07 0.06 0.06
0.02 0.00 0.00 0.00 0.00 0.00 0.00 0.00 0.00 0.00 0.01 0.03 0.03 0.05 0.01 0.03 0.04 0.04 0.01 0.00 0.00 0.00 0.00 0.00 0.00 0.00 0.01 0.02 0.03 0.05 0.06 0.06 0.04 0.03 0.03 0.02 0.02 0.02 0.01 0.02 0.02 0.02 0.02 0.03 0.04 0.04 0.05 0.05 0.04 0.04 0.05 0.05 0.04 0.03
0.00 0.00 0.00 0.00 0.00 0.00 0.00 0.00 0.00 0.00 0.02 0.03 0.03 0.02 0.01 0.01 0.01 0.01 0.00 0.00 0.00 0.00 0.00 0.00 0.00 0.02 0.04 0.03 0.02 0.03 0.02 0.02 0.02 0.01 0.01 0.01 0.01 0.01 0.01 0.01 0.01 0.02 0.03 0.03 0.03 0.03 0.05 0.06 0.06 0.05 0.05 0.03 0.01 0.01
0.00 0.00 0.00 0.00 0.00 0.00 0.00 0.00 0.00 0.00 0.01 0.01 0.01 0.01 0.01 0.01 0.01 0.00 0.00 0.00 0.00 0.00 0.00 0.02 0.05 0.08 0.06 0.05 0.02 0.02 0.01 0.01 0.01 0.01 0.02 0.02 0.02 0.02 0.04 0.04 0.02 0.02 0.02 0.03 0.03 0.05 0.04 0.02 0.01 0.01 0.01 0.01 0.01 0.01
0.00 0.00 0.00 0.00 0.00 0.00 0.00 0.00 0.00 0.00 0.00 0.00 0.00 0.00 0.00 0.00 0.00 0.00 0.00 0.00 0.00 0.01 0.03 0.04 0.05 0.05 0.03 0.02 0.01 0.01 0.03 0.03 0.04 0.02 0.01 0.02 0.02 0.01 0.01 0.02 0.03 0.05 0.04 0.04 0.02 0.02 0.01 0.00 0.00 0.00 0.00 0.01 0.00 0.00
0.00 0.00 0.00 0.00 0.00 0.00 0.00 0.00 0.00 0.00 0.00 0.00 0.00 0.00 0.01 0.01 0.00 0.00 0.00 0.00 0.02 0.05 0.03 0.02 0.02 0.01 0.00 0.01 0.01 0.00 0.00 0.00 0.00 0.00 0.00 0.01 0.02 0.01 0.01 0.01 0.01 0.01 0.01 0.01 0.00 0.00 0.00 0.00 0.00 0.00 0.00 0.01 0.01 0.01
0.00 0.00 0.00 0.00 0.00 0.00 0.01 0.01 0.00 0.00 0.00 0.00 0.00 0.00 0.00 0.00 0.00 0.00 0.00 0.01 0.04 0.04 0.01 0.01 0.01 0.00 0.00 0.00 0.00 0.00 0.00 0.00 0.00 0.00 0.00 0.00 0.00 0.00 0.00 0.00 0.00 0.00 0.00 0.00 0.00 0.00 0.00 0.00 0.00 0.00 0.00 0.00 0.00 0.00
0.00 0.00 0.00 0.00 0.00 0.01 0.00 0.00 0.00 0.00 0.00 0.00 0.00 0.00 0.00 0.00 0.00 0.00 0.00 0.01 0.02 0.01 0.00 0.00 0.00 0.00 0.00 0.00 0.00 0.00 0.00 0.00 0.00 0.00 0.00 0.00 0.00 0.00 0.00 0.00 0.00 0.00 0.00 0.00 0.00 0.00 0.00 0.00 0.00 0.00 0.00 0.00 0.01 0.01
0.00 0.00 0.00 0.00 0.00 0.00 0.00 0.00 0.00 0.00 0.00 0.00 0.00 0.00 0.00 0.00 0.00 0.00 0.00 0.01 0.01 0.01 0.00 0.00 0.00 0.00 0.00 0.00 0.00 0.00 0.00 0.00 0.00 0.00 0.00 0.00 0.00 0.00 0.00 0.00 0.00 0.00 0.00 0.01 0.01 0.00 0.00 0.00 0.00 0.00 0.00 0.00 0.00 0.00
0.00 0.00 0.00 0.00 0.00 0.00 0.00 0.00 0.00 0.00 0.00 0.00 0.00 0.00 0.00 0.00 0.00 0.00 0.00 0.01 0.01 0.01 0.01 0.01 0.01 0.00 0.00 0.00 0.00 0.00 0.00 0.00 0.00 0.00 0.00 0.00 0.00 0.00 0.00 0.00 0.01 0.01 0.00 0.00 0.00 0.01 0.00 0.00 0.00 0.00 0.00 0.00 0.00 0.00
0.00 0.00 0.00 0.00 0.00 0.00 0.00 0.00 0.00 0.00 0.00 0.00 0.00 0.00 0.00 0.00 0.00 0.03 0.04 0.01 0.00 0.01 0.00 0.00 0.00 0.00 0.00 0.00 0.00 0.00 0.00 0.00 0.00 0.00 0.00 0.00 0.00 0.00 0.00 0.00 0.01 0.01 0.00 0.00 0.00 0.00 0.01 0.00 0.00 0.00 0.00 0.00 0.00 0.00
0.00 0.00 0.00 0.00 0.00 0.00 0.00 0.00 0.00 0.00 0.00 0.00 0.00 0.00 0.00 0.00 0.03 0.05 0.05 0.03 0.00 0.00 0.00 0.00 0.00 0.00 0.00 0.00 0.00 0.00 0.00 0.00 0.00 0.00 0.00 0.00 0.00 0.00 0.00 0.00 0.00 0.00 0.00 0.00 0.00 0.00 0.00 0.00 0.00 0.00 0.00 0.00 0.00 0.00
0.00 0.00 0.00 0.00 0.00 0.00 0.00 0.00 0.00 0.00 0.00 0.00 0.00 0.00 0.01 0.04 0.06 0.05 0.02 0.00 0.00 0.00 0.00 0.00 0.00 0.00 0.00 0.00 0.00 0.00 0.00 0.00 0.00 0.00 0.00 0.01 0.01 0.01 0.00 0.00 0.00 0.00 0.01 0.01 0.00 0.00 0.00 0.00 0.00 0.00 0.00 0.00 0.00 0.01
0.00 0.00 0.00 0.00 0.00 0.01 0.03 0.02 0.02 0.01 0.00 0.00 0.00 0.02 0.04 0.10 0.11 0.03 0.01 0.01 0.01 0.00 0.00 0.00 0.00 0.00 0.00 0.00 0.00 0.00 0.00 0.00 0.00 0.00 0.00 0.01 0.01 0.01 0.00 0.00 0.01 0.00 0.00 0.01 0.01 0.01 0.00 0.00 0.00 0.00 0.01 0.01 0.00 0.01
0.00 0.00 0.00 0.00 0.01 0.03 0.04 0.03 0.02 0.01 0.01 0.00 0.00 0.00 0.03 0.07 0.07 0.08 0.05 0.02 0.01 0.00 0.00 0.01 0.00 0.00 0.00 0.00 0.00 0.00 0.01 0.00 0.00 0.00 0.00 0.00 0.00 0.00 0.00 0.00 0.00 0.00 0.00 0.00 0.00 0.00 0.00 0.00 0.00 0.00 0.00 0.00 0.00 0.00
0.00 0.00 0.00 0.00 0.02 0.03 0.06 0.03 0.01 0.02 0.01 0.01 0.01 0.01 0.01 0.00 0.01 0.03 0.04 0.03 0.01 0.01 0.00 0.00 0.01 0.01 0.00 0.00 0.00 0.00 0.00 0.00 0.00 0.00 0.00 0.00 0.00 0.00 0.00 0.00 0.00 0.00 0.00 0.00 0.00 0.00 0.00 0.00 0.00 0.00 0.00 0.00 0.00 0.00
0.00 0.00 0.00 0.00 0.00 0.00 0.02 0.02 0.00 0.01 0.01 0.01 0.02 0.03 0.02 0.00 0.01 0.02 0.01 0.03 0.06 0.02 0.02 0.02 0.01 0.00 0.00 0.00 0.00 0.00 0.00 0.00 0.00 0.00 0.00 0.00 0.00 0.00 0.00 0.00 0.00 0.00 0.00 0.00 0.00 0.00 0.00 0.00 0.00 0.00 0.00 0.00 0.00 0.00

GFSWCAN_prec_precacc12_096.txt.gz
Total_Precipitation_Accumulation
0.03 0.02 0.02 0.03 0.02 0.03 0.03 0.02 0.02 0.02 0.03 0.03 0.05 0.08 0.10 0.14 0.13 0.16 0.09 0.00 0.02 0.01 0.00 0.00 0.00 0.00 0.02 0.04 0.06 0.06 0.10 0.16 0.16 0.03 0.02 0.01 0.01 0.04 0.04 0.07 0.08 0.05 0.04 0.02 0.02 0.05 0.01 0.00 0.01 0.03 0.04 0.00 0.00 0.01
0.03 0.03 0.03 0.03 0.03 0.02 0.02 0.01 0.01 0.02 0.03 0.06 0.06 0.07 0.11 0.17 0.22 0.26 0.22 0.01 0.02 0.03 0.00 0.00 0.00 0.00 0.00 0.03 0.06 0.08 0.13 0.31 0.21 0.23 0.13 0.06 0.07 0.07 0.06 0.07 0.17 0.18 0.04 0.03 0.01 0.02 0.08 0.09 0.05 0.06 0.02 0.01 0.01 0.02
0.03 0.03 0.03 0.04 0.03 0.03 0.02 0.02 0.02 0.02 0.03 0.06 0.07 0.08 0.10 0.13 0.27 0.50 0.33 0.03 0.29 0.22 0.03 0.00 0.00 0.00 0.00 0.00 0.03 0.08 0.17 0.29 0.40 0.38 0.33 0.19 0.07 0.06 0.05 0.10 0.22 0.50 0.45 0.27 0.26 0.25 0.09 0.22 0.19 0.05 0.05 0.13 0.13 0.07
0.03 0.03 0.04 0.04 0.04 0.04 0.04 0.04 0.04 0.04 0.05 0.07 0.08 0.07 0.07 0.11 0.16 0.40 0.66 0.21 0.19 0.17 0.03 0.00 0.00 0.00 0.00 0.00 0.00 0.02 0.04 0.06 0.15 0.25 0.14 0.08 0.05 0.05 0.05 0.13 0.24 0.24 0.52 0.65 0.72 0.57 0.29 0.36 0.47 0.35 0.26 0.09 0.10 0.14
0.03 0.03 0.03 0.03 0.03 0.02 0.01 0.01 0.01 0.02 0.03 0.03 0.05 0.08 0.07 0.09 0.16 0.30 0.42 0.16 0.08 0.08 0.05 0.01 0.00 0.00 0.00 0.00 0.00 0.00 0.01 0.01 0.03 0.04 0.05 0.06 0.06 0.08 0.07 0.23 0.25 0.12 0.36 0.67 1.06 0.84 0.61 0.55 0.35 0.25 0.22 0.18 0.08 0.03
0.02 0.02 0.02 0.02 0.01 0.00 0.00 0.00 0.01 0.02 0.03 0.02 0.03 0.06 0.07 0.10 0.23 0.81 1.34 0.65 0.10 0.20 0.23 0.05 0.02 0.01 0.00 0.00 0.00 0.00 0.02 0.04 0.02 0.03 0.05 0.08 0.10 0.35 0.36 0.37 0.23 0.13 0.14 0.26 0.50 0.81 0.73 0.52 0.29 0.13 0.07 0.02 0.00 0.00
0.02 0.02 0.02 0.01 0.01 0.01 0.01 0.02 0.03 0.05 0.08 0.08 0.09 0.11 0.13 0.19 0.21 0.31 0.35 0.17 0.10 0.29 0.42 0.13 0.03 0.04 0.01 0.00 0.00 0.00 0.04 0.06 0.05 0.03 0.02 0.01 0.05 0.21 0.41 0.34 0.28 0.23 0.21 0.26 0.29 0.32 0.18 0.11 0.07 0.02 0.00 0.00 0.00 0.00
0.02 0.02 0.02 0.02 0.02 0.02 0.01 0.02 0.03 0.06 0.11 0.11 0.12 0.15 0.21 0.32 0.34 0.30 0.08 0.01 0.13 0.46 0.23 0.06 0.10 0.21 0.06 0.02 0.02 0.03 0.04 0.07 0.09 0.07 0.02 0.02 0.09 0.14 0.18 0.09 0.02 0.07 0.10 0.11 0.11 0.05 0.04 0.01 0.00 0.00 0.00 0.00 0.00 0.00
0.02 0.01 0.01 0.01 0.02 0.02 0.02 0.04 0.07 0.10 0.17 0.22 0.27 0.53 1.00 1.09 0.91 0.43 0.12 0.07 0.13 0.26 0.08 0.02 0.05 0.21 0.15 0.08 0.04 0.05 0.03 0.08 0.09 0.04 0.01 0.09 0.12 0.17 0.11 0.02 0.01 0.01 0.01 0.00 0.00 0.00 0.00 0.00 0.00 0.00 0.00 0.00 0.00 0.01
0.01 0.01 0.02 0.03 0.04 0.07 0.08 0.06 0.07 0.14 0.33 0.48 0.83 1.31 1.56 0.78 0.27 0.41 0.67 0.58 0.50 0.28 0.06 0.03 0.03 0.30 0.31 0.17 0.05 0.07 0.11 0.03 0.09 0.04 0.08 0.13 0.08 0.08 0.02 0.00 0.00 0.00 0.00 0.00 0.00 0.01 0.00 0.01 0.01 0.01 0.00 0.00 0.01 0.01
0.07 0.07 0.04 0.06 0.10 0.12 0.12 0.09 0.11 0.17 0.27 0.63 0.83 0.71 0.59 0.28 0.26 0.45 0.49 0.29 0.17 0.13 0.03 0.02 0.04 0.09 0.39 0.21 0.07 0.03 0.06 0.08 0.04 0.04 0.18 0.16 0.05 0.06 0.01 0.00 0.00 0.00 0.00 0.00 0.00 0.01 0.01 0.02 0.02 0.01 0.01 0.00 0.00 0.01
0.16 0.16 0.14 0.15 0.16 0.19 0.21 0.16 0.16 0.18 0.25 0.27 0.33 0.62 0.57 0.37 0.45 0.33 0.16 0.07 0.02 0.01 0.01 0.02 0.08 0.08 0.34 0.32 0.14 0.09 0.08 0.16 0.11 0.19 0.18 0.08 0.07 0.02 0.00 0.00 0.00 0.00 0.00 0.00 0.00 0.00 0.00 0.01 0.01 0.00 0.01 0.01 0.01 0.01
0.36 0.25 0.16 0.17 0.17 0.18 0.12 0.12 0.09 0.02 0.07 0.03 0.06 0.25 0.26 0.31 0.24 0.09 0.05 0.05 0.03 0.02 0.00 0.01 0.07 0.05 0.18 0.32 0.22 0.05 0.05 0.11 0.08 0.14 0.09 0.04 0.04 0.01 0.00 0.00 0.00 0.00 0.00 0.00 0.00 0.00 0.00 0.01 0.01 0.01 0.01 0.01 0.01 0.01
0.34 0.15 0.11 0.09 0.05 0.07 0.07 0.08 0.02 0.01 0.02 0.02 0.04 0.06 0.06 0.03 0.02 0.03 0.02 0.01 0.00 0.00 0.00 0.00 0.01 0.01 0.10 0.17 0.17 0.02 0.02 0.05 0.12 0.03 0.02 0.04 0.02 0.01 0.00 0.00 0.00 0.00 0.00 0.00 0.00 0.00 0.00 0.00 0.01 0.01 0.01 0.01 0.00 0.01
0.19 0.15 0.12 0.08 0.06 0.05 0.04 0.06 0.00 0.00 0.00 0.00 0.00 0.00 0.01 0.02 0.05 0.05 0.01 0.01 0.01 0.00 0.01 0.01 0.00 0.00 0.01 0.01 0.00 0.00 0.01 0.01 0.01 0.02 0.02 0.02 0.01 0.00 0.00 0.00 0.00 0.00 0.00 0.00 0.00 0.00 0.00 0.00 0.00 0.01 0.01 0.01 0.00 0.01
0.11 0.16 0.18 0.10 0.02 0.02 0.02 0.00 0.00 0.00 0.00 0.00 0.01 0.04 0.06 0.03 0.06 0.04 0.04 0.04 0.04 0.04 0.00 0.01 0.00 0.01 0.02 0.00 0.00 0.01 0.01 0.01 0.02 0.02 0.01 0.01 0.00 0.00 0.00 0.00 0.00 0.00 0.00 0.00 0.00 0.00 0.00 0.00 0.00 0.01 0.01 0.01 0.01 0.01
0.09 0.15 0.17 0.09 0.03 0.00 0.00 0.00 0.00 0.00 0.00 0.00 0.02 0.03 0.02 0.02 0.05 0.06 0.06 0.05 0.04 0.01 0.00 0.00 0.00 0.00 0.00 0.00 0.00 0.01 0.01 0.01 0.02 0.02 0.01 0.00 0.00 0.00 0.00 0.00 0.01 0.00 0.00 0.00 0.00 0.00 0.00 0.00 0.00 0.00 0.01 0.01 0.00 0.00
0.06 0.07 0.03 0.02 0.00 0.00 0.00 0.00 0.00 0.00 0.01 0.03 0.02 0.04 0.01 0.03 0.04 0.03 0.01 0.00 0.00 0.00 0.00 0.00 0.00 0.00 0.00 0.00 0.01 0.02 0.03 0.03 0.01 0.01 0.01 0.01 0.01 0.01 0.00 0.00 0.00 0.00 0.00 0.00 0.01 0.01 0.01 0.01 0.00 0.00 0.00 0.01 0.01 0.01
0.06 0.02 0.01 0.00 0.00 0.00 0.00 0.00 0.00 0.00 0.02 0.02 0.03 0.03 0.01 0.01 0.01 0.00 0.00 0.00 0.00 0.00 0.00 0.00 0.00 0.01 0.01 0.01 0.00 0.01 0.01 0.00 0.01 0.01 0.01 0.00 0.00 0.00 0.00 0.00 0.00 0.01 0.01 0.01 0.01 0.02 0.03 0.03 0.03 0.03 0.03 0.03 0.02 0.01
0.05 0.03 0.01 0.01 0.00 0.00 0.00 0.00 0.00 0.00 0.01 0.01 0.01 0.02 0.01 0.01 0.00 0.00 0.00 0.00 0.00 0.00 0.00 0.01 0.03 0.04 0.03 0.02 0.00 0.00 0.00 0.00 0.00 0.01 0.01 0.01 0.01 0.01 0.02 0.02 0.01 0.01 0.01 0.01 0.02 0.03 0.03 0.02 0.02 0.02 0.02 0.02 0.02 0.01
0.02 0.01 0.00 0.00 0.00 0.00 0.00 0.00 0.00 0.00 0.00 0.00 0.00 0.00 0.00 0.00 0.00 0.00 0.00 0.00 0.00 0.00 0.01 0.02 0.04 0.04 0.01 0.00 0.00 0.00 0.02 0.02 0.02 0.00 0.00 0.01 0.01 0.00 0.00 0.01 0.02 0.04 0.03 0.02 0.01 0.01 0.01 0.00 0.00 0.00 0.00 0.00 0.00 0.00
0.00 0.00 0.00 0.00 0.00 0.00 0.00 0.00 0.00 0.00 0.00 0.00 0.01 0.01 0.00 0.00 0.00 0.00 0.00 0.00 0.01 0.03 0.01 0.01 0.01 0.00 0.00 0.00 0.00 0.00 0.00 0.00 0.00 0.00 0.00 0.00 0.01 0.00 0.00 0.00 0.00 0.00 0.01 0.01 0.00 0.00 0.00 0.00 0.00 0.00 0.00 0.00 0.00 0.00
0.00 0.00 0.00 0.00 0.00 0.00 0.00 0.00 0.00 0.00 0.00 0.00 0.00 0.00 0.00 0.00 0.00 0.00 0.00 0.00 0.03 0.03 0.00 0.00 0.00 0.00 0.00 0.00 0.00 0.00 0.00 0.00 0.00 0.00 0.00 0.00 0.00 0.00 0.00 0.00 0.00 0.00 0.00 0.00 0.00 0.00 0.00 0.00 0.00 0.00 0.00 0.00 0.00 0.00
0.00 0.00 0.00 0.00 0.00 0.00 0.00 0.00 0.00 0.00 0.00 0.00 0.00 0.00 0.00 0.00 0.00 0.00 0.00 0.01 0.02 0.01 0.00 0.00 0.00 0.00 0.00 0.00 0.00 0.00 0.00 0.00 0.00 0.00 0.00 0.00 0.00 0.00 0.00 0.00 0.00 0.00 0.00 0.00 0.00 0.00 0.00 0.00 0.00 0.00 0.00 0.00 0.00 0.01
0.00 0.00 0.00 0.00 0.00 0.00 0.00 0.00 0.00 0.00 0.00 0.00 0.00 0.00 0.00 0.00 0.00 0.00 0.00 0.01 0.01 0.01 0.00 0.00 0.00 0.00 0.00 0.00 0.00 0.00 0.00 0.00 0.00 0.00 0.00 0.00 0.00 0.00 0.00 0.00 0.00 0.00 0.00 0.01 0.00 0.00 0.00 0.00 0.00 0.00 0.00 0.00 0.00 0.00
0.00 0.00 0.00 0.00 0.00 0.00 0.00 0.00 0.00 0.00 0.00 0.00 0.00 0.00 0.00 0.00 0.00 0.00 0.00 0.00 0.00 0.00 0.00 0.00 0.01 0.00 0.00 0.00 0.00 0.00 0.00 0.00 0.00 0.00 0.00 0.00 0.00 0.00 0.00 0.00 0.00 0.00 0.00 0.00 0.00 0.00 0.00 0.00 0.00 0.00 0.00 0.00 0.00 0.00
0.00 0.00 0.00 0.00 0.00 0.00 0.00 0.00 0.00 0.00 0.00 0.00 0.00 0.00 0.00 0.00 0.00 0.02 0.03 0.00 0.00 0.00 0.00 0.00 0.00 0.00 0.00 0.00 0.00 0.00 0.00 0.00 0.00 0.00 0.00 0.00 0.00 0.00 0.00 0.00 0.00 0.00 0.00 0.00 0.00 0.00 0.00 0.00 0.00 0.00 0.00 0.00 0.00 0.00
0.00 0.00 0.00 0.00 0.00 0.00 0.00 0.00 0.00 0.00 0.00 0.00 0.00 0.00 0.00 0.00 0.02 0.06 0.04 0.02 0.00 0.00 0.00 0.00 0.00 0.00 0.00 0.00 0.00 0.00 0.00 0.00 0.00 0.00 0.00 0.00 0.00 0.00 0.00 0.00 0.00 0.00 0.00 0.00 0.00 0.00 0.00 0.00 0.00 0.00 0.00 0.00 0.00 0.00
0.00 0.00 0.00 0.00 0.00 0.00 0.00 0.01 0.00 0.00 0.00 0.00 0.00 0.00 0.01 0.04 0.05 0.05 0.02 0.00 0.00 0.00 0.00 0.00 0.00 0.00 0.00 0.00 0.00 0.00 0.00 0.00 0.00 0.00 0.00 0.01 0.01 0.00 0.00 0.00 0.00 0.00 0.00 0.00 0.00 0.00 0.00 0.00 0.00 0.00 0.00 0.00 0.00 0.00
0.00 0.00 0.00 0.00 0.00 0.00 0.02 0.02 0.01 0.00 0.00 0.00 0.00 0.02 0.03 0.10 0.14 0.04 0.00 0.00 0.00 0.00 0.00 0.00 0.00 0.00 0.00 0.00 0.00 0.00 0.00 0.00 0.00 0.00 0.00 0.00 0.00 0.00 0.00 0.00 0.00 0.00 0.00 0.00 0.00 0.00 0.00 0.00 0.00 0.00 0.00 0.01 0.00 0.00
0.00 0.00 0.00 0.00 0.01 0.02 0.03 0.02 0.01 0.00 0.00 0.00 0.00 0.00 0.03 0.08 0.10 0.12 0.06 0.01 0.00 0.00 0.00 0.00 0.00 0.00 0.00 0.00 0.00 0.00 0.00 0.00 0.00 0.00 0.00 0.00 0.00 0.00 0.00 0.00 0.00 0.00 0.00 0.00 0.00 0.00 0.00 0.00 0.00 0.00 0.00 0.00 0.00 0.00
0.00 0.00 0.00 0.00 0.01 0.02 0.04 0.01 0.00 0.01 0.01 0.00 0.01 0.00 0.00 0.00 0.01 0.03 0.06 0.02 0.00 0.00 0.00 0.00 0.00 0.00 0.00 0.00 0.00 0.00 0.00 0.00 0.00 0.00 0.00 0.00 0.00 0.00 0.00 0.00 0.00 0.00 0.00 0.00 0.00 0.00 0.00 0.00 0.00 0.00 0.00 0.00 0.00 0.00
0.00 0.00 0.00 0.00 0.00 0.01 0.01 0.01 0.00 0.01 0.01 0.01 0.02 0.03 0.01 0.00 0.01 0.02 0.02 0.02 0.04 0.00 0.01 0.00 0.00 0.00 0.00 0.00 0.00 0.00 0.00 0.00 0.00 0.00 0.00 0.00 0.00 0.00 0.00 0.00 0.00 0.00 0.00 0.00 0.00 0.00 0.00 0.00 0.00 0.00 0.00 0.00 0.00 0.00

GFSWCAN_prec_precacc12_099.txt.gz
Total_Precipitation_Accumulation
0.05 0.04 0.03 0.03 0.03 0.03 0.02 0.02 0.02 0.03 0.03 0.03 0.05 0.07 0.10 0.12 0.15 0.12 0.08 0.00 0.02 0.01 0.00 0.00 0.00 0.00 0.01 0.01 0.04 0.01 0.01 0.02 0.16 0.03 0.00 0.00 0.00 0.00 0.00 0.01 0.05 0.05 0.03 0.01 0.01 0.04 0.01 0.00 0.00 0.01 0.01 0.00 0.01 0.01
0.04 0.04 0.04 0.03 0.03 0.02 0.02 0.02 0.02 0.02 0.03 0.05 0.05 0.07 0.11 0.15 0.17 0.20 0.15 0.01 0.02 0.05 0.00 0.00 0.00 0.00 0.00 0.00 0.01 0.01 0.07 0.09 0.17 0.23 0.12 0.04 0.01 0.01 0.01 0.02 0.11 0.17 0.06 0.04 0.02 0.04 0.07 0.03 0.01 0.02 0.01 0.02 0.03 0.04
0.03 0.03 0.03 0.03 0.03 0.04 0.03 0.03 0.03 0.03 0.03 0.05 0.06 0.07 0.08 0.12 0.22 0.32 0.19 0.03 0.24 0.19 0.02 0.00 0.00 0.00 0.00 0.00 0.00 0.00 0.12 0.20 0.28 0.30 0.28 0.19 0.04 0.02 0.02 0.08 0.17 0.38 0.42 0.26 0.26 0.36 0.15 0.08 0.09 0.06 0.06 0.16 0.17 0.10
0.04 0.02 0.03 0.03 0.03 0.04 0.05 0.05 0.04 0.04 0.05 0.07 0.09 0.08 0.06 0.09 0.17 0.37 0.47 0.13 0.11 0.14 0.02 0.00 0.00 0.00 0.00 0.00 0.00 0.00 0.01 0.03 0.08 0.16 0.10 0.03 0.00 0.02 0.03 0.11 0.22 0.17 0.43 0.63 0.64 0.44 0.28 0.19 0.24 0.34 0.31 0.14 0.14 0.16
0.06 0.03 0.03 0.03 0.04 0.03 0.03 0.02 0.02 0.02 0.03 0.03 0.06 0.07 0.07 0.10 0.17 0.28 0.40 0.17 0.07 0.07 0.04 0.00 0.00 0.00 0.00 0.00 0.00 0.00 0.00 0.00 0.02 0.02 0.01 0.00 0.00 0.04 0.05 0.19 0.19 0.11 0.24 0.52 0.77 0.68 0.55 0.46 0.34 0.29 0.26 0.23 0.12 0.05
0.04 0.04 0.02 0.03 0.03 0.02 0.02 0.01 0.01 0.01 0.02 0.03 0.04 0.07 0.10 0.12 0.20 0.52 1.07 0.44 0.07 0.20 0.21 0.03 0.00 0.00 0.00 0.00 0.00 0.00 0.01 0.02 0.01 0.01 0.00 0.00 0.02 0.26 0.35 0.31 0.18 0.14 0.16 0.28 0.49 0.78 0.76 0.60 0.38 0.22 0.12 0.06 0.03 0.00
0.02 0.03 0.03 0.02 0.02 0.01 0.02 0.01 0.02 0.03 0.05 0.08 0.09 0.11 0.14 0.23 0.21 0.22 0.27 0.12 0.09 0.28 0.37 0.11 0.00 0.00 0.01 0.00 0.00 0.00 0.01 0.04 0.04 0.01 0.01 0.00 0.02 0.19 0.40 0.23 0.19 0.19 0.26 0.31 0.32 0.38 0.26 0.16 0.10 0.04 0.01 0.00 0.00 0.00
0.02 0.02 0.02 0.02 0.02 0.02 0.02 0.02 0.02 0.03 0.06 0.08 0.11 0.17 0.24 0.43 0.46 0.27 0.06 0.01 0.20 0.51 0.25 0.05 0.00 0.03 0.03 0.01 0.00 0.01 0.01 0.03 0.04 0.03 0.02 0.01 0.06 0.12 0.09 0.07 0.03 0.05 0.08 0.12 0.12 0.08 0.07 0.03 0.00 0.00 0.00 0.00 0.00 0.00
0.03 0.02 0.01 0.01 0.02 0.02 0.03 0.03 0.04 0.06 0.12 0.16 0.21 0.48 1.01 1.14 0.83 0.31 0.11 0.06 0.14 0.39 0.16 0.02 0.00 0.06 0.09 0.04 0.03 0.03 0.02 0.02 0.03 0.03 0.01 0.05 0.07 0.07 0.06 0.01 0.01 0.01 0.01 0.00 0.00 0.01 0.00 0.00 0.00 0.00 0.00 0.00 0.00 0.01
0.02 0.02 0.02 0.03 0.04 0.06 0.07 0.07 0.07 0.15 0.31 0.46 0.95 1.52 1.62 0.70 0.20 0.41 0.75 0.63 0.54 0.39 0.10 0.00 0.00 0.12 0.23 0.06 0.03 0.01 0.03 0.02 0.06 0.03 0.06 0.09 0.05 0.06 0.02 0.00 0.00 0.00 0.00 0.00 0.00 0.00 0.00 0.01 0.01 0.00 0.00 0.00 0.01 0.01
0.06 0.05 0.03 0.05 0.08 0.09 0.11 0.08 0.10 0.18 0.39 0.86 1.00 0.76 0.46 0.24 0.28 0.61 0.68 0.39 0.24 0.16 0.03 0.00 0.00 0.07 0.36 0.16 0.04 0.02 0.05 0.06 0.03 0.04 0.16 0.11 0.04 0.05 0.01 0.00 0.00 0.00 0.00 0.00 0.00 0.01 0.01 0.01 0.01 0.00 0.00 0.00 0.00 0.00
0.15 0.15 0.13 0.13 0.14 0.18 0.24 0.17 0.16 0.23 0.45 0.39 0.35 0.60 0.71 0.54 0.62 0.52 0.25 0.08 0.01 0.00 0.00 0.00 0.03 0.05 0.33 0.32 0.11 0.06 0.07 0.17 0.09 0.19 0.15 0.03 0.05 0.02 0.00 0.00 0.00 0.00 0.00 0.00 0.00 0.00 0.00 0.01 0.00 0.00 0.00 0.00 0.01 0.01
0.35 0.25 0.15 0.16 0.16 0.26 0.29 0.19 0.12 0.07 0.13 0.13 0.18 0.43 0.50 0.46 0.32 0.12 0.06 0.03 0.01 0.01 0.00 0.01 0.07 0.05 0.18 0.30 0.27 0.07 0.04 0.15 0.13 0.15 0.08 0.02 0.03 0.01 0.00 0.00 0.00 0.00 0.00 0.00 0.00 0.00 0.00 0.01 0.00 0.00 0.00 0.01 0.00 0.00
0.35 0.17 0.16 0.14 0.13 0.23 0.20 0.20 0.08 0.11 0.12 0.21 0.21 0.18 0.14 0.07 0.02 0.01 0.00 0.00 0.00 0.00 0.00 0.00 0.01 0.01 0.11 0.22 0.24 0.03 0.02 0.04 0.07 0.01 0.00 0.03 0.01 0.00 0.00 0.00 0.00 0.00 0.00 0.00 0.00 0.00 0.00 0.00 0.00 0.01 0.00 0.00 0.00 0.00
0.28 0.27 0.27 0.17 0.17 0.15 0.16 0.15 0.08 0.03 0.02 0.05 0.02 0.00 0.01 0.02 0.04 0.04 0.01 0.00 0.01 0.00 0.00 0.00 0.00 0.01 0.05 0.09 0.02 0.00 0.01 0.01 0.00 0.00 0.01 0.01 0.01 0.00 0.00 0.00 0.00 0.00 0.00 0.00 0.00 0.00 0.00 0.00 0.00 0.00 0.01 0.00 0.00 0.00
0.37 0.49 0.37 0.18 0.09 0.06 0.05 0.03 0.01 0.00 0.00 0.00 0.01 0.02 0.04 0.02 0.05 0.03 0.03 0.02 0.02 0.02 0.00 0.00 0.00 0.01 0.01 0.01 0.00 0.00 0.00 0.00 0.00 0.00 0.01 0.01 0.00 0.00 0.00 0.00 0.00 0.00 0.00 0.00 0.00 0.00 0.00 0.00 0.00 0.00 0.00 0.00 0.00 0.00
0.23 0.32 0.33 0.13 0.05 0.03 0.00 0.00 0.00 0.00 0.00 0.00 0.02 0.02 0.01 0.01 0.04 0.05 0.05 0.04 0.03 0.01 0.00 0.00 0.00 0.00 0.00 0.00 0.00 0.00 0.00 0.00 0.01 0.01 0.00 0.00 0.00 0.00 0.00 0.00 0.00 0.00 0.00 0.00 0.00 0.00 0.00 0.00 0.00 0.00 0.00 0.00 0.00 0.00
0.11 0.13 0.09 0.03 0.01 0.00 0.00 0.00 0.00 0.00 0.00 0.02 0.02 0.04 0.01 0.02 0.04 0.04 0.02 0.00 0.00 0.00 0.00 0.00 0.00 0.00 0.00 0.00 0.00 0.01 0.02 0.02 0.01 0.00 0.00 0.00 0.00 0.00 0.00 0.00 0.00 0.00 0.00 0.00 0.00 0.00 0.00 0.00 0.00 0.00 0.00 0.01 0.01 0.01
0.09 0.04 0.01 0.01 0.00 0.00 0.00 0.00 0.00 0.00 0.02 0.02 0.03 0.02 0.00 0.01 0.01 0.00 0.00 0.00 0.00 0.00 0.00 0.00 0.00 0.00 0.00 0.00 0.00 0.00 0.00 0.00 0.01 0.01 0.01 0.00 0.00 0.00 0.00 0.00 0.00 0.00 0.00 0.00 0.00 0.01 0.02 0.02 0.02 0.02 0.02 0.03 0.02 0.01
0.05 0.04 0.01 0.01 0.00 0.00 0.00 0.00 0.00 0.00 0.00 0.01 0.01 0.01 0.01 0.00 0.00 0.00 0.00 0.00 0.00 0.00 0.00 0.00 0.01 0.02 0.01 0.00 0.00 0.00 0.00 0.00 0.00 0.01 0.01 0.01 0.00 0.00 0.00 0.00 0.00 0.00 0.01 0.01 0.01 0.02 0.02 0.02 0.02 0.02 0.02 0.02 0.02 0.02
0.04 0.01 0.00 0.00 0.00 0.00 0.00 0.00 0.00 0.00 0.00 0.00 0.00 0.00 0.00 0.00 0.00 0.00 0.00 0.00 0.00 0.00 0.01 0.02 0.03 0.03 0.00 0.00 0.00 0.00 0.00 0.00 0.00 0.00 0.00 0.01 0.01 0.00 0.00 0.00 0.01 0.02 0.02 0.01 0.01 0.01 0.01 0.00 0.00 0.00 0.00 0.00 0.00 0.00
0.01 0.00 0.00 0.00 0.00 0.00 0.00 0.00 0.00 0.00 0.00 0.01 0.01 0.01 0.00 0.00 0.00 0.00 0.00 0.00 0.01 0.01 0.01 0.01 0.01 0.00 0.00 0.00 0.00 0.00 0.00 0.00 0.00 0.00 0.00 0.00 0.01 0.00 0.00 0.00 0.00 0.01 0.01 0.01 0.00 0.00 0.00 0.00 0.00 0.00 0.00 0.00 0.00 0.00
0.00 0.00 0.00 0.00 0.00 0.00 0.00 0.00 0.00 0.00 0.00 0.00 0.00 0.00 0.00 0.00 0.00 0.00 0.00 0.00 0.02 0.02 0.00 0.00 0.00 0.00 0.00 0.00 0.00 0.00 0.00 0.00 0.00 0.00 0.00 0.00 0.00 0.00 0.00 0.00 0.00 0.00 0.00 0.00 0.00 0.00 0.00 0.00 0.00 0.00 0.00 0.00 0.00 0.00
0.00 0.00 0.00 0.00 0.00 0.01 0.00 0.00 0.00 0.00 0.00 0.00 0.00 0.00 0.00 0.00 0.00 0.00 0.00 0.00 0.02 0.02 0.00 0.00 0.00 0.00 0.00 0.00 0.00 0.00 0.00 0.00 0.00 0.00 0.00 0.00 0.00 0.00 0.00 0.00 0.00 0.00 0.00 0.00 0.00 0.00 0.00 0.00 0.00 0.00 0.00 0.00 0.00 0.01
0.00 0.00 0.00 0.00 0.00 0.00 0.00 0.00 0.00 0.00 0.00 0.00 0.00 0.00 0.00 0.00 0.00 0.00 0.00 0.01 0.02 0.01 0.01 0.00 0.00 0.00 0.00 0.00 0.00 0.00 0.00 0.00 0.00 0.00 0.00 0.00 0.00 0.00 0.00 0.00 0.00 0.00 0.00 0.00 0.00 0.00 0.00 0.00 0.00 0.00 0.00 0.00 0.00 0.00
0.00 0.00 0.00 0.00 0.00 0.00 0.00 0.00 0.00 0.00 0.00 0.00 0.00 0.00 0.00 0.00 0.00 0.00 0.00 0.00 0.00 0.01 0.00 0.00 0.00 0.00 0.00 0.00 0.00 0.00 0.00 0.00 0.00 0.00 0.00 0.00 0.00 0.00 0.00 0.00 0.00 0.00 0.00 0.00 0.00 0.00 0.00 0.00 0.00 0.00 0.00 0.00 0.00 0.00
0.00 0.00 0.00 0.00 0.00 0.00 0.00 0.00 0.00 0.00 0.00 0.00 0.00 0.00 0.00 0.00 0.00 0.02 0.01 0.00 0.00 0.00 0.00 0.00 0.00 0.00 0.00 0.00 0.00 0.00 0.00 0.00 0.00 0.00 0.00 0.00 0.00 0.00 0.00 0.00 0.00 0.00 0.00 0.00 0.00 0.00 0.00 0.00 0.00 0.00 0.00 0.00 0.00 0.00
0.00 0.00 0.00 0.00 0.00 0.00 0.00 0.00 0.00 0.00 0.00 0.00 0.00 0.00 0.00 0.00 0.02 0.05 0.03 0.01 0.00 0.00 0.00 0.00 0.00 0.00 0.00 0.00 0.00 0.00 0.00 0.00 0.00 0.00 0.00 0.00 0.00 0.00 0.00 0.00 0.00 0.00 0.00 0.00 0.00 0.00 0.00 0.00 0.00 0.01 0.00 0.00 0.00 0.00
0.00 0.00 0.00 0.00 0.00 0.00 0.01 0.01 0.01 0.01 0.01 0.00 0.00 0.01 0.01 0.03 0.04 0.05 0.03 0.01 0.00 0.00 0.00 0.00 0.00 0.00 0.00 0.00 0.00 0.00 0.00 0.00 0.00 0.00 0.00 0.00 0.00 0.00 0.00 0.00 0.00 0.00 0.00 0.00 0.00 0.00 0.00 0.00 0.00 0.00 0.00 0.00 0.00 0.00
0.00 0.00 0.00 0.00 0.00 0.00 0.02 0.02 0.01 0.01 0.00 0.00 0.00 0.02 0.02 0.07 0.13 0.05 0.01 0.00 0.00 0.00 0.00 0.00 0.00 0.00 0.00 0.00 0.00 0.00 0.00 0.00 0.00 0.00 0.00 0.00 0.00 0.00 0.00 0.00 0.00 0.00 0.00 0.00 0.00 0.00 0.00 0.00 0.00 0.00 0.00 0.00 0.00 0.00
0.00 0.00 0.00 0.00 0.01 0.02 0.02 0.01 0.00 0.00 0.00 0.00 0.00 0.00 0.02 0.07 0.10 0.11 0.04 0.01 0.00 0.00 0.00 0.00 0.00 0.00 0.00 0.00 0.00 0.00 0.00 0.00 0.00 0.00 0.00 0.00 0.00 0.00 0.00 0.00 0.00 0.00 0.00 0.00 0.00 0.00 0.00 0.00 0.00 0.00 0.00 0.00 0.00 0.00
0.00 0.00 0.00 0.00 0.01 0.01 0.01 0.00 0.00 0.00 0.00 0.00 0.00 0.00 0.00 0.00 0.01 0.03 0.07 0.03 0.01 0.00 0.00 0.00 0.00 0.00 0.00 0.00 0.00 0.00 0.00 0.00 0.00 0.00 0.00 0.00 0.00 0.00 0.00 0.00 0.00 0.00 0.00 0.00 0.00 0.00 0.00 0.00 0.00 0.00 0.00 0.00 0.00 0.00
0.00 0.00 0.00 0.00 0.01 0.01 0.01 0.01 0.00 0.00 0.00 0.00 0.01 0.01 0.01 0.00 0.01 0.02 0.03 0.03 0.02 0.00 0.00 0.00 0.00 0.00 0.00 0.00 0.00 0.00 0.00 0.00 0.00 0.00 0.00 0.00 0.00 0.00 0.00 0.00 0.00 0.00 0.00 0.00 0.00 0.00 0.00 0.00 0.00 0.00 0.00 0.00 0.00 0.00

GFSWCAN_prec_precacc12_105.txt.gz
Total_Precipitation_Accumulation
0.06 0.07 0.03 0.03 0.03 0.03 0.03 0.03 0.03 0.03 0.02 0.01 0.01 0.02 0.04 0.07 0.14 0.10 0.05 0.00 0.02 0.03 0.00 0.00 0.00 0.00 0.00 0.00 0.00 0.00 0.00 0.01 0.01 0.01 0.01 0.01 0.02 0.01 0.03 0.02 0.02 0.02 0.03 0.02 0.02 0.02 0.03 0.00 0.00 0.01 0.02 0.02 0.02 0.02
0.04 0.05 0.05 0.04 0.04 0.02 0.02 0.03 0.03 0.03 0.02 0.01 0.01 0.01 0.03 0.07 0.13 0.20 0.09 0.01 0.02 0.05 0.01 0.00 0.00 0.00 0.00 0.00 0.00 0.00 0.00 0.03 0.07 0.06 0.06 0.05 0.04 0.02 0.01 0.07 0.01 0.09 0.06 0.04 0.04 0.09 0.12 0.03 0.02 0.02 0.01 0.04 0.06 0.06
0.06 0.03 0.04 0.05 0.04 0.03 0.02 0.02 0.02 0.03 0.03 0.01 0.02 0.03 0.02 0.04 0.14 0.25 0.15 0.04 0.13 0.11 0.01 0.00 0.00 0.00 0.00 0.00 0.00 0.00 0.01 0.02 0.04 0.06 0.10 0.17 0.07 0.03 0.03 0.04 0.04 0.01 0.00 0.10 0.25 0.33 0.16 0.08 0.08 0.04 0.05 0.08 0.11 0.11
0.11 0.06 0.04 0.03 0.03 0.02 0.03 0.02 0.03 0.03 0.03 0.03 0.04 0.05 0.04 0.04 0.10 0.33 0.25 0.06 0.09 0.10 0.02 0.01 0.00 0.00 0.00 0.00 0.00 0.00 0.00 0.01 0.05 0.02 0.02 0.03 0.02 0.01 0.02 0.06 0.03 0.01 0.02 0.14 0.34 0.29 0.22 0.13 0.15 0.14 0.13 0.11 0.06 0.11
0.11 0.09 0.07 0.05 0.03 0.03 0.03 0.02 0.03 0.02 0.02 0.03 0.04 0.05 0.06 0.09 0.13 0.31 0.26 0.08 0.06 0.10 0.05 0.02 0.01 0.00 0.00 0.00 0.00 0.00 0.00 0.00 0.01 0.02 0.03 0.04 0.02 0.01 0.03 0.04 0.03 0.02 0.04 0.07 0.19 0.26 0.27 0.23 0.22 0.18 0.13 0.19 0.13 0.05
0.06 0.07 0.06 0.06 0.06 0.04 0.03 0.03 0.03 0.03 0.03 0.02 0.04 0.06 0.11 0.16 0.25 0.34 0.71 0.27 0.07 0.16 0.16 0.04 0.03 0.00 0.00 0.00 0.00 0.00 0.00 0.00 0.01 0.04 0.03 0.02 0.01 0.02 0.05 0.07 0.06 0.08 0.07 0.08 0.13 0.25 0.31 0.34 0.29 0.20 0.14 0.08 0.03 0.00
0.02 0.04 0.07 0.05 0.04 0.03 0.02 0.03 0.03 0.03 0.02 0.02 0.04 0.07 0.15 0.34 0.34 0.20 0.19 0.07 0.06 0.15 0.27 0.07 0.02 0.00 0.00 0.00 0.00 0.00 0.00 0.01 0.06 0.04 0.02 0.02 0.02 0.06 0.10 0.06 0.08 0.10 0.11 0.11 0.15 0.26 0.23 0.13 0.08 0.05 0.01 0.00 0.00 0.00
0.02 0.02 0.05 0.07 0.04 0.02 0.02 0.02 0.02 0.02 0.02 0.02 0.04 0.09 0.20 0.51 0.64 0.27 0.04 0.01 0.16 0.32 0.23 0.06 0.01 0.00 0.00 0.00 0.00 0.00 0.00 0.01 0.03 0.03 0.03 0.03 0.03 0.04 0.06 0.05 0.02 0.01 0.03 0.04 0.07 0.08 0.10 0.07 0.01 0.00 0.00 0.00 0.00 0.00
0.02 0.02 0.02 0.05 0.05 0.03 0.03 0.03 0.03 0.03 0.02 0.04 0.12 0.32 0.64 0.95 0.90 0.23 0.06 0.04 0.09 0.41 0.24 0.03 0.02 0.03 0.01 0.01 0.00 0.01 0.01 0.02 0.02 0.02 0.01 0.04 0.03 0.02 0.01 0.00 0.00 0.00 0.00 0.00 0.00 0.02 0.04 0.03 0.01 0.00 0.00 0.00 0.00 0.00
0.01 0.02 0.01 0.05 0.06 0.07 0.07 0.07 0.06 0.06 0.07 0.16 0.65 1.10 1.12 0.49 0.20 0.17 0.62 0.47 0.32 0.30 0.13 0.01 0.01 0.01 0.01 0.01 0.02 0.01 0.03 0.04 0.06 0.02 0.02 0.04 0.02 0.01 0.00 0.00 0.00 0.00 0.00 0.00 0.00 0.00 0.00 0.00 0.00 0.00 0.00 0.00 0.00 0.00
0.01 0.01 0.03 0.05 0.08 0.08 0.08 0.08 0.08 0.13 0.42 0.90 0.91 0.58 0.31 0.24 0.18 0.49 0.64 0.42 0.21 0.14 0.05 0.00 0.00 0.01 0.00 0.01 0.02 0.02 0.02 0.02 0.02 0.05 0.07 0.04 0.02 0.02 0.01 0.00 0.00 0.00 0.00 0.00 0.00 0.00 0.00 0.00 0.00 0.00 0.00 0.00 0.00 0.00
0.02 0.04 0.05 0.06 0.08 0.11 0.17 0.12 0.12 0.28 0.59 0.47 0.32 0.40 0.81 0.57 0.54 0.54 0.32 0.14 0.02 0.00 0.00 0.00 0.00 0.01 0.02 0.10 0.07 0.03 0.05 0.13 0.07 0.11 0.08 0.02 0.03 0.01 0.00 0.00 0.00 0.00 0.00 0.00 0.00 0.00 0.00 0.00 0.00 0.00 0.00 0.00 0.00 0.00
0.09 0.09 0.07 0.10 0.11 0.21 0.24 0.16 0.15 0.16 0.37 0.45 0.51 0.51 0.85 0.57 0.37 0.17 0.08 0.01 0.00 0.00 0.00 0.01 0.02 0.01 0.06 0.20 0.21 0.06 0.02 0.12 0.15 0.14 0.06 0.01 0.01 0.01 0.00 0.00 0.00 0.00 0.00 0.00 0.00 0.00 0.00 0.00 0.00 0.00 0.00 0.00 0.00 0.00
0.21 0.13 0.15 0.15 0.16 0.24 0.20 0.32 0.25 0.31 0.59 0.60 0.56 0.37 0.30 0.22 0.04 0.00 0.00 0.00 0.00 0.00 0.00 0.00 0.01 0.01 0.12 0.18 0.18 0.13 0.04 0.03 0.04 0.03 0.01 0.01 0.01 0.00 0.00 0.00 0.00 0.00 0.00 0.00 0.00 0.00 0.00 0.00 0.00 0.00 0.00 0.00 0.00 0.00
0.22 0.25 0.26 0.17 0.21 0.22 0.31 0.44 0.40 0.34 0.38 0.37 0.27 0.08 0.02 0.01 0.01 0.01 0.01 0.00 0.00 0.00 0.00 0.01 0.01 0.01 0.05 0.10 0.04 0.03 0.03 0.02 0.01 0.01 0.00 0.00 0.00 0.00 0.00 0.00 0.00 0.00 0.00 0.00 0.00 0.00 0.00 0.00 0.00 0.00 0.00 0.00 0.00 0.00
0.39 0.55 0.36 0.21 0.22 0.21 0.31 0.36 0.39 0.28 0.18 0.13 0.09 0.02 0.02 0.01 0.03 0.02 0.02 0.02 0.01 0.01 0.01 0.01 0.01 0.02 0.02 0.04 0.02 0.01 0.01 0.02 0.01 0.00 0.00 0.01 0.00 0.00 0.00 0.00 0.00 0.00 0.00 0.00 0.00 0.00 0.00 0.00 0.00 0.00 0.00 0.00 0.00 0.00
0.42 0.49 0.32 0.22 0.21 0.19 0.19 0.23 0.22 0.19 0.15 0.07 0.03 0.02 0.01 0.02 0.02 0.03 0.03 0.02 0.01 0.01 0.01 0.01 0.00 0.00 0.01 0.00 0.00 0.00 0.00 0.00 0.00 0.00 0.00 0.00 0.00 0.00 0.00 0.00 0.00 0.00 0.00 0.00 0.00 0.00 0.00 0.00 0.00 0.00 0.00 0.00 0.00 0.00
0.34 0.23 0.14 0.12 0.13 0.17 0.19 0.13 0.08 0.07 0.05 0.03 0.01 0.03 0.02 0.03 0.03 0.03 0.03 0.01 0.00 0.01 0.00 0.00 0.00 0.00 0.00 0.00 0.00 0.00 0.00 0.01 0.00 0.01 0.00 0.00 0.00 0.00 0.00 0.00 0.00 0.00 0.00 0.00 0.00 0.00 0.00 0.00 0.00 0.00 0.00 0.00 0.00 0.00
0.29 0.14 0.06 0.04 0.04 0.05 0.09 0.05 0.01 0.01 0.02 0.01 0.03 0.03 0.01 0.02 0.02 0.02 0.01 0.00 0.00 0.00 0.00 0.00 0.00 0.00 0.00 0.00 0.00 0.00 0.01 0.01 0.01 0.01 0.01 0.00 0.00 0.00 0.00 0.00 0.00 0.00 0.00 0.00 0.00 0.00 0.00 0.00 0.01 0.01 0.01 0.01 0.01 0.01
0.19 0.08 0.06 0.07 0.04 0.01 0.03 0.02 0.00 0.00 0.00 0.01 0.01 0.02 0.01 0.01 0.01 0.02 0.01 0.00 0.00 0.00 0.00 0.00 0.00 0.00 0.00 0.00 0.00 0.00 0.00 0.00 0.00 0.00 0.01 0.01 0.00 0.00 0.00 0.00 0.00 0.00 0.00 0.01 0.01 0.01 0.01 0.01 0.01 0.01 0.01 0.01 0.02 0.02
0.10 0.05 0.02 0.02 0.00 0.00 0.01 0.00 0.00 0.00 0.00 0.01 0.01 0.00 0.01 0.01 0.02 0.02 0.01 0.00 0.01 0.00 0.00 0.00 0.00 0.01 0.00 0.00 0.00 0.00 0.00 0.00 0.00 0.00 0.00 0.00 0.01 0.00 0.00 0.00 0.01 0.01 0.00 0.00 0.01 0.01 0.01 0.01 0.00 0.00 0.00 0.00 0.00 0.01
0.02 0.00 0.00 0.00 0.00 0.00 0.00 0.00 0.00 0.00 0.00 0.01 0.00 0.00 0.01 0.02 0.02 0.01 0.00 0.00 0.00 0.00 0.00 0.00 0.00 0.00 0.00 0.00 0.00 0.00 0.00 0.00 0.00 0.00 0.00 0.00 0.00 0.00 0.00 0.00 0.01 0.01 0.01 0.01 0.01 0.00 0.00 0.00 0.00 0.00 0.00 0.00 0.00 0.00
0.00 0.00 0.00 0.00 0.00 0.00 0.00 0.00 0.00 0.00 0.00 0.01 0.00 0.00 0.00 0.00 0.00 0.00 0.01 0.00 0.01 0.01 0.00 0.00 0.00 0.00 0.00 0.00 0.00 0.00 0.00 0.00 0.00 0.00 0.00 0.00 0.00 0.00 0.00 0.00 0.00 0.00 0.00 0.00 0.00 0.00 0.00 0.00 0.00 0.00 0.00 0.00 0.00 0.01
0.00 0.00 0.00 0.00 0.00 0.01 0.00 0.00 0.00 0.00 0.00 0.00 0.00 0.00 0.00 0.00 0.00 0.00 0.00 0.00 0.02 0.02 0.00 0.00 0.00 0.00 0.00 0.00 0.00 0.00 0.00 0.00 0.00 0.00 0.00 0.00 0.00 0.00 0.00 0.00 0.00 0.00 0.00 0.00 0.00 0.00 0.00 0.00 0.00 0.00 0.00 0.00 0.00 0.00
0.00 0.00 0.00 0.00 0.00 0.00 0.00 0.00 0.00 0.00 0.00 0.00 0.00 0.00 0.00 0.00 0.00 0.00 0.00 0.00 0.02 0.02 0.01 0.00 0.00 0.00 0.00 0.00 0.00 0.00 0.00 0.00 0.00 0.00 0.00 0.00 0.00 0.00 0.00 0.00 0.00 0.00 0.00 0.00 0.00 0.00 0.00 0.00 0.00 0.00 0.00 0.00 0.01 0.01
0.00 0.00 0.00 0.00 0.00 0.00 0.00 0.00 0.00 0.00 0.00 0.00 0.00 0.00 0.00 0.00 0.00 0.00 0.00 0.01 0.01 0.01 0.01 0.00 0.00 0.00 0.00 0.00 0.00 0.00 0.00 0.00 0.00 0.00 0.00 0.00 0.00 0.00 0.00 0.00 0.00 0.00 0.00 0.00 0.00 0.00 0.00 0.00 0.00 0.00 0.00 0.00 0.00 0.00
0.00 0.00 0.00 0.00 0.00 0.00 0.00 0.00 0.00 0.00 0.00 0.00 0.00 0.00 0.00 0.00 0.00 0.00 0.01 0.01 0.00 0.00 0.00 0.00 0.00 0.00 0.00 0.00 0.00 0.00 0.00 0.00 0.00 0.00 0.00 0.00 0.00 0.00 0.00 0.00 0.00 0.00 0.00 0.00 0.00 0.00 0.00 0.00 0.00 0.00 0.00 0.00 0.00 0.00
0.00 0.00 0.00 0.00 0.00 0.00 0.00 0.00 0.00 0.00 0.00 0.01 0.00 0.00 0.00 0.00 0.01 0.02 0.03 0.02 0.02 0.00 0.00 0.00 0.00 0.00 0.00 0.00 0.00 0.00 0.00 0.00 0.00 0.00 0.00 0.00 0.00 0.00 0.00 0.00 0.00 0.00 0.00 0.00 0.00 0.00 0.00 0.00 0.00 0.00 0.01 0.01 0.01 0.00
0.00 0.00 0.00 0.00 0.00 0.00 0.00 0.00 0.00 0.01 0.01 0.00 0.00 0.00 0.01 0.01 0.02 0.03 0.03 0.03 0.02 0.00 0.00 0.00 0.00 0.00 0.00 0.00 0.00 0.00 0.00 0.00 0.00 0.00 0.00 0.00 0.00 0.00 0.00 0.00 0.00 0.00 0.00 0.00 0.00 0.00 0.00 0.00 0.00 0.00 0.00 0.00 0.01 0.01
0.00 0.00 0.00 0.00 0.00 0.00 0.01 0.01 0.02 0.02 0.01 0.00 0.00 0.00 0.01 0.03 0.06 0.05 0.04 0.04 0.03 0.01 0.00 0.00 0.00 0.00 0.00 0.00 0.00 0.00 0.00 0.00 0.00 0.00 0.00 0.00 0.00 0.00 0.00 0.00 0.00 0.00 0.00 0.00 0.00 0.00 0.00 0.00 0.00 0.00 0.00 0.00 0.00 0.00
0.00 0.00 0.00 0.00 0.01 0.01 0.02 0.01 0.01 0.00 0.00 0.00 0.00 0.00 0.01 0.04 0.06 0.07 0.05 0.05 0.03 0.00 0.00 0.00 0.00 0.00 0.00 0.00 0.00 0.00 0.00 0.00 0.00 0.00 0.00 0.00 0.00 0.00 0.00 0.00 0.00 0.00 0.00 0.00 0.00 0.00 0.00 0.00 0.00 0.00 0.00 0.00 0.00 0.00
0.00 0.00 0.00 0.00 0.01 0.01 0.01 0.00 0.00 0.00 0.01 0.00 0.01 0.00 0.00 0.01 0.02 0.04 0.06 0.06 0.05 0.02 0.00 0.00 0.00 0.00 0.00 0.00 0.00 0.00 0.00 0.00 0.00 0.00 0.00 0.00 0.00 0.00 0.00 0.00 0.00 0.00 0.00 0.00 0.00 0.00 0.00 0.00 0.00 0.00 0.00 0.00 0.00 0.00
0.00 0.00 0.00 0.00 0.01 0.01 0.01 0.00 0.00 0.00 0.00 0.00 0.01 0.00 0.01 0.00 0.01 0.02 0.04 0.03 0.04 0.04 0.02 0.00 0.00 0.00 0.00 0.00 0.00 0.00 0.00 0.00 0.00 0.00 0.00 0.00 0.00 0.00 0.00 0.00 0.00 0.00 0.00 0.00 0.00 0.00 0.00 0.00 0.00 0.00 0.00 0.00 0.00 0.00

GFSWCAN_prec_precacc12_108.txt.gz
Total_Precipitation_Accumulation
0.10 0.07 0.03 0.02 0.02 0.02 0.03 0.03 0.03 0.03 0.02 0.01 0.00 0.00 0.02 0.04 0.10 0.08 0.05 0.00 0.02 0.04 0.01 0.00 0.00 0.00 0.00 0.00 0.00 0.00 0.00 0.01 0.01 0.01 0.02 0.01 0.02 0.01 0.05 0.03 0.03 0.02 0.08 0.03 0.03 0.04 0.05 0.00 0.00 0.02 0.05 0.04 0.03 0.02
0.08 0.07 0.06 0.03 0.03 0.02 0.02 0.03 0.03 0.04 0.02 0.01 0.00 0.01 0.01 0.03 0.07 0.18 0.09 0.01 0.02 0.05 0.01 0.00 0.00 0.00 0.00 0.00 0.00 0.00 0.01 0.03 0.03 0.04 0.03 0.03 0.05 0.03 0.02 0.22 0.01 0.09 0.06 0.03 0.04 0.10 0.13 0.04 0.03 0.03 0.02 0.05 0.06 0.04
0.07 0.05 0.04 0.03 0.03 0.02 0.02 0.02 0.02 0.03 0.03 0.01 0.01 0.01 0.01 0.01 0.07 0.17 0.16 0.04 0.06 0.05 0.01 0.00 0.01 0.00 0.00 0.00 0.00 0.00 0.02 0.03 0.04 0.03 0.02 0.07 0.09 0.04 0.03 0.07 0.03 0.01 0.00 0.02 0.10 0.24 0.14 0.07 0.07 0.04 0.05 0.06 0.07 0.06
0.12 0.09 0.04 0.02 0.02 0.02 0.02 0.03 0.02 0.02 0.02 0.02 0.02 0.02 0.02 0.03 0.06 0.21 0.16 0.05 0.08 0.08 0.02 0.03 0.00 0.00 0.00 0.00 0.00 0.00 0.01 0.01 0.03 0.01 0.02 0.02 0.06 0.02 0.02 0.06 0.02 0.01 0.00 0.03 0.12 0.13 0.14 0.08 0.09 0.10 0.09 0.07 0.04 0.03
0.11 0.11 0.08 0.05 0.03 0.03 0.03 0.02 0.03 0.02 0.01 0.02 0.02 0.02 0.04 0.07 0.11 0.26 0.18 0.06 0.06 0.10 0.08 0.05 0.03 0.01 0.00 0.00 0.00 0.00 0.00 0.00 0.00 0.01 0.04 0.07 0.06 0.02 0.04 0.06 0.02 0.00 0.01 0.02 0.10 0.10 0.13 0.12 0.10 0.07 0.06 0.07 0.05 0.03
0.06 0.08 0.07 0.06 0.07 0.05 0.04 0.03 0.03 0.03 0.02 0.02 0.02 0.04 0.09 0.15 0.22 0.31 0.40 0.12 0.07 0.17 0.16 0.06 0.08 0.02 0.00 0.00 0.00 0.00 0.00 0.00 0.01 0.03 0.03 0.05 0.03 0.01 0.05 0.11 0.03 0.01 0.03 0.03 0.04 0.07 0.08 0.13 0.14 0.12 0.08 0.06 0.03 0.00
0.03 0.04 0.07 0.05 0.04 0.04 0.03 0.03 0.03 0.03 0.03 0.02 0.03 0.06 0.14 0.32 0.33 0.20 0.14 0.03 0.04 0.13 0.21 0.04 0.06 0.01 0.00 0.00 0.00 0.00 0.00 0.01 0.06 0.05 0.03 0.04 0.06 0.03 0.06 0.04 0.03 0.03 0.06 0.08 0.06 0.10 0.13 0.08 0.04 0.03 0.01 0.00 0.00 0.00
0.03 0.02 0.05 0.07 0.05 0.02 0.02 0.02 0.02 0.02 0.02 0.01 0.03 0.09 0.18 0.48 0.64 0.30 0.05 0.01 0.10 0.25 0.17 0.05 0.04 0.01 0.00 0.01 0.01 0.00 0.01 0.00 0.02 0.04 0.04 0.03 0.04 0.02 0.01 0.01 0.01 0.00 0.02 0.03 0.05 0.06 0.08 0.06 0.01 0.00 0.00 0.00 0.00 0.00
0.03 0.02 0.03 0.06 0.06 0.04 0.03 0.02 0.02 0.03 0.02 0.02 0.09 0.24 0.46 0.63 0.62 0.21 0.07 0.04 0.05 0.31 0.22 0.03 0.03 0.06 0.01 0.02 0.01 0.01 0.01 0.03 0.02 0.02 0.02 0.04 0.03 0.03 0.01 0.00 0.00 0.00 0.00 0.00 0.01 0.02 0.04 0.03 0.01 0.00 0.00 0.00 0.00 0.00
0.02 0.03 0.02 0.05 0.05 0.05 0.03 0.03 0.04 0.07 0.06 0.12 0.46 0.71 0.61 0.21 0.16 0.19 0.58 0.36 0.21 0.22 0.12 0.02 0.03 0.05 0.01 0.02 0.03 0.01 0.03 0.06 0.07 0.02 0.01 0.02 0.02 0.01 0.00 0.00 0.00 0.00 0.00 0.00 0.00 0.00 0.00 0.00 0.00 0.00 0.00 0.00 0.00 0.00
0.01 0.01 0.02 0.03 0.05 0.04 0.03 0.05 0.06 0.11 0.34 0.62 0.64 0.37 0.13 0.21 0.19 0.40 0.51 0.36 0.17 0.07 0.04 0.00 0.01 0.03 0.01 0.03 0.05 0.05 0.04 0.04 0.02 0.05 0.05 0.04 0.02 0.01 0.01 0.00 0.00 0.00 0.00 0.00 0.00 0.00 0.00 0.00 0.00 0.00 0.00 0.00 0.00 0.00
0.01 0.01 0.02 0.03 0.05 0.05 0.10 0.11 0.10 0.27 0.49 0.27 0.20 0.29 0.82 0.62 0.41 0.45 0.28 0.15 0.03 0.00 0.00 0.00 0.00 0.03 0.03 0.05 0.10 0.06 0.04 0.05 0.05 0.10 0.07 0.02 0.02 0.01 0.00 0.00 0.00 0.00 0.00 0.00 0.00 0.00 0.00 0.00 0.00 0.00 0.00 0.00 0.00 0.00
0.01 0.02 0.02 0.04 0.08 0.16 0.23 0.15 0.13 0.19 0.34 0.47 0.58 0.61 0.90 0.51 0.30 0.16 0.08 0.02 0.00 0.01 0.00 0.01 0.02 0.02 0.03 0.04 0.17 0.06 0.02 0.08 0.15 0.12 0.06 0.01 0.01 0.00 0.00 0.00 0.00 0.00 0.00 0.00 0.00 0.00 0.00 0.00 0.00 0.00 0.00 0.00 0.00 0.00
0.03 0.04 0.08 0.11 0.17 0.25 0.19 0.27 0.23 0.33 0.63 0.64 0.61 0.44 0.32 0.24 0.03 0.01 0.00 0.01 0.00 0.00 0.00 0.01 0.01 0.01 0.03 0.07 0.14 0.13 0.05 0.04 0.05 0.04 0.02 0.01 0.01 0.00 0.00 0.00 0.00 0.00 0.00 0.00 0.00 0.00 0.00 0.00 0.00 0.00 0.00 0.00 0.00 0.00
0.12 0.15 0.19 0.17 0.23 0.22 0.29 0.40 0.41 0.38 0.43 0.41 0.31 0.18 0.04 0.02 0.01 0.02 0.01 0.02 0.01 0.00 0.01 0.01 0.01 0.01 0.05 0.10 0.04 0.04 0.04 0.03 0.01 0.02 0.01 0.00 0.00 0.00 0.00 0.00 0.00 0.00 0.00 0.00 0.00 0.00 0.00 0.00 0.00 0.00 0.00 0.00 0.00 0.00
0.33 0.49 0.32 0.21 0.24 0.23 0.31 0.39 0.42 0.32 0.20 0.15 0.11 0.06 0.04 0.01 0.02 0.02 0.01 0.01 0.02 0.03 0.02 0.02 0.02 0.02 0.02 0.04 0.03 0.01 0.02 0.05 0.04 0.00 0.00 0.00 0.00 0.00 0.00 0.00 0.00 0.00 0.00 0.00 0.00 0.00 0.00 0.00 0.00 0.00 0.00 0.00 0.00 0.00
0.41 0.45 0.28 0.19 0.20 0.23 0.21 0.25 0.24 0.23 0.17 0.09 0.05 0.02 0.02 0.03 0.02 0.02 0.02 0.01 0.03 0.04 0.02 0.04 0.02 0.01 0.01 0.01 0.00 0.01 0.01 0.01 0.00 0.00 0.00 0.00 0.00 0.00 0.00 0.00 0.00 0.00 0.00 0.00 0.00 0.00 0.00 0.00 0.00 0.00 0.01 0.00 0.00 0.00
0.33 0.23 0.13 0.11 0.17 0.24 0.25 0.18 0.11 0.10 0.07 0.03 0.02 0.03 0.02 0.03 0.03 0.03 0.03 0.01 0.02 0.04 0.04 0.03 0.03 0.00 0.00 0.01 0.02 0.00 0.00 0.01 0.00 0.00 0.00 0.00 0.00 0.00 0.00 0.00 0.00 0.00 0.00 0.00 0.00 0.00 0.00 0.00 0.00 0.01 0.00 0.00 0.00 0.00
0.27 0.15 0.07 0.06 0.05 0.09 0.16 0.10 0.04 0.05 0.03 0.01 0.02 0.03 0.02 0.02 0.02 0.02 0.01 0.00 0.00 0.01 0.01 0.00 0.00 0.01 0.01 0.00 0.00 0.00 0.00 0.01 0.01 0.01 0.01 0.00 0.00 0.00 0.00 0.00 0.00 0.00 0.00 0.00 0.00 0.00 0.00 0.00 0.01 0.01 0.01 0.01 0.01 0.01
0.16 0.06 0.08 0.09 0.10 0.09 0.12 0.05 0.00 0.01 0.01 0.01 0.01 0.02 0.02 0.02 0.02 0.02 0.01 0.00 0.00 0.00 0.00 0.00 0.00 0.00 0.00 0.00 0.00 0.00 0.00 0.00 0.00 0.00 0.01 0.01 0.00 0.00 0.00 0.00 0.00 0.00 0.00 0.00 0.00 0.00 0.00 0.01 0.01 0.00 0.00 0.01 0.01 0.02
0.15 0.12 0.16 0.17 0.10 0.10 0.13 0.02 0.00 0.00 0.00 0.01 0.01 0.00 0.01 0.02 0.03 0.03 0.02 0.00 0.01 0.01 0.00 0.00 0.00 0.00 0.00 0.00 0.00 0.00 0.00 0.00 0.00 0.00 0.00 0.01 0.00 0.00 0.00 0.00 0.00 0.00 0.00 0.00 0.00 0.01 0.01 0.01 0.00 0.00 0.00 0.00 0.01 0.01
0.12 0.11 0.21 0.17 0.06 0.05 0.10 0.01 0.00 0.00 0.01 0.01 0.01 0.00 0.02 0.04 0.03 0.02 0.00 0.02 0.02 0.01 0.00 0.00 0.00 0.00 0.00 0.00 0.00 0.00 0.00 0.00 0.00 0.00 0.00 0.00 0.00 0.00 0.00 0.00 0.00 0.01 0.01 0.01 0.01 0.01 0.01 0.00 0.00 0.00 0.00 0.00 0.00 0.01
0.02 0.04 0.10 0.09 0.02 0.02 0.06 0.01 0.00 0.00 0.01 0.02 0.00 0.00 0.01 0.01 0.01 0.00 0.01 0.01 0.01 0.00 0.00 0.00 0.00 0.00 0.00 0.00 0.00 0.00 0.00 0.00 0.00 0.00 0.00 0.00 0.00 0.00 0.00 0.00 0.00 0.00 0.00 0.00 0.00 0.00 0.00 0.00 0.00 0.00 0.00 0.00 0.01 0.01
0.01 0.04 0.05 0.04 0.00 0.01 0.00 0.00 0.00 0.00 0.00 0.00 0.00 0.00 0.00 0.00 0.00 0.00 0.01 0.00 0.01 0.01 0.00 0.00 0.00 0.00 0.00 0.00 0.00 0.00 0.00 0.00 0.00 0.00 0.00 0.00 0.00 0.00 0.00 0.00 0.00 0.00 0.00 0.00 0.00 0.00 0.00 0.00 0.00 0.00 0.01 0.01 0.01 0.01
0.02 0.01 0.00 0.00 0.00 0.00 0.00 0.00 0.00 0.00 0.00 0.00 0.00 0.00 0.00 0.00 0.00 0.00 0.00 0.00 0.01 0.01 0.00 0.00 0.00 0.00 0.00 0.00 0.00 0.00 0.00 0.00 0.00 0.00 0.00 0.00 0.00 0.00 0.00 0.00 0.00 0.00 0.00 0.00 0.00 0.00 0.00 0.00 0.00 0.00 0.00 0.01 0.01 0.01
0.03 0.02 0.01 0.00 0.00 0.00 0.00 0.00 0.00 0.00 0.00 0.00 0.00 0.00 0.00 0.00 0.00 0.00 0.00 0.01 0.01 0.01 0.01 0.00 0.00 0.00 0.00 0.00 0.00 0.00 0.00 0.00 0.00 0.00 0.00 0.00 0.00 0.00 0.00 0.00 0.00 0.00 0.00 0.00 0.00 0.00 0.01 0.01 0.01 0.01 0.01 0.00 0.00 0.00
0.01 0.01 0.00 0.00 0.00 0.00 0.00 0.00 0.00 0.00 0.00 0.00 0.00 0.00 0.00 0.00 0.00 0.01 0.01 0.02 0.01 0.00 0.00 0.00 0.00 0.00 0.00 0.00 0.00 0.00 0.00 0.00 0.00 0.00 0.00 0.00 0.00 0.00 0.00 0.00 0.00 0.00 0.00 0.00 0.00 0.00 0.00 0.00 0.00 0.00 0.01 0.00 0.01 0.01
0.00 0.00 0.00 0.00 0.00 0.00 0.00 0.00 0.00 0.00 0.00 0.00 0.00 0.00 0.00 0.00 0.01 0.02 0.02 0.02 0.05 0.02 0.01 0.00 0.00 0.00 0.00 0.00 0.00 0.00 0.00 0.00 0.00 0.00 0.00 0.00 0.00 0.00 0.00 0.00 0.00 0.00 0.00 0.00 0.00 0.00 0.00 0.00 0.00 0.00 0.00 0.00 0.00 0.00
0.00 0.00 0.00 0.00 0.00 0.00 0.00 0.00 0.00 0.01 0.01 0.01 0.01 0.00 0.01 0.01 0.02 0.03 0.03 0.05 0.03 0.00 0.01 0.01 0.01 0.00 0.00 0.00 0.00 0.00 0.00 0.00 0.00 0.00 0.00 0.00 0.00 0.00 0.00 0.00 0.00 0.00 0.00 0.00 0.00 0.00 0.00 0.00 0.00 0.00 0.00 0.00 0.00 0.00
0.00 0.00 0.00 0.00 0.00 0.01 0.02 0.02 0.02 0.02 0.01 0.00 0.00 0.00 0.01 0.03 0.05 0.05 0.05 0.06 0.05 0.03 0.01 0.00 0.00 0.00 0.00 0.00 0.00 0.00 0.00 0.00 0.00 0.00 0.00 0.00 0.00 0.00 0.00 0.00 0.00 0.00 0.00 0.00 0.00 0.00 0.00 0.00 0.00 0.00 0.00 0.00 0.00 0.00
0.00 0.00 0.00 0.00 0.01 0.02 0.02 0.02 0.01 0.01 0.00 0.01 0.00 0.00 0.01 0.03 0.05 0.05 0.05 0.09 0.08 0.02 0.01 0.01 0.01 0.00 0.00 0.00 0.00 0.00 0.00 0.00 0.00 0.00 0.00 0.00 0.00 0.00 0.00 0.00 0.00 0.00 0.00 0.00 0.00 0.00 0.00 0.00 0.00 0.00 0.00 0.00 0.00 0.00
0.00 0.00 0.00 0.00 0.01 0.01 0.01 0.02 0.01 0.01 0.01 0.01 0.01 0.01 0.01 0.02 0.02 0.04 0.05 0.07 0.09 0.05 0.03 0.01 0.01 0.02 0.01 0.00 0.00 0.00 0.00 0.00 0.00 0.00 0.00 0.00 0.00 0.00 0.00 0.00 0.00 0.00 0.00 0.00 0.00 0.00 0.00 0.00 0.00 0.00 0.00 0.00 0.00 0.00
0.00 0.00 0.00 0.00 0.01 0.01 0.01 0.00 0.00 0.01 0.01 0.01 0.01 0.01 0.01 0.01 0.02 0.03 0.04 0.05 0.08 0.06 0.03 0.01 0.01 0.00 0.00 0.00 0.00 0.00 0.00 0.00 0.00 0.00 0.00 0.00 0.00 0.00 0.00 0.00 0.00 0.00 0.00 0.00 0.00 0.00 0.00 0.00 0.00 0.00 0.00 0.00 0.00 0.00

GFSWCAN_prec_precacc12_111.txt.gz
Total_Precipitation_Accumulation
0.16 0.08 0.04 0.02 0.01 0.01 0.03 0.04 0.04 0.04 0.02 0.00 0.00 0.00 0.00 0.01 0.05 0.06 0.05 0.00 0.02 0.03 0.01 0.00 0.00 0.00 0.00 0.00 0.00 0.00 0.00 0.01 0.00 0.01 0.01 0.01 0.02 0.02 0.11 0.04 0.03 0.02 0.11 0.03 0.03 0.05 0.06 0.00 0.00 0.03 0.07 0.05 0.04 0.02
0.20 0.09 0.05 0.03 0.02 0.01 0.02 0.03 0.02 0.04 0.03 0.01 0.00 0.00 0.00 0.01 0.03 0.13 0.10 0.03 0.01 0.02 0.01 0.00 0.00 0.00 0.00 0.00 0.00 0.00 0.01 0.03 0.02 0.03 0.02 0.02 0.05 0.03 0.03 0.31 0.02 0.07 0.04 0.03 0.04 0.08 0.12 0.04 0.03 0.04 0.02 0.05 0.05 0.03
0.21 0.12 0.06 0.04 0.03 0.01 0.01 0.01 0.02 0.03 0.03 0.02 0.00 0.00 0.00 0.00 0.03 0.10 0.13 0.03 0.03 0.02 0.01 0.00 0.02 0.00 0.00 0.00 0.00 0.01 0.04 0.03 0.05 0.03 0.02 0.02 0.07 0.04 0.04 0.08 0.04 0.01 0.00 0.02 0.09 0.08 0.05 0.04 0.03 0.03 0.02 0.03 0.03 0.03
0.20 0.17 0.09 0.04 0.02 0.01 0.01 0.02 0.02 0.03 0.03 0.02 0.00 0.00 0.01 0.01 0.02 0.12 0.09 0.04 0.07 0.07 0.02 0.04 0.01 0.00 0.00 0.00 0.00 0.00 0.01 0.01 0.03 0.01 0.03 0.02 0.07 0.03 0.02 0.06 0.02 0.01 0.00 0.01 0.07 0.06 0.04 0.02 0.02 0.03 0.02 0.02 0.01 0.00
0.11 0.15 0.12 0.06 0.03 0.02 0.01 0.01 0.02 0.03 0.02 0.02 0.01 0.01 0.01 0.03 0.06 0.17 0.11 0.03 0.03 0.10 0.10 0.06 0.04 0.01 0.00 0.00 0.00 0.00 0.00 0.00 0.00 0.01 0.04 0.08 0.07 0.02 0.04 0.08 0.03 0.00 0.00 0.02 0.08 0.04 0.06 0.05 0.03 0.01 0.01 0.02 0.01 0.00
0.05 0.08 0.10 0.07 0.06 0.04 0.02 0.03 0.03 0.04 0.03 0.02 0.01 0.01 0.03 0.10 0.17 0.24 0.25 0.07 0.05 0.17 0.14 0.06 0.10 0.04 0.00 0.00 0.00 0.00 0.00 0.00 0.01 0.03 0.03 0.06 0.05 0.01 0.04 0.11 0.04 0.00 0.00 0.00 0.01 0.01 0.01 0.03 0.03 0.03 0.03 0.02 0.00 0.00
0.03 0.04 0.07 0.06 0.05 0.05 0.03 0.03 0.03 0.03 0.03 0.02 0.01 0.02 0.08 0.23 0.28 0.19 0.15 0.09 0.03 0.07 0.12 0.02 0.08 0.01 0.00 0.00 0.00 0.00 0.00 0.01 0.05 0.05 0.03 0.04 0.07 0.03 0.03 0.03 0.01 0.00 0.00 0.02 0.03 0.04 0.05 0.03 0.02 0.01 0.00 0.00 0.00 0.00
0.03 0.02 0.05 0.07 0.05 0.02 0.02 0.01 0.02 0.03 0.03 0.01 0.01 0.03 0.13 0.35 0.48 0.23 0.06 0.04 0.03 0.07 0.09 0.04 0.06 0.01 0.00 0.01 0.01 0.00 0.01 0.00 0.02 0.04 0.03 0.03 0.04 0.02 0.01 0.00 0.00 0.00 0.00 0.01 0.03 0.03 0.05 0.04 0.01 0.00 0.00 0.00 0.00 0.00
0.04 0.02 0.03 0.06 0.06 0.04 0.02 0.01 0.02 0.04 0.03 0.01 0.04 0.16 0.32 0.45 0.50 0.17 0.06 0.05 0.05 0.15 0.13 0.02 0.03 0.08 0.01 0.02 0.02 0.01 0.02 0.03 0.02 0.02 0.02 0.04 0.04 0.04 0.01 0.00 0.00 0.00 0.00 0.00 0.01 0.01 0.03 0.03 0.01 0.00 0.00 0.00 0.00 0.00
0.05 0.04 0.03 0.06 0.05 0.04 0.03 0.02 0.02 0.05 0.04 0.04 0.23 0.36 0.32 0.13 0.17 0.24 0.51 0.32 0.20 0.13 0.06 0.02 0.03 0.06 0.02 0.02 0.03 0.01 0.03 0.06 0.08 0.03 0.01 0.02 0.02 0.01 0.00 0.00 0.00 0.00 0.00 0.00 0.00 0.00 0.00 0.00 0.00 0.00 0.00 0.00 0.00 0.00
0.03 0.04 0.04 0.04 0.06 0.03 0.02 0.02 0.03 0.06 0.15 0.27 0.33 0.18 0.10 0.18 0.18 0.29 0.34 0.32 0.15 0.04 0.02 0.00 0.01 0.04 0.02 0.03 0.05 0.05 0.05 0.05 0.03 0.06 0.04 0.03 0.03 0.01 0.00 0.00 0.00 0.00 0.00 0.00 0.00 0.00 0.00 0.00 0.00 0.00 0.00 0.00 0.00 0.00
0.01 0.03 0.04 0.05 0.05 0.03 0.01 0.01 0.04 0.14 0.25 0.14 0.12 0.24 0.70 0.47 0.26 0.34 0.23 0.15 0.03 0.00 0.00 0.00 0.00 0.05 0.06 0.07 0.13 0.07 0.04 0.02 0.04 0.09 0.05 0.02 0.02 0.00 0.00 0.00 0.00 0.00 0.00 0.00 0.00 0.00 0.00 0.00 0.00 0.00 0.00 0.00 0.00 0.00
0.01 0.02 0.03 0.05 0.07 0.04 0.01 0.03 0.06 0.15 0.31 0.38 0.49 0.50 0.76 0.36 0.21 0.12 0.09 0.03 0.00 0.01 0.00 0.00 0.02 0.04 0.04 0.04 0.06 0.04 0.01 0.03 0.08 0.09 0.05 0.01 0.00 0.00 0.00 0.00 0.00 0.00 0.00 0.00 0.00 0.00 0.00 0.00 0.00 0.00 0.00 0.00 0.00 0.00
0.01 0.02 0.03 0.06 0.10 0.09 0.06 0.14 0.18 0.26 0.53 0.46 0.52 0.40 0.26 0.22 0.03 0.01 0.01 0.01 0.00 0.00 0.00 0.01 0.01 0.01 0.02 0.01 0.03 0.11 0.05 0.03 0.04 0.03 0.03 0.01 0.00 0.00 0.00 0.00 0.00 0.00 0.00 0.00 0.00 0.00 0.00 0.00 0.00 0.00 0.00 0.00 0.00 0.00
0.01 0.02 0.04 0.09 0.14 0.15 0.17 0.32 0.34 0.38 0.43 0.39 0.36 0.24 0.05 0.04 0.02 0.03 0.04 0.02 0.01 0.00 0.01 0.01 0.01 0.01 0.01 0.01 0.02 0.03 0.03 0.03 0.02 0.03 0.02 0.00 0.00 0.00 0.00 0.00 0.00 0.00 0.00 0.00 0.00 0.00 0.00 0.00 0.00 0.00 0.00 0.00 0.00 0.00
0.06 0.16 0.15 0.15 0.21 0.22 0.31 0.39 0.43 0.36 0.22 0.16 0.12 0.09 0.07 0.02 0.01 0.01 0.03 0.06 0.03 0.03 0.02 0.03 0.02 0.02 0.01 0.04 0.03 0.01 0.03 0.05 0.05 0.00 0.00 0.00 0.00 0.00 0.00 0.00 0.00 0.00 0.00 0.00 0.00 0.00 0.00 0.00 0.00 0.00 0.00 0.00 0.00 0.00
0.25 0.27 0.13 0.17 0.22 0.24 0.23 0.25 0.26 0.26 0.18 0.09 0.05 0.02 0.03 0.03 0.02 0.01 0.01 0.06 0.08 0.05 0.02 0.05 0.03 0.01 0.02 0.01 0.00 0.01 0.01 0.01 0.00 0.00 0.00 0.00 0.00 0.00 0.00 0.00 0.00 0.00 0.00 0.00 0.00 0.00 0.00 0.00 0.00 0.00 0.01 0.00 0.00 0.00
0.29 0.19 0.09 0.13 0.20 0.27 0.26 0.18 0.13 0.11 0.08 0.03 0.02 0.02 0.01 0.03 0.02 0.01 0.02 0.02 0.07 0.05 0.05 0.05 0.08 0.02 0.01 0.01 0.02 0.01 0.00 0.01 0.00 0.00 0.00 0.00 0.00 0.00 0.00 0.00 0.00 0.00 0.00 0.00 0.00 0.00 0.00 0.00 0.01 0.01 0.00 0.00 0.00 0.00
0.27 0.16 0.08 0.09 0.08 0.10 0.16 0.10 0.05 0.06 0.02 0.01 0.02 0.02 0.01 0.02 0.02 0.01 0.01 0.00 0.01 0.02 0.02 0.00 0.02 0.03 0.02 0.01 0.01 0.00 0.00 0.01 0.01 0.01 0.01 0.00 0.00 0.00 0.00 0.00 0.00 0.00 0.00 0.00 0.00 0.00 0.00 0.00 0.01 0.01 0.00 0.00 0.01 0.01
0.19 0.08 0.09 0.09 0.11 0.12 0.13 0.06 0.00 0.02 0.02 0.01 0.01 0.01 0.02 0.02 0.02 0.02 0.01 0.00 0.00 0.00 0.00 0.00 0.00 0.00 0.00 0.00 0.00 0.00 0.00 0.00 0.00 0.00 0.01 0.00 0.00 0.00 0.00 0.00 0.00 0.00 0.00 0.00 0.00 0.01 0.00 0.00 0.00 0.00 0.00 0.00 0.00 0.01
0.18 0.16 0.19 0.18 0.13 0.19 0.16 0.03 0.00 0.00 0.00 0.01 0.01 0.00 0.01 0.02 0.03 0.04 0.02 0.00 0.02 0.01 0.01 0.00 0.00 0.00 0.00 0.00 0.00 0.00 0.00 0.00 0.00 0.00 0.00 0.01 0.00 0.00 0.00 0.00 0.00 0.00 0.00 0.00 0.00 0.00 0.00 0.00 0.00 0.00 0.00 0.00 0.01 0.01
0.13 0.13 0.26 0.19 0.11 0.08 0.14 0.02 0.00 0.00 0.01 0.01 0.01 0.01 0.03 0.05 0.04 0.03 0.01 0.03 0.04 0.01 0.00 0.00 0.00 0.00 0.00 0.00 0.00 0.00 0.00 0.00 0.00 0.00 0.00 0.00 0.00 0.00 0.00 0.00 0.00 0.00 0.00 0.01 0.00 0.01 0.01 0.00 0.00 0.00 0.00 0.00 0.00 0.01
0.04 0.08 0.15 0.12 0.08 0.05 0.13 0.03 0.02 0.01 0.01 0.02 0.01 0.01 0.02 0.02 0.01 0.00 0.02 0.02 0.01 0.00 0.00 0.00 0.00 0.00 0.00 0.00 0.00 0.00 0.00 0.00 0.00 0.00 0.00 0.00 0.00 0.00 0.00 0.00 0.00 0.00 0.00 0.00 0.00 0.00 0.00 0.00 0.00 0.00 0.00 0.00 0.01 0.01
0.03 0.13 0.17 0.12 0.05 0.03 0.05 0.08 0.04 0.02 0.02 0.02 0.03 0.01 0.01 0.00 0.00 0.00 0.02 0.01 0.00 0.00 0.00 0.00 0.00 0.00 0.00 0.00 0.00 0.00 0.00 0.00 0.00 0.00 0.00 0.00 0.00 0.00 0.00 0.00 0.00 0.00 0.00 0.00 0.00 0.00 0.00 0.00 0.00 0.00 0.01 0.01 0.01 0.01
0.11 0.11 0.15 0.10 0.03 0.02 0.02 0.02 0.02 0.01 0.01 0.01 0.01 0.00 0.00 0.00 0.01 0.01 0.01 0.01 0.00 0.01 0.00 0.00 0.00 0.00 0.00 0.00 0.00 0.00 0.00 0.00 0.00 0.00 0.00 0.00 0.00 0.00 0.00 0.00 0.00 0.00 0.00 0.00 0.00 0.00 0.00 0.00 0.00 0.00 0.00 0.01 0.01 0.01
0.14 0.10 0.05 0.03 0.01 0.01 0.01 0.00 0.00 0.00 0.00 0.00 0.00 0.00 0.00 0.00 0.01 0.01 0.02 0.02 0.01 0.01 0.01 0.00 0.00 0.00 0.00 0.00 0.00 0.00 0.00 0.00 0.00 0.00 0.00 0.00 0.00 0.00 0.00 0.00 0.00 0.00 0.00 0.00 0.00 0.00 0.01 0.01 0.01 0.01 0.01 0.00 0.00 0.00
0.05 0.04 0.00 0.00 0.00 0.00 0.00 0.00 0.00 0.00 0.00 0.00 0.01 0.00 0.00 0.00 0.01 0.01 0.01 0.03 0.04 0.01 0.00 0.00 0.00 0.00 0.00 0.00 0.00 0.00 0.00 0.00 0.00 0.00 0.00 0.00 0.00 0.00 0.00 0.00 0.00 0.00 0.00 0.00 0.00 0.00 0.00 0.00 0.00 0.00 0.01 0.00 0.01 0.01
0.02 0.02 0.02 0.02 0.01 0.00 0.01 0.00 0.00 0.00 0.00 0.00 0.01 0.00 0.00 0.01 0.02 0.02 0.02 0.02 0.09 0.03 0.02 0.01 0.00 0.00 0.00 0.00 0.00 0.00 0.00 0.00 0.00 0.00 0.00 0.00 0.00 0.00 0.00 0.00 0.00 0.00 0.00 0.00 0.00 0.00 0.00 0.00 0.00 0.00 0.00 0.00 0.00 0.00
0.04 0.02 0.01 0.01 0.01 0.00 0.00 0.00 0.00 0.00 0.00 0.01 0.02 0.01 0.01 0.01 0.03 0.03 0.02 0.08 0.06 0.01 0.01 0.02 0.03 0.00 0.00 0.00 0.00 0.00 0.00 0.00 0.00 0.00 0.00 0.00 0.00 0.00 0.00 0.00 0.00 0.00 0.00 0.00 0.00 0.00 0.00 0.00 0.00 0.00 0.00 0.00 0.00 0.00
0.01 0.01 0.00 0.00 0.00 0.01 0.02 0.02 0.02 0.02 0.00 0.00 0.00 0.00 0.01 0.02 0.04 0.05 0.06 0.08 0.07 0.04 0.02 0.01 0.01 0.00 0.01 0.01 0.01 0.01 0.01 0.00 0.00 0.00 0.00 0.00 0.00 0.00 0.00 0.00 0.00 0.00 0.00 0.00 0.00 0.00 0.00 0.00 0.00 0.00 0.00 0.00 0.00 0.00
0.00 0.00 0.00 0.00 0.01 0.02 0.02 0.02 0.01 0.01 0.01 0.01 0.01 0.00 0.01 0.03 0.03 0.03 0.04 0.12 0.12 0.03 0.01 0.02 0.03 0.01 0.01 0.00 0.00 0.00 0.00 0.00 0.00 0.00 0.00 0.00 0.00 0.00 0.00 0.00 0.00 0.00 0.00 0.00 0.00 0.00 0.00 0.00 0.00 0.00 0.00 0.00 0.00 0.00
0.00 0.00 0.00 0.00 0.01 0.01 0.02 0.04 0.02 0.01 0.02 0.01 0.01 0.01 0.02 0.03 0.02 0.04 0.04 0.07 0.11 0.07 0.05 0.03 0.02 0.03 0.01 0.01 0.00 0.00 0.00 0.00 0.00 0.00 0.00 0.00 0.00 0.00 0.00 0.00 0.00 0.00 0.00 0.00 0.00 0.00 0.00 0.00 0.00 0.00 0.00 0.00 0.00 0.00
0.00 0.00 0.00 0.00 0.01 0.01 0.01 0.01 0.01 0.01 0.02 0.02 0.02 0.02 0.03 0.02 0.02 0.04 0.04 0.06 0.11 0.07 0.05 0.02 0.02 0.01 0.00 0.00 0.00 0.00 0.00 0.00 0.00 0.00 0.00 0.00 0.00 0.00 0.00 0.00 0.00 0.00 0.00 0.00 0.00 0.00 0.00 0.00 0.00 0.00 0.00 0.00 0.00 0.00

GFSWCAN_prec_precacc12_114.txt.gz
Total_Precipitation_Accumulation
0.17 0.11 0.08 0.05 0.04 0.02 0.02 0.03 0.04 0.03 0.01 0.00 0.00 0.00 0.00 0.00 0.01 0.04 0.04 0.00 0.02 0.03 0.01 0.00 0.00 0.00 0.00 0.00 0.00 0.00 0.00 0.00 0.00 0.01 0.01 0.01 0.02 0.02 0.11 0.03 0.02 0.01 0.10 0.03 0.03 0.04 0.05 0.00 0.01 0.05 0.11 0.07 0.04 0.03
0.21 0.09 0.06 0.04 0.04 0.03 0.02 0.02 0.03 0.03 0.02 0.01 0.00 0.00 0.00 0.00 0.01 0.06 0.08 0.03 0.01 0.02 0.00 0.00 0.00 0.00 0.00 0.00 0.00 0.00 0.01 0.03 0.02 0.03 0.02 0.01 0.03 0.03 0.02 0.30 0.01 0.04 0.02 0.02 0.02 0.04 0.07 0.03 0.04 0.06 0.02 0.03 0.02 0.01
0.25 0.14 0.06 0.03 0.04 0.03 0.01 0.01 0.02 0.03 0.03 0.01 0.00 0.00 0.00 0.00 0.01 0.04 0.07 0.02 0.01 0.01 0.00 0.00 0.02 0.00 0.00 0.00 0.00 0.01 0.04 0.03 0.04 0.02 0.02 0.02 0.06 0.04 0.03 0.07 0.03 0.01 0.00 0.02 0.06 0.07 0.03 0.02 0.01 0.01 0.01 0.01 0.00 0.00
0.23 0.21 0.11 0.06 0.03 0.02 0.01 0.00 0.01 0.02 0.03 0.02 0.00 0.00 0.00 0.00 0.01 0.04 0.03 0.02 0.04 0.05 0.02 0.04 0.01 0.00 0.00 0.00 0.00 0.00 0.01 0.01 0.02 0.01 0.02 0.02 0.07 0.03 0.02 0.06 0.02 0.01 0.00 0.01 0.05 0.05 0.02 0.01 0.01 0.01 0.00 0.00 0.00 0.00
0.15 0.23 0.16 0.08 0.04 0.02 0.01 0.00 0.01 0.02 0.02 0.02 0.01 0.00 0.00 0.00 0.01 0.05 0.06 0.01 0.01 0.05 0.09 0.06 0.04 0.01 0.00 0.00 0.00 0.00 0.00 0.00 0.00 0.00 0.04 0.07 0.07 0.01 0.03 0.08 0.03 0.00 0.00 0.02 0.06 0.03 0.04 0.03 0.00 0.00 0.00 0.00 0.00 0.00
0.10 0.19 0.17 0.09 0.07 0.04 0.01 0.02 0.01 0.03 0.03 0.02 0.01 0.00 0.00 0.03 0.05 0.10 0.12 0.03 0.02 0.09 0.11 0.06 0.10 0.05 0.00 0.00 0.00 0.00 0.00 0.00 0.00 0.01 0.03 0.05 0.05 0.01 0.03 0.11 0.03 0.00 0.00 0.00 0.01 0.00 0.00 0.01 0.01 0.00 0.00 0.00 0.00 0.00
0.06 0.13 0.15 0.07 0.05 0.06 0.02 0.02 0.02 0.03 0.04 0.03 0.01 0.00 0.01 0.10 0.17 0.11 0.11 0.11 0.03 0.04 0.07 0.02 0.08 0.01 0.00 0.00 0.00 0.00 0.00 0.01 0.03 0.04 0.03 0.04 0.06 0.03 0.02 0.03 0.01 0.00 0.00 0.00 0.00 0.01 0.03 0.01 0.01 0.00 0.00 0.00 0.00 0.00
0.05 0.08 0.11 0.07 0.05 0.03 0.02 0.01 0.02 0.02 0.03 0.03 0.01 0.00 0.04 0.16 0.32 0.15 0.08 0.07 0.03 0.02 0.02 0.03 0.06 0.01 0.00 0.01 0.01 0.00 0.01 0.00 0.01 0.03 0.03 0.01 0.04 0.02 0.00 0.00 0.00 0.00 0.00 0.00 0.00 0.00 0.02 0.02 0.01 0.00 0.00 0.00 0.00 0.00
0.06 0.05 0.05 0.05 0.06 0.04 0.02 0.01 0.01 0.04 0.04 0.02 0.00 0.06 0.18 0.24 0.31 0.12 0.06 0.06 0.05 0.07 0.06 0.01 0.03 0.08 0.01 0.02 0.02 0.01 0.01 0.03 0.02 0.02 0.01 0.03 0.03 0.04 0.01 0.00 0.00 0.00 0.00 0.00 0.00 0.00 0.00 0.01 0.01 0.00 0.00 0.00 0.00 0.00
0.06 0.04 0.03 0.04 0.05 0.04 0.02 0.00 0.01 0.06 0.05 0.02 0.08 0.21 0.19 0.07 0.16 0.25 0.39 0.25 0.18 0.12 0.03 0.02 0.03 0.06 0.01 0.01 0.02 0.01 0.03 0.06 0.08 0.02 0.01 0.02 0.02 0.01 0.00 0.00 0.00 0.00 0.00 0.00 0.00 0.00 0.00 0.00 0.00 0.00 0.00 0.00 0.00 0.00
0.06 0.04 0.04 0.04 0.05 0.03 0.01 0.01 0.03 0.07 0.08 0.09 0.15 0.09 0.08 0.15 0.22 0.29 0.24 0.25 0.13 0.03 0.01 0.00 0.01 0.04 0.02 0.03 0.05 0.05 0.05 0.04 0.02 0.05 0.03 0.02 0.03 0.00 0.00 0.00 0.00 0.00 0.00 0.00 0.00 0.00 0.00 0.00 0.00 0.00 0.00 0.00 0.00 0.00
0.05 0.05 0.05 0.05 0.06 0.03 0.01 0.01 0.04 0.06 0.09 0.07 0.07 0.25 0.59 0.37 0.19 0.30 0.19 0.12 0.02 0.00 0.00 0.00 0.00 0.05 0.05 0.07 0.12 0.06 0.04 0.02 0.03 0.08 0.04 0.02 0.02 0.00 0.00 0.00 0.00 0.00 0.00 0.00 0.00 0.00 0.00 0.00 0.00 0.00 0.00 0.00 0.00 0.00
0.03 0.04 0.04 0.07 0.08 0.04 0.01 0.01 0.02 0.07 0.12 0.11 0.32 0.44 0.54 0.21 0.13 0.09 0.10 0.04 0.00 0.01 0.00 0.00 0.01 0.04 0.04 0.04 0.05 0.02 0.01 0.03 0.05 0.05 0.04 0.01 0.00 0.00 0.00 0.00 0.00 0.00 0.00 0.00 0.00 0.00 0.00 0.00 0.00 0.00 0.00 0.00 0.00 0.00
0.02 0.03 0.05 0.08 0.11 0.07 0.01 0.02 0.04 0.10 0.19 0.17 0.34 0.32 0.18 0.13 0.02 0.01 0.01 0.01 0.01 0.00 0.00 0.00 0.01 0.01 0.02 0.01 0.01 0.05 0.04 0.03 0.03 0.03 0.03 0.01 0.00 0.00 0.00 0.00 0.00 0.00 0.00 0.00 0.00 0.00 0.00 0.00 0.00 0.00 0.00 0.00 0.00 0.00
0.01 0.02 0.05 0.10 0.12 0.07 0.03 0.05 0.09 0.21 0.22 0.23 0.33 0.23 0.03 0.04 0.02 0.03 0.04 0.02 0.01 0.00 0.01 0.01 0.01 0.01 0.00 0.00 0.00 0.02 0.03 0.03 0.01 0.03 0.02 0.00 0.00 0.00 0.00 0.00 0.00 0.00 0.00 0.00 0.00 0.00 0.00 0.00 0.00 0.00 0.00 0.00 0.00 0.00
0.02 0.06 0.06 0.08 0.12 0.12 0.13 0.22 0.32 0.32 0.16 0.13 0.13 0.12 0.09 0.02 0.00 0.01 0.04 0.09 0.05 0.04 0.02 0.03 0.02 0.01 0.00 0.01 0.01 0.01 0.03 0.05 0.05 0.00 0.00 0.00 0.00 0.00 0.00 0.00 0.00 0.00 0.00 0.00 0.00 0.00 0.00 0.00 0.00 0.00 0.00 0.00 0.00 0.00
0.06 0.05 0.03 0.09 0.14 0.20 0.19 0.23 0.25 0.26 0.16 0.08 0.05 0.05 0.06 0.04 0.01 0.01 0.01 0.09 0.15 0.08 0.02 0.05 0.03 0.01 0.02 0.02 0.00 0.01 0.01 0.01 0.00 0.00 0.00 0.00 0.00 0.00 0.00 0.00 0.00 0.00 0.00 0.00 0.00 0.00 0.00 0.00 0.00 0.00 0.01 0.00 0.00 0.00
0.07 0.06 0.05 0.15 0.23 0.27 0.25 0.18 0.13 0.12 0.08 0.02 0.01 0.02 0.02 0.02 0.02 0.00 0.01 0.04 0.11 0.06 0.06 0.06 0.08 0.02 0.01 0.01 0.03 0.01 0.00 0.00 0.00 0.00 0.00 0.00 0.00 0.00 0.00 0.00 0.00 0.00 0.00 0.00 0.00 0.00 0.00 0.00 0.01 0.01 0.00 0.00 0.00 0.00
0.15 0.09 0.11 0.14 0.08 0.10 0.16 0.10 0.06 0.08 0.02 0.01 0.01 0.01 0.01 0.01 0.01 0.00 0.00 0.00 0.04 0.05 0.03 0.00 0.02 0.03 0.02 0.01 0.01 0.00 0.00 0.01 0.01 0.01 0.01 0.00 0.00 0.00 0.00 0.00 0.00 0.00 0.00 0.00 0.00 0.00 0.00 0.00 0.01 0.01 0.00 0.00 0.00 0.00
0.18 0.09 0.09 0.10 0.12 0.13 0.14 0.06 0.00 0.03 0.02 0.01 0.01 0.01 0.01 0.01 0.01 0.01 0.01 0.00 0.00 0.01 0.02 0.00 0.00 0.00 0.00 0.00 0.00 0.00 0.00 0.00 0.00 0.01 0.01 0.01 0.00 0.00 0.00 0.00 0.00 0.00 0.00 0.00 0.00 0.01 0.00 0.00 0.00 0.00 0.00 0.00 0.00 0.00
0.22 0.18 0.20 0.19 0.14 0.20 0.17 0.03 0.00 0.00 0.00 0.01 0.00 0.00 0.01 0.02 0.03 0.04 0.02 0.01 0.03 0.04 0.02 0.00 0.00 0.00 0.00 0.00 0.00 0.00 0.00 0.00 0.00 0.00 0.00 0.01 0.00 0.00 0.00 0.00 0.00 0.00 0.00 0.00 0.00 0.00 0.00 0.00 0.00 0.00 0.00 0.00 0.00 0.00
0.15 0.19 0.35 0.20 0.15 0.11 0.16 0.03 0.01 0.00 0.01 0.01 0.01 0.01 0.02 0.04 0.04 0.03 0.01 0.04 0.04 0.01 0.00 0.00 0.00 0.00 0.00 0.00 0.00 0.00 0.00 0.00 0.00 0.00 0.00 0.00 0.00 0.00 0.00 0.00 0.00 0.00 0.00 0.00 0.00 0.00 0.00 0.00 0.00 0.00 0.00 0.00 0.00 0.00
0.04 0.08 0.15 0.12 0.09 0.06 0.14 0.05 0.03 0.01 0.01 0.02 0.02 0.02 0.02 0.02 0.01 0.00 0.02 0.03 0.02 0.00 0.00 0.00 0.00 0.00 0.00 0.00 0.00 0.00 0.00 0.00 0.00 0.00 0.00 0.00 0.00 0.00 0.00 0.00 0.00 0.00 0.00 0.00 0.00 0.00 0.00 0.00 0.00 0.00 0.00 0.00 0.00 0.01
0.04 0.15 0.18 0.12 0.06 0.04 0.06 0.10 0.05 0.03 0.04 0.03 0.03 0.02 0.01 0.00 0.00 0.01 0.03 0.01 0.00 0.00 0.00 0.00 0.00 0.00 0.00 0.00 0.00 0.00 0.00 0.00 0.00 0.00 0.00 0.00 0.00 0.00 0.00 0.00 0.00 0.00 0.00 0.00 0.00 0.00 0.00 0.00 0.00 0.00 0.00 0.00 0.00 0.01
0.12 0.13 0.16 0.11 0.05 0.03 0.02 0.03 0.05 0.02 0.02 0.01 0.03 0.01 0.01 0.00 0.01 0.01 0.01 0.01 0.00 0.00 0.00 0.00 0.00 0.00 0.00 0.00 0.00 0.00 0.00 0.00 0.00 0.00 0.00 0.00 0.00 0.00 0.00 0.00 0.00 0.00 0.00 0.00 0.00 0.00 0.00 0.00 0.00 0.00 0.00 0.00 0.00 0.00
0.18 0.12 0.07 0.05 0.02 0.01 0.01 0.01 0.01 0.00 0.00 0.01 0.01 0.00 0.00 0.01 0.01 0.02 0.03 0.03 0.01 0.00 0.00 0.00 0.00 0.00 0.00 0.00 0.00 0.00 0.00 0.00 0.00 0.00 0.00 0.00 0.00 0.00 0.00 0.00 0.00 0.00 0.00 0.00 0.00 0.00 0.00 0.00 0.00 0.00 0.00 0.00 0.00 0.00
0.12 0.08 0.02 0.01 0.01 0.02 0.01 0.01 0.00 0.00 0.00 0.00 0.01 0.00 0.00 0.01 0.01 0.02 0.02 0.05 0.06 0.01 0.00 0.00 0.00 0.00 0.00 0.00 0.00 0.00 0.00 0.00 0.00 0.00 0.00 0.00 0.00 0.00 0.00 0.00 0.00 0.00 0.00 0.00 0.00 0.00 0.00 0.00 0.00 0.00 0.00 0.00 0.01 0.01
0.06 0.05 0.05 0.07 0.05 0.02 0.01 0.01 0.00 0.00 0.00 0.00 0.01 0.01 0.01 0.01 0.03 0.03 0.02 0.04 0.13 0.04 0.03 0.02 0.00 0.00 0.00 0.00 0.00 0.00 0.00 0.00 0.00 0.00 0.00 0.00 0.00 0.00 0.00 0.00 0.00 0.00 0.00 0.00 0.00 0.00 0.00 0.00 0.00 0.00 0.00 0.00 0.00 0.00
0.07 0.07 0.06 0.07 0.07 0.05 0.03 0.02 0.01 0.00 0.00 0.02 0.03 0.01 0.01 0.01 0.04 0.03 0.03 0.11 0.08 0.01 0.02 0.03 0.05 0.01 0.00 0.00 0.00 0.00 0.00 0.00 0.00 0.00 0.00 0.00 0.00 0.00 0.00 0.00 0.00 0.00 0.00 0.00 0.00 0.00 0.00 0.00 0.00 0.00 0.00 0.00 0.00 0.00
0.07 0.08 0.05 0.04 0.03 0.03 0.03 0.03 0.02 0.02 0.00 0.00 0.00 0.00 0.01 0.03 0.05 0.05 0.06 0.08 0.07 0.05 0.03 0.02 0.03 0.01 0.01 0.01 0.02 0.02 0.01 0.00 0.00 0.00 0.00 0.00 0.00 0.00 0.00 0.00 0.00 0.00 0.00 0.00 0.00 0.00 0.00 0.00 0.00 0.00 0.00 0.00 0.00 0.00
0.02 0.04 0.02 0.02 0.03 0.03 0.02 0.02 0.02 0.01 0.01 0.01 0.01 0.00 0.01 0.02 0.03 0.02 0.03 0.12 0.13 0.03 0.02 0.04 0.05 0.03 0.01 0.01 0.00 0.00 0.01 0.00 0.00 0.00 0.00 0.00 0.00 0.00 0.00 0.00 0.00 0.00 0.00 0.00 0.00 0.00 0.00 0.00 0.00 0.00 0.00 0.00 0.00 0.00
0.01 0.01 0.00 0.00 0.01 0.01 0.02 0.04 0.03 0.02 0.02 0.01 0.01 0.01 0.02 0.02 0.02 0.03 0.05 0.08 0.12 0.07 0.06 0.03 0.03 0.05 0.02 0.01 0.00 0.00 0.00 0.00 0.00 0.00 0.00 0.00 0.00 0.00 0.00 0.00 0.00 0.00 0.00 0.00 0.00 0.00 0.00 0.00 0.00 0.00 0.00 0.00 0.00 0.00
0.00 0.00 0.00 0.00 0.01 0.01 0.01 0.02 0.01 0.02 0.02 0.02 0.03 0.03 0.03 0.02 0.02 0.04 0.05 0.09 0.12 0.06 0.04 0.03 0.03 0.03 0.01 0.00 0.00 0.00 0.00 0.00 0.00 0.00 0.00 0.00 0.00 0.00 0.00 0.00 0.00 0.00 0.00 0.00 0.00 0.00 0.00 0.00 0.00 0.00 0.00 0.00 0.00 0.00

GFSWCAN_prec_precacc12_117.txt.gz
Total_Precipitation_Accumulation
0.21 0.18 0.15 0.08 0.08 0.04 0.04 0.04 0.04 0.03 0.00 0.00 0.00 0.00 0.00 0.00 0.00 0.02 0.03 0.00 0.01 0.01 0.00 0.00 0.00 0.00 0.00 0.00 0.00 0.00 0.00 0.00 0.00 0.00 0.00 0.00 0.00 0.02 0.11 0.03 0.01 0.01 0.08 0.02 0.02 0.03 0.03 0.00 0.01 0.05 0.10 0.07 0.05 0.03
0.24 0.16 0.17 0.10 0.07 0.05 0.03 0.04 0.02 0.02 0.01 0.00 0.00 0.00 0.00 0.00 0.00 0.02 0.06 0.03 0.01 0.01 0.00 0.00 0.00 0.00 0.00 0.00 0.00 0.00 0.01 0.02 0.01 0.02 0.01 0.00 0.01 0.02 0.02 0.25 0.00 0.01 0.01 0.01 0.02 0.04 0.07 0.03 0.05 0.05 0.02 0.02 0.01 0.00
0.25 0.17 0.12 0.07 0.06 0.05 0.03 0.03 0.02 0.03 0.02 0.01 0.00 0.00 0.00 0.00 0.00 0.01 0.04 0.01 0.00 0.00 0.00 0.00 0.01 0.00 0.00 0.00 0.00 0.00 0.03 0.02 0.03 0.01 0.01 0.01 0.03 0.02 0.02 0.05 0.02 0.01 0.00 0.01 0.04 0.08 0.03 0.02 0.01 0.00 0.00 0.00 0.00 0.00
0.23 0.20 0.11 0.06 0.05 0.03 0.03 0.03 0.01 0.02 0.02 0.02 0.00 0.00 0.00 0.00 0.00 0.01 0.02 0.01 0.01 0.02 0.01 0.03 0.01 0.00 0.00 0.00 0.00 0.00 0.00 0.00 0.01 0.00 0.02 0.01 0.05 0.02 0.01 0.03 0.01 0.00 0.00 0.00 0.03 0.04 0.02 0.02 0.00 0.00 0.00 0.00 0.00 0.00
0.17 0.21 0.14 0.07 0.05 0.02 0.03 0.03 0.01 0.02 0.02 0.02 0.01 0.00 0.00 0.00 0.00 0.01 0.03 0.00 0.00 0.03 0.05 0.04 0.03 0.00 0.00 0.00 0.00 0.00 0.00 0.00 0.00 0.00 0.02 0.04 0.05 0.01 0.02 0.07 0.03 0.00 0.00 0.01 0.04 0.02 0.02 0.02 0.00 0.00 0.00 0.00 0.00 0.00
0.14 0.19 0.16 0.07 0.05 0.04 0.03 0.04 0.02 0.02 0.03 0.03 0.01 0.00 0.00 0.01 0.01 0.04 0.03 0.01 0.00 0.04 0.05 0.03 0.08 0.05 0.00 0.00 0.00 0.00 0.00 0.00 0.00 0.00 0.01 0.03 0.04 0.00 0.02 0.08 0.03 0.00 0.00 0.00 0.00 0.00 0.00 0.00 0.00 0.00 0.00 0.00 0.00 0.00
0.12 0.16 0.15 0.06 0.04 0.06 0.02 0.01 0.02 0.02 0.03 0.03 0.01 0.00 0.01 0.03 0.04 0.04 0.06 0.11 0.02 0.01 0.03 0.01 0.05 0.01 0.00 0.00 0.00 0.00 0.00 0.00 0.00 0.01 0.01 0.02 0.05 0.02 0.01 0.02 0.00 0.00 0.00 0.00 0.00 0.00 0.01 0.01 0.00 0.00 0.00 0.00 0.00 0.00
0.09 0.16 0.15 0.05 0.03 0.03 0.01 0.01 0.02 0.02 0.04 0.03 0.01 0.00 0.02 0.08 0.13 0.07 0.06 0.07 0.03 0.01 0.01 0.01 0.04 0.01 0.00 0.00 0.01 0.00 0.00 0.00 0.00 0.02 0.02 0.00 0.02 0.02 0.00 0.00 0.00 0.00 0.00 0.00 0.00 0.00 0.00 0.00 0.00 0.00 0.00 0.00 0.00 0.00
0.12 0.17 0.09 0.03 0.03 0.03 0.01 0.00 0.01 0.04 0.05 0.02 0.00 0.03 0.08 0.11 0.12 0.07 0.06 0.07 0.04 0.04 0.03 0.01 0.02 0.05 0.00 0.01 0.01 0.00 0.01 0.01 0.01 0.01 0.01 0.01 0.02 0.03 0.01 0.00 0.00 0.00 0.00 0.00 0.00 0.00 0.00 0.00 0.00 0.00 0.00 0.00 0.00 0.00
0.18 0.16 0.04 0.03 0.02 0.02 0.02 0.01 0.02 0.05 0.06 0.02 0.04 0.09 0.10 0.03 0.10 0.21 0.26 0.18 0.14 0.09 0.02 0.01 0.02 0.05 0.01 0.01 0.01 0.00 0.01 0.02 0.05 0.02 0.01 0.01 0.01 0.01 0.00 0.00 0.00 0.00 0.00 0.00 0.00 0.00 0.00 0.00 0.00 0.00 0.00 0.00 0.00 0.00
0.19 0.09 0.03 0.03 0.03 0.01 0.01 0.01 0.03 0.08 0.07 0.04 0.06 0.05 0.06 0.08 0.18 0.25 0.18 0.18 0.11 0.02 0.01 0.00 0.01 0.03 0.01 0.02 0.03 0.03 0.03 0.03 0.01 0.03 0.02 0.01 0.02 0.00 0.00 0.00 0.00 0.00 0.00 0.00 0.00 0.00 0.00 0.00 0.00 0.00 0.00 0.00 0.00 0.00
0.11 0.06 0.05 0.04 0.03 0.02 0.01 0.01 0.03 0.03 0.03 0.02 0.06 0.21 0.42 0.27 0.18 0.28 0.16 0.09 0.01 0.00 0.00 0.00 0.00 0.04 0.04 0.05 0.08 0.04 0.03 0.01 0.01 0.05 0.02 0.01 0.01 0.00 0.00 0.00 0.00 0.00 0.00 0.00 0.00 0.00 0.00 0.00 0.00 0.00 0.00 0.00 0.00 0.00
0.07 0.05 0.04 0.05 0.05 0.03 0.00 0.00 0.00 0.07 0.06 0.09 0.22 0.35 0.33 0.14 0.12 0.08 0.09 0.03 0.00 0.00 0.00 0.00 0.01 0.03 0.03 0.03 0.04 0.01 0.01 0.01 0.03 0.03 0.02 0.01 0.00 0.00 0.00 0.00 0.00 0.00 0.00 0.00 0.00 0.00 0.00 0.00 0.00 0.00 0.00 0.00 0.00 0.00
0.08 0.05 0.05 0.07 0.08 0.05 0.01 0.02 0.04 0.07 0.07 0.08 0.19 0.23 0.11 0.07 0.01 0.01 0.01 0.01 0.01 0.00 0.00 0.00 0.00 0.01 0.01 0.01 0.01 0.01 0.02 0.02 0.01 0.02 0.02 0.00 0.00 0.00 0.00 0.00 0.00 0.00 0.00 0.00 0.00 0.00 0.00 0.00 0.00 0.00 0.00 0.00 0.00 0.00
0.07 0.04 0.06 0.10 0.10 0.07 0.03 0.04 0.03 0.07 0.08 0.08 0.15 0.18 0.03 0.03 0.02 0.03 0.04 0.02 0.01 0.00 0.00 0.00 0.01 0.00 0.00 0.00 0.00 0.00 0.01 0.02 0.01 0.02 0.01 0.00 0.00 0.00 0.00 0.00 0.00 0.00 0.00 0.00 0.00 0.00 0.00 0.00 0.00 0.00 0.00 0.00 0.00 0.00
0.07 0.10 0.06 0.09 0.13 0.11 0.07 0.07 0.04 0.10 0.04 0.04 0.04 0.12 0.09 0.02 0.00 0.00 0.03 0.08 0.05 0.03 0.02 0.02 0.02 0.01 0.00 0.01 0.00 0.00 0.01 0.03 0.03 0.00 0.00 0.00 0.00 0.00 0.00 0.00 0.00 0.00 0.00 0.00 0.00 0.00 0.00 0.00 0.00 0.00 0.00 0.00 0.00 0.00
0.07 0.05 0.06 0.12 0.13 0.11 0.05 0.02 0.04 0.08 0.03 0.02 0.03 0.05 0.07 0.03 0.01 0.00 0.00 0.09 0.15 0.07 0.01 0.04 0.03 0.01 0.01 0.01 0.00 0.01 0.01 0.01 0.00 0.00 0.00 0.00 0.00 0.00 0.00 0.00 0.00 0.00 0.00 0.00 0.00 0.00 0.00 0.00 0.00 0.00 0.01 0.00 0.00 0.00
0.03 0.06 0.07 0.13 0.13 0.10 0.07 0.05 0.05 0.04 0.03 0.01 0.01 0.02 0.04 0.02 0.01 0.00 0.01 0.04 0.11 0.06 0.06 0.06 0.08 0.02 0.01 0.01 0.03 0.01 0.00 0.00 0.00 0.00 0.00 0.00 0.00 0.00 0.00 0.00 0.00 0.00 0.00 0.00 0.00 0.00 0.00 0.00 0.01 0.01 0.00 0.00 0.00 0.00
0.07 0.10 0.12 0.12 0.04 0.05 0.08 0.05 0.05 0.08 0.02 0.00 0.00 0.00 0.01 0.00 0.00 0.00 0.00 0.01 0.06 0.07 0.03 0.00 0.02 0.03 0.02 0.01 0.01 0.00 0.00 0.00 0.01 0.01 0.00 0.00 0.00 0.00 0.00 0.00 0.00 0.00 0.00 0.00 0.00 0.00 0.00 0.00 0.01 0.00 0.00 0.00 0.00 0.00
0.10 0.07 0.06 0.05 0.09 0.12 0.10 0.04 0.00 0.03 0.01 0.00 0.00 0.00 0.01 0.01 0.00 0.00 0.00 0.00 0.01 0.12 0.10 0.01 0.00 0.00 0.00 0.00 0.00 0.00 0.00 0.00 0.00 0.01 0.02 0.01 0.00 0.00 0.00 0.00 0.00 0.00 0.00 0.00 0.00 0.00 0.00 0.00 0.00 0.00 0.00 0.00 0.00 0.00
0.21 0.18 0.22 0.17 0.14 0.20 0.16 0.02 0.00 0.00 0.00 0.01 0.00 0.00 0.00 0.01 0.02 0.02 0.01 0.01 0.02 0.04 0.04 0.00 0.00 0.00 0.00 0.00 0.00 0.00 0.00 0.00 0.00 0.00 0.00 0.01 0.00 0.00 0.00 0.00 0.00 0.00 0.00 0.00 0.00 0.00 0.00 0.00 0.00 0.00 0.00 0.00 0.00 0.00
0.20 0.32 0.43 0.21 0.15 0.11 0.16 0.03 0.01 0.00 0.01 0.01 0.01 0.01 0.01 0.03 0.02 0.02 0.00 0.03 0.04 0.01 0.00 0.00 0.00 0.00 0.00 0.00 0.00 0.00 0.00 0.00 0.00 0.00 0.00 0.00 0.00 0.00 0.00 0.00 0.00 0.00 0.00 0.00 0.00 0.00 0.00 0.00 0.00 0.00 0.00 0.00 0.00 0.00
0.06 0.09 0.15 0.12 0.09 0.07 0.15 0.07 0.05 0.01 0.01 0.02 0.03 0.01 0.02 0.02 0.01 0.00 0.02 0.02 0.02 0.00 0.00 0.00 0.00 0.00 0.00 0.00 0.00 0.00 0.00 0.00 0.00 0.00 0.00 0.00 0.00 0.00 0.00 0.00 0.00 0.00 0.00 0.00 0.00 0.00 0.00 0.00 0.00 0.00 0.00 0.00 0.00 0.00
0.04 0.15 0.18 0.12 0.06 0.04 0.07 0.15 0.08 0.04 0.04 0.03 0.04 0.02 0.01 0.01 0.01 0.01 0.03 0.01 0.00 0.00 0.00 0.00 0.00 0.00 0.00 0.00 0.00 0.00 0.00 0.00 0.00 0.00 0.00 0.00 0.00 0.00 0.00 0.00 0.00 0.00 0.00 0.00 0.00 0.00 0.00 0.00 0.00 0.00 0.00 0.00 0.00 0.00
0.12 0.13 0.16 0.11 0.05 0.03 0.03 0.04 0.06 0.03 0.02 0.01 0.03 0.01 0.01 0.00 0.01 0.01 0.01 0.01 0.00 0.00 0.00 0.00 0.00 0.00 0.00 0.00 0.00 0.00 0.00 0.00 0.00 0.00 0.00 0.00 0.00 0.00 0.00 0.00 0.00 0.00 0.00 0.00 0.00 0.00 0.00 0.00 0.00 0.00 0.00 0.00 0.00 0.00
0.19 0.12 0.07 0.05 0.02 0.01 0.01 0.01 0.01 0.00 0.00 0.02 0.02 0.01 0.00 0.01 0.02 0.02 0.03 0.03 0.01 0.00 0.00 0.00 0.00 0.00 0.00 0.00 0.00 0.00 0.00 0.00 0.00 0.00 0.00 0.00 0.00 0.00 0.00 0.00 0.00 0.00 0.00 0.00 0.00 0.00 0.00 0.00 0.00 0.00 0.00 0.00 0.00 0.00
0.14 0.09 0.03 0.01 0.02 0.03 0.02 0.01 0.00 0.00 0.00 0.00 0.01 0.01 0.01 0.01 0.01 0.03 0.02 0.05 0.06 0.02 0.00 0.00 0.00 0.00 0.00 0.00 0.00 0.00 0.00 0.00 0.00 0.00 0.00 0.00 0.00 0.00 0.00 0.00 0.00 0.00 0.00 0.00 0.00 0.00 0.00 0.00 0.00 0.00 0.00 0.00 0.00 0.01
0.07 0.06 0.07 0.10 0.09 0.05 0.04 0.02 0.01 0.00 0.00 0.00 0.01 0.01 0.01 0.01 0.03 0.03 0.02 0.04 0.12 0.06 0.04 0.02 0.01 0.00 0.00 0.00 0.00 0.00 0.00 0.00 0.00 0.00 0.00 0.00 0.00 0.00 0.00 0.00 0.00 0.00 0.00 0.00 0.00 0.00 0.00 0.00 0.00 0.00 0.00 0.00 0.00 0.00
0.08 0.08 0.09 0.11 0.11 0.09 0.07 0.05 0.02 0.01 0.00 0.02 0.03 0.01 0.01 0.01 0.03 0.03 0.03 0.10 0.09 0.02 0.02 0.03 0.07 0.01 0.00 0.00 0.00 0.00 0.00 0.00 0.00 0.00 0.00 0.00 0.00 0.00 0.00 0.00 0.00 0.00 0.00 0.00 0.00 0.00 0.00 0.00 0.00 0.00 0.00 0.00 0.00 0.00
0.09 0.10 0.10 0.08 0.07 0.06 0.04 0.04 0.03 0.02 0.02 0.02 0.01 0.01 0.01 0.02 0.05 0.05 0.05 0.06 0.05 0.04 0.03 0.03 0.04 0.02 0.02 0.02 0.02 0.03 0.02 0.00 0.00 0.00 0.00 0.00 0.00 0.00 0.00 0.00 0.00 0.00 0.00 0.00 0.00 0.00 0.00 0.00 0.00 0.00 0.00 0.00 0.00 0.00
0.09 0.11 0.08 0.07 0.06 0.05 0.04 0.04 0.04 0.03 0.02 0.02 0.02 0.01 0.01 0.02 0.03 0.02 0.03 0.10 0.11 0.02 0.02 0.05 0.07 0.05 0.03 0.02 0.01 0.01 0.01 0.01 0.00 0.00 0.00 0.00 0.00 0.00 0.00 0.00 0.00 0.00 0.00 0.00 0.00 0.00 0.00 0.00 0.00 0.00 0.00 0.00 0.00 0.00
0.04 0.05 0.03 0.02 0.02 0.02 0.03 0.05 0.03 0.02 0.02 0.01 0.01 0.01 0.02 0.02 0.01 0.02 0.04 0.07 0.11 0.06 0.06 0.04 0.03 0.06 0.04 0.02 0.01 0.00 0.00 0.00 0.00 0.00 0.00 0.00 0.00 0.00 0.00 0.00 0.00 0.00 0.00 0.00 0.00 0.00 0.00 0.00 0.00 0.00 0.00 0.00 0.00 0.00
0.01 0.00 0.00 0.00 0.00 0.01 0.01 0.02 0.01 0.02 0.02 0.02 0.03 0.03 0.03 0.01 0.02 0.03 0.04 0.09 0.11 0.05 0.04 0.03 0.04 0.04 0.02 0.01 0.00 0.00 0.00 0.00 0.00 0.00 0.00 0.00 0.00 0.00 0.00 0.00 0.00 0.00 0.00 0.00 0.00 0.00 0.00 0.00 0.00 0.00 0.00 0.00 0.00 0.00

GFSWCAN_prec_precacc12_123.txt.gz
Total_Precipitation_Accumulation
0.17 0.18 0.16 0.15 0.18 0.11 0.06 0.07 0.05 0.01 0.00 0.00 0.00 0.00 0.00 0.00 0.00 0.00 0.00 0.00 0.00 0.00 0.00 0.00 0.00 0.00 0.00 0.00 0.00 0.00 0.00 0.00 0.00 0.00 0.00 0.00 0.00 0.01 0.03 0.02 0.01 0.00 0.00 0.04 0.06 0.01 0.01 0.02 0.02 0.04 0.06 0.05 0.03 0.02
0.14 0.15 0.17 0.14 0.17 0.11 0.07 0.09 0.07 0.01 0.00 0.00 0.00 0.00 0.00 0.00 0.00 0.00 0.00 0.00 0.00 0.00 0.00 0.00 0.00 0.00 0.00 0.00 0.00 0.00 0.00 0.00 0.00 0.00 0.00 0.00 0.00 0.00 0.00 0.01 0.00 0.00 0.00 0.01 0.04 0.03 0.05 0.04 0.04 0.04 0.00 0.01 0.01 0.00
0.17 0.14 0.14 0.13 0.15 0.10 0.08 0.11 0.07 0.02 0.00 0.00 0.00 0.00 0.00 0.00 0.00 0.00 0.00 0.00 0.00 0.00 0.00 0.00 0.00 0.00 0.00 0.00 0.00 0.00 0.00 0.00 0.00 0.00 0.00 0.00 0.00 0.00 0.00 0.01 0.00 0.00 0.00 0.00 0.01 0.06 0.03 0.02 0.01 0.00 0.00 0.00 0.00 0.00
0.19 0.16 0.14 0.11 0.12 0.07 0.10 0.12 0.06 0.02 0.01 0.00 0.01 0.01 0.00 0.00 0.00 0.00 0.00 0.00 0.00 0.00 0.00 0.00 0.00 0.00 0.00 0.00 0.00 0.00 0.00 0.00 0.00 0.00 0.00 0.00 0.00 0.00 0.00 0.00 0.00 0.00 0.00 0.00 0.02 0.04 0.02 0.02 0.00 0.00 0.00 0.00 0.00 0.00
0.21 0.20 0.16 0.10 0.09 0.05 0.09 0.13 0.05 0.03 0.02 0.02 0.02 0.01 0.00 0.00 0.00 0.00 0.00 0.00 0.00 0.00 0.00 0.00 0.00 0.00 0.00 0.00 0.00 0.00 0.00 0.00 0.00 0.00 0.00 0.00 0.00 0.00 0.00 0.00 0.00 0.00 0.00 0.00 0.00 0.00 0.00 0.02 0.00 0.00 0.00 0.00 0.00 0.00
0.19 0.21 0.19 0.09 0.08 0.06 0.09 0.12 0.05 0.03 0.03 0.02 0.02 0.01 0.00 0.00 0.00 0.00 0.00 0.00 0.00 0.00 0.00 0.00 0.00 0.00 0.00 0.00 0.00 0.00 0.00 0.00 0.00 0.00 0.00 0.00 0.00 0.00 0.00 0.00 0.00 0.00 0.00 0.00 0.00 0.00 0.00 0.00 0.00 0.00 0.00 0.00 0.00 0.00
0.15 0.18 0.20 0.09 0.07 0.07 0.09 0.08 0.04 0.04 0.03 0.03 0.01 0.00 0.00 0.00 0.00 0.00 0.01 0.03 0.00 0.00 0.00 0.00 0.00 0.00 0.00 0.00 0.00 0.00 0.00 0.00 0.00 0.00 0.00 0.00 0.00 0.00 0.00 0.00 0.00 0.00 0.00 0.00 0.00 0.00 0.00 0.00 0.00 0.00 0.00 0.00 0.00 0.00
0.11 0.16 0.17 0.09 0.06 0.07 0.08 0.04 0.04 0.04 0.04 0.03 0.01 0.00 0.01 0.01 0.00 0.00 0.03 0.03 0.01 0.00 0.00 0.00 0.00 0.00 0.00 0.00 0.00 0.00 0.00 0.00 0.00 0.00 0.00 0.00 0.00 0.00 0.00 0.00 0.00 0.00 0.00 0.00 0.00 0.00 0.00 0.00 0.00 0.00 0.00 0.00 0.00 0.00
0.12 0.17 0.10 0.05 0.05 0.07 0.06 0.03 0.04 0.04 0.03 0.02 0.00 0.01 0.00 0.00 0.00 0.00 0.04 0.04 0.01 0.01 0.00 0.00 0.00 0.00 0.00 0.00 0.00 0.00 0.00 0.00 0.00 0.00 0.00 0.00 0.00 0.00 0.00 0.00 0.00 0.00 0.00 0.00 0.00 0.00 0.00 0.00 0.00 0.00 0.00 0.00 0.00 0.00
0.17 0.15 0.03 0.02 0.03 0.07 0.04 0.03 0.04 0.04 0.04 0.01 0.00 0.00 0.00 0.00 0.01 0.04 0.03 0.01 0.01 0.03 0.00 0.00 0.00 0.00 0.00 0.00 0.00 0.00 0.00 0.00 0.00 0.00 0.00 0.00 0.00 0.00 0.00 0.00 0.00 0.00 0.00 0.00 0.00 0.00 0.00 0.00 0.00 0.00 0.00 0.00 0.00 0.00
0.23 0.09 0.01 0.01 0.03 0.03 0.02 0.03 0.05 0.05 0.02 0.00 0.00 0.01 0.01 0.04 0.07 0.06 0.03 0.02 0.02 0.01 0.00 0.00 0.00 0.00 0.00 0.00 0.00 0.00 0.00 0.00 0.00 0.00 0.00 0.00 0.00 0.00 0.00 0.00 0.00 0.00 0.00 0.00 0.00 0.00 0.00 0.00 0.00 0.00 0.00 0.00 0.00 0.00
0.22 0.06 0.02 0.01 0.01 0.01 0.03 0.05 0.03 0.01 0.00 0.00 0.03 0.09 0.14 0.10 0.06 0.07 0.04 0.02 0.00 0.00 0.00 0.00 0.00 0.00 0.00 0.00 0.00 0.00 0.00 0.00 0.00 0.00 0.00 0.00 0.00 0.00 0.00 0.00 0.00 0.00 0.00 0.00 0.00 0.00 0.00 0.00 0.00 0.00 0.00 0.00 0.00 0.00
0.17 0.06 0.03 0.02 0.01 0.01 0.03 0.02 0.00 0.02 0.01 0.04 0.09 0.11 0.10 0.05 0.04 0.03 0.04 0.01 0.00 0.00 0.00 0.00 0.00 0.00 0.00 0.00 0.00 0.00 0.00 0.00 0.00 0.00 0.00 0.00 0.00 0.00 0.00 0.00 0.00 0.00 0.00 0.00 0.00 0.00 0.00 0.00 0.00 0.00 0.00 0.00 0.00 0.00
0.15 0.05 0.04 0.03 0.01 0.02 0.02 0.04 0.04 0.02 0.00 0.01 0.02 0.06 0.02 0.01 0.00 0.00 0.00 0.00 0.00 0.00 0.00 0.00 0.00 0.00 0.00 0.00 0.00 0.00 0.00 0.00 0.00 0.00 0.00 0.00 0.00 0.00 0.00 0.00 0.00 0.00 0.00 0.00 0.00 0.00 0.00 0.00 0.00 0.00 0.00 0.00 0.00 0.00
0.11 0.04 0.05 0.05 0.04 0.04 0.05 0.03 0.00 0.00 0.00 0.01 0.04 0.02 0.00 0.00 0.00 0.00 0.00 0.00 0.00 0.00 0.00 0.00 0.00 0.00 0.00 0.00 0.00 0.00 0.00 0.01 0.00 0.00 0.00 0.00 0.00 0.00 0.00 0.00 0.00 0.00 0.00 0.00 0.00 0.00 0.00 0.00 0.00 0.00 0.00 0.00 0.00 0.00
0.12 0.09 0.04 0.07 0.10 0.08 0.03 0.01 0.00 0.02 0.00 0.00 0.02 0.06 0.04 0.02 0.01 0.00 0.01 0.03 0.03 0.00 0.00 0.00 0.00 0.00 0.00 0.00 0.00 0.00 0.00 0.00 0.00 0.00 0.00 0.00 0.00 0.00 0.00 0.00 0.00 0.00 0.00 0.00 0.00 0.00 0.00 0.00 0.00 0.00 0.00 0.00 0.00 0.00
0.06 0.03 0.10 0.11 0.09 0.04 0.01 0.00 0.00 0.01 0.00 0.00 0.01 0.05 0.06 0.03 0.02 0.02 0.01 0.04 0.07 0.03 0.00 0.00 0.00 0.00 0.00 0.00 0.00 0.00 0.00 0.00 0.00 0.00 0.00 0.00 0.00 0.00 0.00 0.00 0.00 0.00 0.00 0.00 0.00 0.00 0.00 0.00 0.00 0.00 0.00 0.00 0.00 0.00
0.00 0.02 0.08 0.10 0.05 0.01 0.00 0.00 0.00 0.00 0.00 0.00 0.00 0.02 0.04 0.02 0.01 0.01 0.03 0.03 0.04 0.01 0.01 0.01 0.00 0.00 0.00 0.00 0.00 0.00 0.00 0.00 0.00 0.00 0.00 0.00 0.00 0.00 0.00 0.00 0.00 0.00 0.00 0.00 0.00 0.00 0.00 0.00 0.00 0.00 0.00 0.00 0.00 0.00
0.01 0.04 0.09 0.07 0.01 0.00 0.00 0.00 0.01 0.02 0.00 0.00 0.00 0.01 0.01 0.00 0.00 0.00 0.01 0.01 0.06 0.05 0.01 0.00 0.00 0.00 0.00 0.00 0.00 0.00 0.00 0.00 0.00 0.00 0.00 0.00 0.00 0.00 0.00 0.00 0.00 0.00 0.00 0.00 0.00 0.00 0.00 0.00 0.00 0.00 0.00 0.00 0.00 0.00
0.06 0.03 0.01 0.01 0.01 0.01 0.01 0.00 0.00 0.01 0.00 0.00 0.00 0.00 0.00 0.00 0.00 0.00 0.00 0.02 0.06 0.18 0.19 0.03 0.00 0.00 0.00 0.00 0.00 0.00 0.00 0.00 0.00 0.00 0.01 0.00 0.00 0.00 0.00 0.00 0.00 0.00 0.00 0.00 0.00 0.00 0.00 0.00 0.00 0.00 0.00 0.00 0.00 0.00
0.16 0.11 0.08 0.02 0.01 0.01 0.01 0.00 0.00 0.00 0.00 0.00 0.00 0.00 0.00 0.00 0.00 0.00 0.00 0.00 0.02 0.05 0.08 0.02 0.00 0.00 0.00 0.00 0.00 0.00 0.00 0.00 0.00 0.00 0.00 0.01 0.00 0.00 0.00 0.00 0.00 0.00 0.00 0.00 0.00 0.00 0.00 0.00 0.00 0.00 0.00 0.00 0.00 0.00
0.20 0.26 0.19 0.02 0.04 0.03 0.03 0.01 0.01 0.00 0.00 0.00 0.00 0.00 0.00 0.00 0.00 0.00 0.00 0.01 0.01 0.00 0.00 0.00 0.00 0.00 0.00 0.00 0.00 0.00 0.00 0.00 0.00 0.00 0.00 0.00 0.00 0.00 0.00 0.00 0.00 0.00 0.00 0.00 0.00 0.00 0.00 0.00 0.00 0.00 0.00 0.00 0.00 0.00
0.05 0.03 0.00 0.00 0.01 0.02 0.02 0.05 0.04 0.00 0.00 0.00 0.02 0.01 0.00 0.00 0.00 0.00 0.00 0.00 0.00 0.00 0.00 0.00 0.00 0.00 0.00 0.00 0.00 0.00 0.00 0.00 0.00 0.00 0.00 0.00 0.00 0.00 0.00 0.00 0.00 0.00 0.00 0.00 0.00 0.00 0.00 0.00 0.00 0.00 0.00 0.00 0.00 0.00
0.00 0.02 0.00 0.00 0.01 0.02 0.03 0.11 0.08 0.03 0.02 0.01 0.01 0.01 0.00 0.00 0.02 0.01 0.01 0.00 0.00 0.00 0.00 0.00 0.00 0.00 0.00 0.00 0.00 0.00 0.00 0.00 0.00 0.00 0.00 0.00 0.00 0.00 0.00 0.00 0.00 0.00 0.00 0.00 0.00 0.00 0.00 0.00 0.00 0.00 0.00 0.00 0.00 0.00
0.02 0.02 0.02 0.01 0.01 0.01 0.01 0.07 0.11 0.03 0.02 0.01 0.03 0.01 0.01 0.01 0.01 0.01 0.00 0.00 0.00 0.00 0.00 0.00 0.00 0.00 0.00 0.00 0.00 0.00 0.00 0.00 0.00 0.00 0.00 0.00 0.00 0.00 0.00 0.00 0.00 0.00 0.00 0.00 0.00 0.00 0.00 0.00 0.00 0.00 0.00 0.00 0.00 0.00
0.04 0.03 0.02 0.02 0.01 0.00 0.00 0.00 0.01 0.00 0.01 0.02 0.02 0.02 0.01 0.01 0.01 0.00 0.02 0.02 0.01 0.01 0.01 0.01 0.01 0.01 0.01 0.00 0.00 0.00 0.00 0.00 0.00 0.00 0.00 0.00 0.00 0.00 0.00 0.00 0.00 0.00 0.00 0.00 0.00 0.00 0.00 0.00 0.00 0.00 0.00 0.00 0.00 0.00
0.09 0.07 0.04 0.02 0.02 0.03 0.02 0.01 0.00 0.00 0.00 0.00 0.01 0.02 0.02 0.01 0.01 0.01 0.02 0.03 0.04 0.03 0.02 0.02 0.01 0.01 0.00 0.00 0.00 0.01 0.01 0.00 0.00 0.00 0.00 0.00 0.00 0.00 0.00 0.00 0.00 0.00 0.00 0.00 0.00 0.00 0.00 0.00 0.00 0.00 0.00 0.00 0.00 0.00
0.05 0.05 0.05 0.10 0.12 0.08 0.08 0.07 0.03 0.01 0.01 0.01 0.02 0.02 0.01 0.00 0.01 0.02 0.02 0.03 0.07 0.05 0.04 0.03 0.02 0.01 0.00 0.00 0.01 0.02 0.02 0.01 0.00 0.00 0.00 0.00 0.00 0.00 0.00 0.00 0.00 0.00 0.00 0.00 0.00 0.00 0.00 0.00 0.00 0.00 0.00 0.00 0.00 0.00
0.04 0.06 0.10 0.13 0.17 0.16 0.12 0.09 0.06 0.03 0.02 0.06 0.05 0.03 0.02 0.01 0.03 0.02 0.02 0.05 0.05 0.03 0.02 0.03 0.05 0.02 0.01 0.01 0.03 0.03 0.03 0.02 0.01 0.01 0.01 0.01 0.01 0.02 0.00 0.00 0.00 0.00 0.00 0.00 0.00 0.00 0.00 0.00 0.00 0.00 0.00 0.00 0.00 0.00
0.08 0.10 0.12 0.11 0.11 0.07 0.04 0.04 0.03 0.02 0.04 0.05 0.04 0.02 0.02 0.02 0.04 0.04 0.03 0.03 0.03 0.02 0.02 0.02 0.04 0.04 0.04 0.03 0.04 0.04 0.04 0.03 0.02 0.02 0.01 0.01 0.01 0.01 0.00 0.00 0.00 0.00 0.00 0.00 0.00 0.00 0.00 0.00 0.00 0.00 0.00 0.00 0.00 0.00
0.16 0.19 0.16 0.13 0.11 0.06 0.07 0.07 0.06 0.04 0.04 0.04 0.04 0.04 0.04 0.04 0.05 0.05 0.05 0.05 0.03 0.01 0.01 0.04 0.06 0.07 0.06 0.06 0.04 0.03 0.03 0.02 0.00 0.00 0.00 0.00 0.00 0.00 0.00 0.00 0.00 0.00 0.00 0.00 0.00 0.00 0.00 0.00 0.00 0.00 0.00 0.00 0.00 0.00
0.15 0.15 0.12 0.10 0.08 0.08 0.08 0.07 0.05 0.04 0.04 0.04 0.04 0.05 0.05 0.05 0.05 0.05 0.07 0.07 0.05 0.02 0.03 0.03 0.03 0.05 0.05 0.03 0.02 0.01 0.00 0.00 0.00 0.00 0.00 0.00 0.00 0.00 0.00 0.00 0.00 0.00 0.00 0.00 0.00 0.00 0.00 0.00 0.00 0.00 0.00 0.00 0.00 0.00
0.06 0.05 0.06 0.05 0.05 0.05 0.05 0.06 0.05 0.04 0.03 0.03 0.04 0.04 0.03 0.02 0.02 0.03 0.05 0.08 0.06 0.03 0.03 0.03 0.04 0.04 0.03 0.01 0.00 0.00 0.00 0.00 0.00 0.00 0.00 0.00 0.00 0.00 0.00 0.00 0.00 0.00 0.00 0.00 0.00 0.00 0.00 0.00 0.00 0.00 0.00 0.00 0.00 0.00